<?xml version="1.0" encoding="UTF-8" standalone="no" ?>
<gpx xmlns="http://www.topografix.com/GPX/1/1" xmlns:xsi="http://www.w3.org/2001/XMLSchema-instance" xsi:schemaLocation="http://www.topografix.com/GPX/1/1 http://www.topografix.com/GPX/1/1/gpx.xsd" version="1.1" creator="VisuGPX - https://www.visugpx.com">
  <metadata>
    <name>2019-05-31 14:57:58</name>
    <desc><![CDATA[

]]></desc>
  </metadata>
  <trk>
    <name><![CDATA[2019-05-31 14:57:58]]></name>
    <trkseg>
      <trkpt lat="41.63993" lon="-8.6357">
        <ele>69.83</ele>
        <time>2019-05-31T08:14:16Z</time>
      </trkpt>
      <trkpt lat="41.63993" lon="-8.63571">
        <ele>69.83</ele>
        <time>2019-05-31T08:14:17Z</time>
      </trkpt>
      <trkpt lat="41.64002" lon="-8.63566">
        <ele>69.35</ele>
        <time>2019-05-31T08:14:38Z</time>
      </trkpt>
      <trkpt lat="41.64003" lon="-8.63562">
        <ele>69.35</ele>
        <time>2019-05-31T08:14:59Z</time>
      </trkpt>
      <trkpt lat="41.64003" lon="-8.63563">
        <ele>69.83</ele>
        <time>2019-05-31T08:15:30Z</time>
      </trkpt>
      <trkpt lat="41.64012" lon="-8.63564">
        <ele>69.83</ele>
        <time>2019-05-31T08:15:45Z</time>
      </trkpt>
      <trkpt lat="41.64012" lon="-8.63567">
        <ele>69.83</ele>
        <time>2019-05-31T08:16:02Z</time>
      </trkpt>
      <trkpt lat="41.64016" lon="-8.63572">
        <ele>70.31</ele>
        <time>2019-05-31T08:16:31Z</time>
      </trkpt>
      <trkpt lat="41.64022" lon="-8.63572">
        <ele>70.79</ele>
        <time>2019-05-31T08:16:44Z</time>
      </trkpt>
      <trkpt lat="41.64035" lon="-8.63563">
        <ele>71.27</ele>
        <time>2019-05-31T08:16:57Z</time>
      </trkpt>
      <trkpt lat="41.64048" lon="-8.63563">
        <ele>71.76</ele>
        <time>2019-05-31T08:17:09Z</time>
      </trkpt>
      <trkpt lat="41.64057" lon="-8.63561">
        <ele>72.24</ele>
        <time>2019-05-31T08:17:21Z</time>
      </trkpt>
      <trkpt lat="41.64062" lon="-8.63563">
        <ele>72.72</ele>
        <time>2019-05-31T08:17:28Z</time>
      </trkpt>
      <trkpt lat="41.64069" lon="-8.63575">
        <ele>72.72</ele>
        <time>2019-05-31T08:17:36Z</time>
      </trkpt>
      <trkpt lat="41.64073" lon="-8.63582">
        <ele>72.24</ele>
        <time>2019-05-31T08:17:41Z</time>
      </trkpt>
      <trkpt lat="41.64074" lon="-8.63586">
        <ele>72.72</ele>
        <time>2019-05-31T08:17:44Z</time>
      </trkpt>
      <trkpt lat="41.64076" lon="-8.63596">
        <ele>73.2</ele>
        <time>2019-05-31T08:17:50Z</time>
      </trkpt>
      <trkpt lat="41.64075" lon="-8.6362">
        <ele>72.72</ele>
        <time>2019-05-31T08:18:05Z</time>
      </trkpt>
      <trkpt lat="41.64078" lon="-8.63621">
        <ele>73.68</ele>
        <time>2019-05-31T08:18:16Z</time>
      </trkpt>
      <trkpt lat="41.64082" lon="-8.63621">
        <ele>73.68</ele>
        <time>2019-05-31T08:18:29Z</time>
      </trkpt>
      <trkpt lat="41.64081" lon="-8.63621">
        <ele>73.2</ele>
        <time>2019-05-31T08:18:54Z</time>
      </trkpt>
      <trkpt lat="41.64081" lon="-8.63621">
        <ele>73.68</ele>
        <time>2019-05-31T08:19:17Z</time>
      </trkpt>
      <trkpt lat="41.64079" lon="-8.63618">
        <ele>73.2</ele>
        <time>2019-05-31T08:19:42Z</time>
      </trkpt>
      <trkpt lat="41.64081" lon="-8.63618">
        <ele>73.2</ele>
        <time>2019-05-31T08:20:04Z</time>
      </trkpt>
      <trkpt lat="41.64082" lon="-8.63622">
        <ele>73.68</ele>
        <time>2019-05-31T08:20:22Z</time>
      </trkpt>
      <trkpt lat="41.64082" lon="-8.63633">
        <ele>73.68</ele>
        <time>2019-05-31T08:20:36Z</time>
      </trkpt>
      <trkpt lat="41.64081" lon="-8.63642">
        <ele>73.2</ele>
        <time>2019-05-31T08:20:48Z</time>
      </trkpt>
      <trkpt lat="41.64077" lon="-8.63662">
        <ele>73.68</ele>
        <time>2019-05-31T08:20:59Z</time>
      </trkpt>
      <trkpt lat="41.64073" lon="-8.63684">
        <ele>74.16</ele>
        <time>2019-05-31T08:21:12Z</time>
      </trkpt>
      <trkpt lat="41.64073" lon="-8.63705">
        <ele>74.64</ele>
        <time>2019-05-31T08:21:24Z</time>
      </trkpt>
      <trkpt lat="41.64071" lon="-8.63724">
        <ele>74.64</ele>
        <time>2019-05-31T08:21:35Z</time>
      </trkpt>
      <trkpt lat="41.64068" lon="-8.63746">
        <ele>75.12</ele>
        <time>2019-05-31T08:21:48Z</time>
      </trkpt>
      <trkpt lat="41.64068" lon="-8.63757">
        <ele>75.12</ele>
        <time>2019-05-31T08:21:55Z</time>
      </trkpt>
      <trkpt lat="41.64067" lon="-8.63775">
        <ele>76.08</ele>
        <time>2019-05-31T08:22:09Z</time>
      </trkpt>
      <trkpt lat="41.64067" lon="-8.63791">
        <ele>76.56</ele>
        <time>2019-05-31T08:22:21Z</time>
      </trkpt>
      <trkpt lat="41.64067" lon="-8.63811">
        <ele>78</ele>
        <time>2019-05-31T08:22:33Z</time>
      </trkpt>
      <trkpt lat="41.64067" lon="-8.63814">
        <ele>78.48</ele>
        <time>2019-05-31T08:22:35Z</time>
      </trkpt>
      <trkpt lat="41.64068" lon="-8.63837">
        <ele>78.48</ele>
        <time>2019-05-31T08:22:50Z</time>
      </trkpt>
      <trkpt lat="41.64069" lon="-8.63868">
        <ele>80.41</ele>
        <time>2019-05-31T08:23:09Z</time>
      </trkpt>
      <trkpt lat="41.64069" lon="-8.63894">
        <ele>80.89</ele>
        <time>2019-05-31T08:23:24Z</time>
      </trkpt>
      <trkpt lat="41.64066" lon="-8.63921">
        <ele>81.37</ele>
        <time>2019-05-31T08:23:40Z</time>
      </trkpt>
      <trkpt lat="41.64064" lon="-8.6394">
        <ele>81.85</ele>
        <time>2019-05-31T08:23:53Z</time>
      </trkpt>
      <trkpt lat="41.64061" lon="-8.63953">
        <ele>82.33</ele>
        <time>2019-05-31T08:24:01Z</time>
      </trkpt>
      <trkpt lat="41.64058" lon="-8.63972">
        <ele>83.77</ele>
        <time>2019-05-31T08:24:14Z</time>
      </trkpt>
      <trkpt lat="41.64053" lon="-8.63997">
        <ele>84.25</ele>
        <time>2019-05-31T08:24:30Z</time>
      </trkpt>
      <trkpt lat="41.64048" lon="-8.6402">
        <ele>85.21</ele>
        <time>2019-05-31T08:24:45Z</time>
      </trkpt>
      <trkpt lat="41.64045" lon="-8.64037">
        <ele>85.69</ele>
        <time>2019-05-31T08:24:56Z</time>
      </trkpt>
      <trkpt lat="41.64046" lon="-8.64042">
        <ele>85.21</ele>
        <time>2019-05-31T08:25:00Z</time>
      </trkpt>
      <trkpt lat="41.64045" lon="-8.64047">
        <ele>85.69</ele>
        <time>2019-05-31T08:25:03Z</time>
      </trkpt>
      <trkpt lat="41.64043" lon="-8.64056">
        <ele>85.69</ele>
        <time>2019-05-31T08:25:11Z</time>
      </trkpt>
      <trkpt lat="41.64045" lon="-8.64065">
        <ele>86.66</ele>
        <time>2019-05-31T08:25:23Z</time>
      </trkpt>
      <trkpt lat="41.64045" lon="-8.64066">
        <ele>87.62</ele>
        <time>2019-05-31T08:25:43Z</time>
      </trkpt>
      <trkpt lat="41.64048" lon="-8.64076">
        <ele>87.14</ele>
        <time>2019-05-31T08:25:53Z</time>
      </trkpt>
      <trkpt lat="41.64042" lon="-8.64083">
        <ele>88.1</ele>
        <time>2019-05-31T08:26:07Z</time>
      </trkpt>
      <trkpt lat="41.64054" lon="-8.64081">
        <ele>87.14</ele>
        <time>2019-05-31T08:26:20Z</time>
      </trkpt>
      <trkpt lat="41.64054" lon="-8.64081">
        <ele>87.14</ele>
        <time>2019-05-31T08:26:21Z</time>
      </trkpt>
      <trkpt lat="41.6405" lon="-8.64082">
        <ele>87.14</ele>
        <time>2019-05-31T08:26:33Z</time>
      </trkpt>
      <trkpt lat="41.64062" lon="-8.64073">
        <ele>87.14</ele>
        <time>2019-05-31T08:26:46Z</time>
      </trkpt>
      <trkpt lat="41.64069" lon="-8.6407">
        <ele>87.14</ele>
        <time>2019-05-31T08:27:03Z</time>
      </trkpt>
      <trkpt lat="41.64077" lon="-8.64062">
        <ele>86.66</ele>
        <time>2019-05-31T08:27:11Z</time>
      </trkpt>
      <trkpt lat="41.64089" lon="-8.6405">
        <ele>86.18</ele>
        <time>2019-05-31T08:27:26Z</time>
      </trkpt>
      <trkpt lat="41.64104" lon="-8.64033">
        <ele>87.14</ele>
        <time>2019-05-31T08:27:40Z</time>
      </trkpt>
      <trkpt lat="41.64118" lon="-8.64018">
        <ele>87.14</ele>
        <time>2019-05-31T08:27:54Z</time>
      </trkpt>
      <trkpt lat="41.64121" lon="-8.64014">
        <ele>87.14</ele>
        <time>2019-05-31T08:27:57Z</time>
      </trkpt>
      <trkpt lat="41.64129" lon="-8.64011">
        <ele>87.62</ele>
        <time>2019-05-31T08:28:04Z</time>
      </trkpt>
      <trkpt lat="41.64148" lon="-8.64008">
        <ele>88.58</ele>
        <time>2019-05-31T08:28:20Z</time>
      </trkpt>
      <trkpt lat="41.64163" lon="-8.63999">
        <ele>89.06</ele>
        <time>2019-05-31T08:28:36Z</time>
      </trkpt>
      <trkpt lat="41.64176" lon="-8.63991">
        <ele>89.06</ele>
        <time>2019-05-31T08:28:49Z</time>
      </trkpt>
      <trkpt lat="41.64193" lon="-8.63978">
        <ele>89.54</ele>
        <time>2019-05-31T08:29:05Z</time>
      </trkpt>
      <trkpt lat="41.64196" lon="-8.63975">
        <ele>90.5</ele>
        <time>2019-05-31T08:29:09Z</time>
      </trkpt>
      <trkpt lat="41.642" lon="-8.63971">
        <ele>90.5</ele>
        <time>2019-05-31T08:29:22Z</time>
      </trkpt>
      <trkpt lat="41.64201" lon="-8.6397">
        <ele>90.98</ele>
        <time>2019-05-31T08:29:28Z</time>
      </trkpt>
      <trkpt lat="41.64205" lon="-8.63964">
        <ele>91.46</ele>
        <time>2019-05-31T08:29:33Z</time>
      </trkpt>
      <trkpt lat="41.64212" lon="-8.63957">
        <ele>90.98</ele>
        <time>2019-05-31T08:29:45Z</time>
      </trkpt>
      <trkpt lat="41.64219" lon="-8.63946">
        <ele>91.46</ele>
        <time>2019-05-31T08:30:04Z</time>
      </trkpt>
      <trkpt lat="41.64221" lon="-8.6394">
        <ele>90.5</ele>
        <time>2019-05-31T08:30:08Z</time>
      </trkpt>
      <trkpt lat="41.64222" lon="-8.63939">
        <ele>90.98</ele>
        <time>2019-05-31T08:30:09Z</time>
      </trkpt>
      <trkpt lat="41.64234" lon="-8.63928">
        <ele>91.46</ele>
        <time>2019-05-31T08:30:25Z</time>
      </trkpt>
      <trkpt lat="41.64236" lon="-8.63934">
        <ele>91.46</ele>
        <time>2019-05-31T08:30:50Z</time>
      </trkpt>
      <trkpt lat="41.64243" lon="-8.63927">
        <ele>92.42</ele>
        <time>2019-05-31T08:31:06Z</time>
      </trkpt>
      <trkpt lat="41.64249" lon="-8.63922">
        <ele>92.42</ele>
        <time>2019-05-31T08:31:21Z</time>
      </trkpt>
      <trkpt lat="41.64258" lon="-8.6392">
        <ele>93.87</ele>
        <time>2019-05-31T08:31:32Z</time>
      </trkpt>
      <trkpt lat="41.64279" lon="-8.63913">
        <ele>95.31</ele>
        <time>2019-05-31T08:31:46Z</time>
      </trkpt>
      <trkpt lat="41.64289" lon="-8.63917">
        <ele>96.27</ele>
        <time>2019-05-31T08:31:56Z</time>
      </trkpt>
      <trkpt lat="41.64294" lon="-8.63917">
        <ele>96.75</ele>
        <time>2019-05-31T08:32:00Z</time>
      </trkpt>
      <trkpt lat="41.64295" lon="-8.63919">
        <ele>96.75</ele>
        <time>2019-05-31T08:32:02Z</time>
      </trkpt>
      <trkpt lat="41.64297" lon="-8.6392">
        <ele>96.27</ele>
        <time>2019-05-31T08:32:04Z</time>
      </trkpt>
      <trkpt lat="41.64311" lon="-8.63932">
        <ele>97.23</ele>
        <time>2019-05-31T08:32:19Z</time>
      </trkpt>
      <trkpt lat="41.64312" lon="-8.63931">
        <ele>97.23</ele>
        <time>2019-05-31T08:32:20Z</time>
      </trkpt>
      <trkpt lat="41.64315" lon="-8.63931">
        <ele>97.71</ele>
        <time>2019-05-31T08:32:22Z</time>
      </trkpt>
      <trkpt lat="41.64331" lon="-8.63918">
        <ele>97.23</ele>
        <time>2019-05-31T08:32:37Z</time>
      </trkpt>
      <trkpt lat="41.6434" lon="-8.63911">
        <ele>96.27</ele>
        <time>2019-05-31T08:32:50Z</time>
      </trkpt>
      <trkpt lat="41.64341" lon="-8.63912">
        <ele>96.27</ele>
        <time>2019-05-31T08:32:51Z</time>
      </trkpt>
      <trkpt lat="41.64352" lon="-8.63905">
        <ele>96.75</ele>
        <time>2019-05-31T08:33:03Z</time>
      </trkpt>
      <trkpt lat="41.64369" lon="-8.63907">
        <ele>98.19</ele>
        <time>2019-05-31T08:33:18Z</time>
      </trkpt>
      <trkpt lat="41.64385" lon="-8.6391">
        <ele>98.19</ele>
        <time>2019-05-31T08:33:31Z</time>
      </trkpt>
      <trkpt lat="41.64396" lon="-8.63914">
        <ele>97.71</ele>
        <time>2019-05-31T08:33:42Z</time>
      </trkpt>
      <trkpt lat="41.64407" lon="-8.63909">
        <ele>97.23</ele>
        <time>2019-05-31T08:33:53Z</time>
      </trkpt>
      <trkpt lat="41.6443" lon="-8.63901">
        <ele>96.75</ele>
        <time>2019-05-31T08:34:09Z</time>
      </trkpt>
      <trkpt lat="41.64444" lon="-8.63894">
        <ele>97.23</ele>
        <time>2019-05-31T08:34:23Z</time>
      </trkpt>
      <trkpt lat="41.64456" lon="-8.63886">
        <ele>97.23</ele>
        <time>2019-05-31T08:34:37Z</time>
      </trkpt>
      <trkpt lat="41.64471" lon="-8.63881">
        <ele>98.19</ele>
        <time>2019-05-31T08:34:50Z</time>
      </trkpt>
      <trkpt lat="41.64491" lon="-8.63881">
        <ele>99.63</ele>
        <time>2019-05-31T08:35:05Z</time>
      </trkpt>
      <trkpt lat="41.64494" lon="-8.63882">
        <ele>100.11</ele>
        <time>2019-05-31T08:35:08Z</time>
      </trkpt>
      <trkpt lat="41.64513" lon="-8.63878">
        <ele>101.08</ele>
        <time>2019-05-31T08:35:23Z</time>
      </trkpt>
      <trkpt lat="41.64519" lon="-8.6388">
        <ele>101.08</ele>
        <time>2019-05-31T08:35:40Z</time>
      </trkpt>
      <trkpt lat="41.64526" lon="-8.63881">
        <ele>100.6</ele>
        <time>2019-05-31T08:35:48Z</time>
      </trkpt>
      <trkpt lat="41.64529" lon="-8.6388">
        <ele>100.11</ele>
        <time>2019-05-31T08:35:51Z</time>
      </trkpt>
      <trkpt lat="41.64545" lon="-8.63886">
        <ele>99.15</ele>
        <time>2019-05-31T08:36:06Z</time>
      </trkpt>
      <trkpt lat="41.64563" lon="-8.63888">
        <ele>98.67</ele>
        <time>2019-05-31T08:36:21Z</time>
      </trkpt>
      <trkpt lat="41.64578" lon="-8.63882">
        <ele>98.67</ele>
        <time>2019-05-31T08:36:35Z</time>
      </trkpt>
      <trkpt lat="41.64592" lon="-8.63874">
        <ele>98.67</ele>
        <time>2019-05-31T08:36:47Z</time>
      </trkpt>
      <trkpt lat="41.64609" lon="-8.6387">
        <ele>97.71</ele>
        <time>2019-05-31T08:37:01Z</time>
      </trkpt>
      <trkpt lat="41.6462" lon="-8.63868">
        <ele>98.19</ele>
        <time>2019-05-31T08:37:15Z</time>
      </trkpt>
      <trkpt lat="41.64642" lon="-8.63867">
        <ele>98.19</ele>
        <time>2019-05-31T08:37:27Z</time>
      </trkpt>
      <trkpt lat="41.64658" lon="-8.63874">
        <ele>97.71</ele>
        <time>2019-05-31T08:37:41Z</time>
      </trkpt>
      <trkpt lat="41.64682" lon="-8.63876">
        <ele>96.75</ele>
        <time>2019-05-31T08:37:59Z</time>
      </trkpt>
      <trkpt lat="41.64702" lon="-8.63878">
        <ele>97.23</ele>
        <time>2019-05-31T08:38:15Z</time>
      </trkpt>
      <trkpt lat="41.64711" lon="-8.63876">
        <ele>97.23</ele>
        <time>2019-05-31T08:38:23Z</time>
      </trkpt>
      <trkpt lat="41.64713" lon="-8.63879">
        <ele>97.23</ele>
        <time>2019-05-31T08:38:38Z</time>
      </trkpt>
      <trkpt lat="41.64716" lon="-8.63877">
        <ele>97.23</ele>
        <time>2019-05-31T08:38:50Z</time>
      </trkpt>
      <trkpt lat="41.64718" lon="-8.63879">
        <ele>97.23</ele>
        <time>2019-05-31T08:38:53Z</time>
      </trkpt>
      <trkpt lat="41.64734" lon="-8.63886">
        <ele>98.67</ele>
        <time>2019-05-31T08:39:09Z</time>
      </trkpt>
      <trkpt lat="41.64746" lon="-8.63893">
        <ele>101.56</ele>
        <time>2019-05-31T08:39:24Z</time>
      </trkpt>
      <trkpt lat="41.64763" lon="-8.63902">
        <ele>103</ele>
        <time>2019-05-31T08:39:41Z</time>
      </trkpt>
      <trkpt lat="41.64772" lon="-8.63901">
        <ele>103.96</ele>
        <time>2019-05-31T08:39:53Z</time>
      </trkpt>
      <trkpt lat="41.64788" lon="-8.63904">
        <ele>104.44</ele>
        <time>2019-05-31T08:40:07Z</time>
      </trkpt>
      <trkpt lat="41.64806" lon="-8.639">
        <ele>104.92</ele>
        <time>2019-05-31T08:40:25Z</time>
      </trkpt>
      <trkpt lat="41.64814" lon="-8.63889">
        <ele>105.88</ele>
        <time>2019-05-31T08:40:40Z</time>
      </trkpt>
      <trkpt lat="41.64816" lon="-8.63885">
        <ele>106.84</ele>
        <time>2019-05-31T08:40:44Z</time>
      </trkpt>
      <trkpt lat="41.64828" lon="-8.63867">
        <ele>108.29</ele>
        <time>2019-05-31T08:41:00Z</time>
      </trkpt>
      <trkpt lat="41.64839" lon="-8.63853">
        <ele>108.77</ele>
        <time>2019-05-31T08:41:14Z</time>
      </trkpt>
      <trkpt lat="41.64851" lon="-8.63839">
        <ele>110.21</ele>
        <time>2019-05-31T08:41:30Z</time>
      </trkpt>
      <trkpt lat="41.6486" lon="-8.63822">
        <ele>110.21</ele>
        <time>2019-05-31T08:41:43Z</time>
      </trkpt>
      <trkpt lat="41.64868" lon="-8.63795">
        <ele>110.21</ele>
        <time>2019-05-31T08:42:00Z</time>
      </trkpt>
      <trkpt lat="41.64864" lon="-8.63774">
        <ele>108.77</ele>
        <time>2019-05-31T08:42:16Z</time>
      </trkpt>
      <trkpt lat="41.64865" lon="-8.63761">
        <ele>108.29</ele>
        <time>2019-05-31T08:42:30Z</time>
      </trkpt>
      <trkpt lat="41.64864" lon="-8.63753">
        <ele>107.32</ele>
        <time>2019-05-31T08:42:41Z</time>
      </trkpt>
      <trkpt lat="41.64859" lon="-8.63749">
        <ele>106.36</ele>
        <time>2019-05-31T08:42:52Z</time>
      </trkpt>
      <trkpt lat="41.64858" lon="-8.63747">
        <ele>106.36</ele>
        <time>2019-05-31T08:43:04Z</time>
      </trkpt>
      <trkpt lat="41.64862" lon="-8.63738">
        <ele>105.88</ele>
        <time>2019-05-31T08:43:18Z</time>
      </trkpt>
      <trkpt lat="41.64862" lon="-8.63732">
        <ele>105.88</ele>
        <time>2019-05-31T08:43:37Z</time>
      </trkpt>
      <trkpt lat="41.64864" lon="-8.63735">
        <ele>106.36</ele>
        <time>2019-05-31T08:43:59Z</time>
      </trkpt>
      <trkpt lat="41.64863" lon="-8.63744">
        <ele>106.36</ele>
        <time>2019-05-31T08:44:21Z</time>
      </trkpt>
      <trkpt lat="41.64866" lon="-8.63745">
        <ele>106.84</ele>
        <time>2019-05-31T08:44:38Z</time>
      </trkpt>
      <trkpt lat="41.64865" lon="-8.63755">
        <ele>106.84</ele>
        <time>2019-05-31T08:44:56Z</time>
      </trkpt>
      <trkpt lat="41.64862" lon="-8.63761">
        <ele>108.77</ele>
        <time>2019-05-31T08:45:08Z</time>
      </trkpt>
      <trkpt lat="41.6485" lon="-8.63749">
        <ele>108.77</ele>
        <time>2019-05-31T08:45:21Z</time>
      </trkpt>
      <trkpt lat="41.64846" lon="-8.63739">
        <ele>108.77</ele>
        <time>2019-05-31T08:45:37Z</time>
      </trkpt>
      <trkpt lat="41.64838" lon="-8.63726">
        <ele>108.29</ele>
        <time>2019-05-31T08:45:49Z</time>
      </trkpt>
      <trkpt lat="41.64833" lon="-8.63713">
        <ele>108.29</ele>
        <time>2019-05-31T08:45:58Z</time>
      </trkpt>
      <trkpt lat="41.64826" lon="-8.63695">
        <ele>107.81</ele>
        <time>2019-05-31T08:46:12Z</time>
      </trkpt>
      <trkpt lat="41.64818" lon="-8.63688">
        <ele>105.88</ele>
        <time>2019-05-31T08:46:25Z</time>
      </trkpt>
      <trkpt lat="41.64814" lon="-8.63688">
        <ele>104.92</ele>
        <time>2019-05-31T08:46:42Z</time>
      </trkpt>
      <trkpt lat="41.64807" lon="-8.63689">
        <ele>103.48</ele>
        <time>2019-05-31T08:46:49Z</time>
      </trkpt>
      <trkpt lat="41.64804" lon="-8.63689">
        <ele>103</ele>
        <time>2019-05-31T08:46:51Z</time>
      </trkpt>
      <trkpt lat="41.64797" lon="-8.63691">
        <ele>102.04</ele>
        <time>2019-05-31T08:47:05Z</time>
      </trkpt>
      <trkpt lat="41.64795" lon="-8.63692">
        <ele>101.56</ele>
        <time>2019-05-31T08:47:07Z</time>
      </trkpt>
      <trkpt lat="41.64783" lon="-8.63692">
        <ele>99.63</ele>
        <time>2019-05-31T08:47:18Z</time>
      </trkpt>
      <trkpt lat="41.6478" lon="-8.63691">
        <ele>98.67</ele>
        <time>2019-05-31T08:47:21Z</time>
      </trkpt>
      <trkpt lat="41.64779" lon="-8.63686">
        <ele>97.71</ele>
        <time>2019-05-31T08:47:25Z</time>
      </trkpt>
      <trkpt lat="41.64777" lon="-8.63677">
        <ele>95.31</ele>
        <time>2019-05-31T08:47:33Z</time>
      </trkpt>
      <trkpt lat="41.64778" lon="-8.63669">
        <ele>94.83</ele>
        <time>2019-05-31T08:47:37Z</time>
      </trkpt>
      <trkpt lat="41.64777" lon="-8.63663">
        <ele>95.31</ele>
        <time>2019-05-31T08:47:41Z</time>
      </trkpt>
      <trkpt lat="41.64782" lon="-8.63648">
        <ele>95.79</ele>
        <time>2019-05-31T08:47:56Z</time>
      </trkpt>
      <trkpt lat="41.64782" lon="-8.63651">
        <ele>95.31</ele>
        <time>2019-05-31T08:48:11Z</time>
      </trkpt>
      <trkpt lat="41.64786" lon="-8.63643">
        <ele>95.31</ele>
        <time>2019-05-31T08:48:24Z</time>
      </trkpt>
      <trkpt lat="41.6479" lon="-8.63639">
        <ele>94.83</ele>
        <time>2019-05-31T08:48:41Z</time>
      </trkpt>
      <trkpt lat="41.64808" lon="-8.63626">
        <ele>94.83</ele>
        <time>2019-05-31T08:48:56Z</time>
      </trkpt>
      <trkpt lat="41.64831" lon="-8.63619">
        <ele>93.87</ele>
        <time>2019-05-31T08:49:13Z</time>
      </trkpt>
      <trkpt lat="41.64839" lon="-8.63617">
        <ele>93.87</ele>
        <time>2019-05-31T08:49:20Z</time>
      </trkpt>
      <trkpt lat="41.64863" lon="-8.63611">
        <ele>93.87</ele>
        <time>2019-05-31T08:49:38Z</time>
      </trkpt>
      <trkpt lat="41.64882" lon="-8.63605">
        <ele>93.39</ele>
        <time>2019-05-31T08:49:54Z</time>
      </trkpt>
      <trkpt lat="41.64898" lon="-8.63593">
        <ele>94.35</ele>
        <time>2019-05-31T08:50:08Z</time>
      </trkpt>
      <trkpt lat="41.64902" lon="-8.63589">
        <ele>94.35</ele>
        <time>2019-05-31T08:50:12Z</time>
      </trkpt>
      <trkpt lat="41.64905" lon="-8.63588">
        <ele>94.35</ele>
        <time>2019-05-31T08:50:14Z</time>
      </trkpt>
      <trkpt lat="41.64909" lon="-8.63584">
        <ele>93.87</ele>
        <time>2019-05-31T08:50:19Z</time>
      </trkpt>
      <trkpt lat="41.64912" lon="-8.63581">
        <ele>94.35</ele>
        <time>2019-05-31T08:50:22Z</time>
      </trkpt>
      <trkpt lat="41.64924" lon="-8.63572">
        <ele>94.35</ele>
        <time>2019-05-31T08:50:37Z</time>
      </trkpt>
      <trkpt lat="41.64933" lon="-8.63563">
        <ele>94.35</ele>
        <time>2019-05-31T08:50:48Z</time>
      </trkpt>
      <trkpt lat="41.6495" lon="-8.6355">
        <ele>93.87</ele>
        <time>2019-05-31T08:51:04Z</time>
      </trkpt>
      <trkpt lat="41.64959" lon="-8.63539">
        <ele>92.9</ele>
        <time>2019-05-31T08:51:19Z</time>
      </trkpt>
      <trkpt lat="41.64957" lon="-8.63542">
        <ele>93.39</ele>
        <time>2019-05-31T08:51:26Z</time>
      </trkpt>
      <trkpt lat="41.64952" lon="-8.63549">
        <ele>94.35</ele>
        <time>2019-05-31T08:51:39Z</time>
      </trkpt>
      <trkpt lat="41.64954" lon="-8.63552">
        <ele>94.83</ele>
        <time>2019-05-31T08:52:03Z</time>
      </trkpt>
      <trkpt lat="41.64954" lon="-8.63547">
        <ele>94.35</ele>
        <time>2019-05-31T08:52:21Z</time>
      </trkpt>
      <trkpt lat="41.64972" lon="-8.63522">
        <ele>91.94</ele>
        <time>2019-05-31T08:52:39Z</time>
      </trkpt>
      <trkpt lat="41.64989" lon="-8.63504">
        <ele>91.46</ele>
        <time>2019-05-31T08:52:54Z</time>
      </trkpt>
      <trkpt lat="41.65006" lon="-8.63491">
        <ele>90.98</ele>
        <time>2019-05-31T08:53:08Z</time>
      </trkpt>
      <trkpt lat="41.65024" lon="-8.63476">
        <ele>89.54</ele>
        <time>2019-05-31T08:53:24Z</time>
      </trkpt>
      <trkpt lat="41.65038" lon="-8.63464">
        <ele>89.54</ele>
        <time>2019-05-31T08:53:37Z</time>
      </trkpt>
      <trkpt lat="41.65065" lon="-8.63454">
        <ele>88.1</ele>
        <time>2019-05-31T08:53:54Z</time>
      </trkpt>
      <trkpt lat="41.65086" lon="-8.63454">
        <ele>86.18</ele>
        <time>2019-05-31T08:54:09Z</time>
      </trkpt>
      <trkpt lat="41.65106" lon="-8.63453">
        <ele>85.21</ele>
        <time>2019-05-31T08:54:24Z</time>
      </trkpt>
      <trkpt lat="41.65124" lon="-8.6344">
        <ele>84.25</ele>
        <time>2019-05-31T08:54:41Z</time>
      </trkpt>
      <trkpt lat="41.65138" lon="-8.63429">
        <ele>85.21</ele>
        <time>2019-05-31T08:54:55Z</time>
      </trkpt>
      <trkpt lat="41.65141" lon="-8.63427">
        <ele>85.21</ele>
        <time>2019-05-31T08:54:58Z</time>
      </trkpt>
      <trkpt lat="41.65159" lon="-8.63416">
        <ele>84.25</ele>
        <time>2019-05-31T08:55:13Z</time>
      </trkpt>
      <trkpt lat="41.65166" lon="-8.63414">
        <ele>80.41</ele>
        <time>2019-05-31T08:55:19Z</time>
      </trkpt>
      <trkpt lat="41.65166" lon="-8.63413">
        <ele>87.62</ele>
        <time>2019-05-31T08:55:20Z</time>
      </trkpt>
      <trkpt lat="41.65167" lon="-8.63413">
        <ele>84.73</ele>
        <time>2019-05-31T08:55:21Z</time>
      </trkpt>
      <trkpt lat="41.65169" lon="-8.63413">
        <ele>84.25</ele>
        <time>2019-05-31T08:55:23Z</time>
      </trkpt>
      <trkpt lat="41.65185" lon="-8.63404">
        <ele>84.73</ele>
        <time>2019-05-31T08:55:38Z</time>
      </trkpt>
      <trkpt lat="41.65197" lon="-8.63397">
        <ele>83.77</ele>
        <time>2019-05-31T08:55:50Z</time>
      </trkpt>
      <trkpt lat="41.65199" lon="-8.63396">
        <ele>84.25</ele>
        <time>2019-05-31T08:55:51Z</time>
      </trkpt>
      <trkpt lat="41.65208" lon="-8.63382">
        <ele>84.73</ele>
        <time>2019-05-31T08:56:04Z</time>
      </trkpt>
      <trkpt lat="41.65224" lon="-8.63369">
        <ele>84.73</ele>
        <time>2019-05-31T08:56:18Z</time>
      </trkpt>
      <trkpt lat="41.65245" lon="-8.63362">
        <ele>85.69</ele>
        <time>2019-05-31T08:56:32Z</time>
      </trkpt>
      <trkpt lat="41.65265" lon="-8.63359">
        <ele>86.66</ele>
        <time>2019-05-31T08:56:46Z</time>
      </trkpt>
      <trkpt lat="41.65281" lon="-8.63359">
        <ele>88.1</ele>
        <time>2019-05-31T08:56:59Z</time>
      </trkpt>
      <trkpt lat="41.65297" lon="-8.63361">
        <ele>88.58</ele>
        <time>2019-05-31T08:57:13Z</time>
      </trkpt>
      <trkpt lat="41.65313" lon="-8.63362">
        <ele>88.58</ele>
        <time>2019-05-31T08:57:27Z</time>
      </trkpt>
      <trkpt lat="41.65314" lon="-8.63365">
        <ele>88.1</ele>
        <time>2019-05-31T08:57:39Z</time>
      </trkpt>
      <trkpt lat="41.65332" lon="-8.63364">
        <ele>88.1</ele>
        <time>2019-05-31T08:57:53Z</time>
      </trkpt>
      <trkpt lat="41.65354" lon="-8.6337">
        <ele>89.06</ele>
        <time>2019-05-31T08:58:12Z</time>
      </trkpt>
      <trkpt lat="41.65363" lon="-8.63376">
        <ele>88.58</ele>
        <time>2019-05-31T08:58:27Z</time>
      </trkpt>
      <trkpt lat="41.65378" lon="-8.63376">
        <ele>89.06</ele>
        <time>2019-05-31T08:58:40Z</time>
      </trkpt>
      <trkpt lat="41.65394" lon="-8.63379">
        <ele>89.54</ele>
        <time>2019-05-31T08:58:53Z</time>
      </trkpt>
      <trkpt lat="41.6541" lon="-8.6338">
        <ele>91.46</ele>
        <time>2019-05-31T08:59:09Z</time>
      </trkpt>
      <trkpt lat="41.65412" lon="-8.6338">
        <ele>91.46</ele>
        <time>2019-05-31T08:59:12Z</time>
      </trkpt>
      <trkpt lat="41.65416" lon="-8.63379">
        <ele>91.94</ele>
        <time>2019-05-31T08:59:16Z</time>
      </trkpt>
      <trkpt lat="41.65424" lon="-8.63375">
        <ele>91.94</ele>
        <time>2019-05-31T08:59:24Z</time>
      </trkpt>
      <trkpt lat="41.65428" lon="-8.63371">
        <ele>91.94</ele>
        <time>2019-05-31T08:59:30Z</time>
      </trkpt>
      <trkpt lat="41.65451" lon="-8.63349">
        <ele>90.98</ele>
        <time>2019-05-31T08:59:47Z</time>
      </trkpt>
      <trkpt lat="41.65458" lon="-8.63328">
        <ele>89.06</ele>
        <time>2019-05-31T09:00:01Z</time>
      </trkpt>
      <trkpt lat="41.65455" lon="-8.63315">
        <ele>87.62</ele>
        <time>2019-05-31T09:00:14Z</time>
      </trkpt>
      <trkpt lat="41.65452" lon="-8.63309">
        <ele>87.14</ele>
        <time>2019-05-31T09:00:18Z</time>
      </trkpt>
      <trkpt lat="41.65451" lon="-8.63303">
        <ele>87.14</ele>
        <time>2019-05-31T09:00:22Z</time>
      </trkpt>
      <trkpt lat="41.65445" lon="-8.63282">
        <ele>86.18</ele>
        <time>2019-05-31T09:00:37Z</time>
      </trkpt>
      <trkpt lat="41.65438" lon="-8.63263">
        <ele>85.21</ele>
        <time>2019-05-31T09:00:50Z</time>
      </trkpt>
      <trkpt lat="41.65431" lon="-8.63237">
        <ele>84.25</ele>
        <time>2019-05-31T09:01:06Z</time>
      </trkpt>
      <trkpt lat="41.65426" lon="-8.63212">
        <ele>82.33</ele>
        <time>2019-05-31T09:01:21Z</time>
      </trkpt>
      <trkpt lat="41.6542" lon="-8.63189">
        <ele>82.33</ele>
        <time>2019-05-31T09:01:36Z</time>
      </trkpt>
      <trkpt lat="41.65409" lon="-8.63163">
        <ele>81.37</ele>
        <time>2019-05-31T09:01:53Z</time>
      </trkpt>
      <trkpt lat="41.65398" lon="-8.63136">
        <ele>80.89</ele>
        <time>2019-05-31T09:02:10Z</time>
      </trkpt>
      <trkpt lat="41.65392" lon="-8.63116">
        <ele>79.93</ele>
        <time>2019-05-31T09:02:24Z</time>
      </trkpt>
      <trkpt lat="41.65392" lon="-8.63115">
        <ele>79.93</ele>
        <time>2019-05-31T09:02:25Z</time>
      </trkpt>
      <trkpt lat="41.65385" lon="-8.63098">
        <ele>78.97</ele>
        <time>2019-05-31T09:02:38Z</time>
      </trkpt>
      <trkpt lat="41.65382" lon="-8.63084">
        <ele>79.45</ele>
        <time>2019-05-31T09:02:52Z</time>
      </trkpt>
      <trkpt lat="41.65381" lon="-8.63065">
        <ele>78.97</ele>
        <time>2019-05-31T09:03:05Z</time>
      </trkpt>
      <trkpt lat="41.65388" lon="-8.63045">
        <ele>78.97</ele>
        <time>2019-05-31T09:03:18Z</time>
      </trkpt>
      <trkpt lat="41.65397" lon="-8.63026">
        <ele>78.48</ele>
        <time>2019-05-31T09:03:32Z</time>
      </trkpt>
      <trkpt lat="41.65406" lon="-8.63017">
        <ele>78.97</ele>
        <time>2019-05-31T09:03:44Z</time>
      </trkpt>
      <trkpt lat="41.6542" lon="-8.63003">
        <ele>78.48</ele>
        <time>2019-05-31T09:03:59Z</time>
      </trkpt>
      <trkpt lat="41.65436" lon="-8.62989">
        <ele>77.52</ele>
        <time>2019-05-31T09:04:13Z</time>
      </trkpt>
      <trkpt lat="41.6545" lon="-8.62973">
        <ele>77.52</ele>
        <time>2019-05-31T09:04:27Z</time>
      </trkpt>
      <trkpt lat="41.65453" lon="-8.62968">
        <ele>78</ele>
        <time>2019-05-31T09:04:31Z</time>
      </trkpt>
      <trkpt lat="41.65463" lon="-8.62951">
        <ele>77.04</ele>
        <time>2019-05-31T09:04:46Z</time>
      </trkpt>
      <trkpt lat="41.65464" lon="-8.6295">
        <ele>78</ele>
        <time>2019-05-31T09:04:50Z</time>
      </trkpt>
      <trkpt lat="41.65465" lon="-8.62947">
        <ele>78</ele>
        <time>2019-05-31T09:04:52Z</time>
      </trkpt>
      <trkpt lat="41.65476" lon="-8.62928">
        <ele>77.52</ele>
        <time>2019-05-31T09:05:08Z</time>
      </trkpt>
      <trkpt lat="41.65488" lon="-8.62913">
        <ele>77.52</ele>
        <time>2019-05-31T09:05:22Z</time>
      </trkpt>
      <trkpt lat="41.65498" lon="-8.62901">
        <ele>77.04</ele>
        <time>2019-05-31T09:05:37Z</time>
      </trkpt>
      <trkpt lat="41.65502" lon="-8.62896">
        <ele>77.04</ele>
        <time>2019-05-31T09:05:57Z</time>
      </trkpt>
      <trkpt lat="41.65513" lon="-8.62884">
        <ele>77.04</ele>
        <time>2019-05-31T09:06:11Z</time>
      </trkpt>
      <trkpt lat="41.65528" lon="-8.6287">
        <ele>76.56</ele>
        <time>2019-05-31T09:06:27Z</time>
      </trkpt>
      <trkpt lat="41.65544" lon="-8.62862">
        <ele>77.04</ele>
        <time>2019-05-31T09:06:41Z</time>
      </trkpt>
      <trkpt lat="41.65566" lon="-8.62855">
        <ele>77.04</ele>
        <time>2019-05-31T09:06:58Z</time>
      </trkpt>
      <trkpt lat="41.65581" lon="-8.62852">
        <ele>77.52</ele>
        <time>2019-05-31T09:07:09Z</time>
      </trkpt>
      <trkpt lat="41.65583" lon="-8.62852">
        <ele>77.52</ele>
        <time>2019-05-31T09:07:11Z</time>
      </trkpt>
      <trkpt lat="41.65591" lon="-8.62853">
        <ele>77.52</ele>
        <time>2019-05-31T09:07:18Z</time>
      </trkpt>
      <trkpt lat="41.65608" lon="-8.62854">
        <ele>78</ele>
        <time>2019-05-31T09:07:33Z</time>
      </trkpt>
      <trkpt lat="41.65623" lon="-8.6286">
        <ele>77.52</ele>
        <time>2019-05-31T09:07:48Z</time>
      </trkpt>
      <trkpt lat="41.65638" lon="-8.6287">
        <ele>78.48</ele>
        <time>2019-05-31T09:08:02Z</time>
      </trkpt>
      <trkpt lat="41.65654" lon="-8.62877">
        <ele>79.45</ele>
        <time>2019-05-31T09:08:17Z</time>
      </trkpt>
      <trkpt lat="41.65677" lon="-8.62883">
        <ele>79.93</ele>
        <time>2019-05-31T09:08:34Z</time>
      </trkpt>
      <trkpt lat="41.657" lon="-8.62877">
        <ele>80.41</ele>
        <time>2019-05-31T09:08:53Z</time>
      </trkpt>
      <trkpt lat="41.65721" lon="-8.62868">
        <ele>80.89</ele>
        <time>2019-05-31T09:09:10Z</time>
      </trkpt>
      <trkpt lat="41.65736" lon="-8.62861">
        <ele>80.89</ele>
        <time>2019-05-31T09:09:25Z</time>
      </trkpt>
      <trkpt lat="41.6575" lon="-8.6285">
        <ele>80.89</ele>
        <time>2019-05-31T09:09:40Z</time>
      </trkpt>
      <trkpt lat="41.65764" lon="-8.6283">
        <ele>80.89</ele>
        <time>2019-05-31T09:09:57Z</time>
      </trkpt>
      <trkpt lat="41.65776" lon="-8.62814">
        <ele>80.89</ele>
        <time>2019-05-31T09:10:11Z</time>
      </trkpt>
      <trkpt lat="41.65791" lon="-8.62793">
        <ele>81.37</ele>
        <time>2019-05-31T09:10:28Z</time>
      </trkpt>
      <trkpt lat="41.65806" lon="-8.62775">
        <ele>81.37</ele>
        <time>2019-05-31T09:10:44Z</time>
      </trkpt>
      <trkpt lat="41.65819" lon="-8.62756">
        <ele>81.37</ele>
        <time>2019-05-31T09:11:00Z</time>
      </trkpt>
      <trkpt lat="41.6583" lon="-8.62736">
        <ele>81.85</ele>
        <time>2019-05-31T09:11:17Z</time>
      </trkpt>
      <trkpt lat="41.65844" lon="-8.6272">
        <ele>82.81</ele>
        <time>2019-05-31T09:11:35Z</time>
      </trkpt>
      <trkpt lat="41.65852" lon="-8.62714">
        <ele>82.81</ele>
        <time>2019-05-31T09:11:47Z</time>
      </trkpt>
      <trkpt lat="41.65854" lon="-8.62712">
        <ele>83.29</ele>
        <time>2019-05-31T09:11:49Z</time>
      </trkpt>
      <trkpt lat="41.65872" lon="-8.62705">
        <ele>84.25</ele>
        <time>2019-05-31T09:12:02Z</time>
      </trkpt>
      <trkpt lat="41.65887" lon="-8.62697">
        <ele>84.25</ele>
        <time>2019-05-31T09:12:16Z</time>
      </trkpt>
      <trkpt lat="41.65905" lon="-8.6269">
        <ele>85.21</ele>
        <time>2019-05-31T09:12:32Z</time>
      </trkpt>
      <trkpt lat="41.65925" lon="-8.62683">
        <ele>85.69</ele>
        <time>2019-05-31T09:12:48Z</time>
      </trkpt>
      <trkpt lat="41.65951" lon="-8.62678">
        <ele>84.73</ele>
        <time>2019-05-31T09:13:05Z</time>
      </trkpt>
      <trkpt lat="41.65969" lon="-8.62678">
        <ele>85.21</ele>
        <time>2019-05-31T09:13:20Z</time>
      </trkpt>
      <trkpt lat="41.65986" lon="-8.62681">
        <ele>85.21</ele>
        <time>2019-05-31T09:13:35Z</time>
      </trkpt>
      <trkpt lat="41.65996" lon="-8.62686">
        <ele>85.69</ele>
        <time>2019-05-31T09:13:43Z</time>
      </trkpt>
      <trkpt lat="41.66021" lon="-8.62685">
        <ele>85.69</ele>
        <time>2019-05-31T09:14:02Z</time>
      </trkpt>
      <trkpt lat="41.66039" lon="-8.62676">
        <ele>84.73</ele>
        <time>2019-05-31T09:14:18Z</time>
      </trkpt>
      <trkpt lat="41.66058" lon="-8.62672">
        <ele>84.25</ele>
        <time>2019-05-31T09:14:34Z</time>
      </trkpt>
      <trkpt lat="41.66076" lon="-8.62676">
        <ele>84.25</ele>
        <time>2019-05-31T09:14:48Z</time>
      </trkpt>
      <trkpt lat="41.66089" lon="-8.62688">
        <ele>84.73</ele>
        <time>2019-05-31T09:15:02Z</time>
      </trkpt>
      <trkpt lat="41.66103" lon="-8.62703">
        <ele>84.73</ele>
        <time>2019-05-31T09:15:17Z</time>
      </trkpt>
      <trkpt lat="41.66108" lon="-8.62708">
        <ele>85.21</ele>
        <time>2019-05-31T09:15:31Z</time>
      </trkpt>
      <trkpt lat="41.66117" lon="-8.62718">
        <ele>85.69</ele>
        <time>2019-05-31T09:15:45Z</time>
      </trkpt>
      <trkpt lat="41.66125" lon="-8.62728">
        <ele>86.18</ele>
        <time>2019-05-31T09:15:58Z</time>
      </trkpt>
      <trkpt lat="41.66129" lon="-8.62734">
        <ele>86.18</ele>
        <time>2019-05-31T09:16:03Z</time>
      </trkpt>
      <trkpt lat="41.66139" lon="-8.62756">
        <ele>86.18</ele>
        <time>2019-05-31T09:16:20Z</time>
      </trkpt>
      <trkpt lat="41.66154" lon="-8.6277">
        <ele>86.18</ele>
        <time>2019-05-31T09:16:34Z</time>
      </trkpt>
      <trkpt lat="41.66173" lon="-8.62767">
        <ele>87.14</ele>
        <time>2019-05-31T09:16:49Z</time>
      </trkpt>
      <trkpt lat="41.66192" lon="-8.62765">
        <ele>87.14</ele>
        <time>2019-05-31T09:17:04Z</time>
      </trkpt>
      <trkpt lat="41.66199" lon="-8.62763">
        <ele>87.62</ele>
        <time>2019-05-31T09:17:10Z</time>
      </trkpt>
      <trkpt lat="41.66202" lon="-8.62754">
        <ele>87.62</ele>
        <time>2019-05-31T09:17:17Z</time>
      </trkpt>
      <trkpt lat="41.66202" lon="-8.62748">
        <ele>87.62</ele>
        <time>2019-05-31T09:17:21Z</time>
      </trkpt>
      <trkpt lat="41.66203" lon="-8.62749">
        <ele>87.62</ele>
        <time>2019-05-31T09:17:34Z</time>
      </trkpt>
      <trkpt lat="41.662" lon="-8.62742">
        <ele>87.14</ele>
        <time>2019-05-31T09:18:03Z</time>
      </trkpt>
      <trkpt lat="41.66199" lon="-8.62734">
        <ele>86.66</ele>
        <time>2019-05-31T09:18:16Z</time>
      </trkpt>
      <trkpt lat="41.66194" lon="-8.62707">
        <ele>86.18</ele>
        <time>2019-05-31T09:18:32Z</time>
      </trkpt>
      <trkpt lat="41.66197" lon="-8.62681">
        <ele>85.69</ele>
        <time>2019-05-31T09:18:47Z</time>
      </trkpt>
      <trkpt lat="41.66205" lon="-8.62657">
        <ele>84.25</ele>
        <time>2019-05-31T09:19:02Z</time>
      </trkpt>
      <trkpt lat="41.6621" lon="-8.62641">
        <ele>84.73</ele>
        <time>2019-05-31T09:19:14Z</time>
      </trkpt>
      <trkpt lat="41.66215" lon="-8.6263">
        <ele>84.25</ele>
        <time>2019-05-31T09:19:25Z</time>
      </trkpt>
      <trkpt lat="41.66216" lon="-8.62629">
        <ele>84.25</ele>
        <time>2019-05-31T09:19:26Z</time>
      </trkpt>
      <trkpt lat="41.66221" lon="-8.62621">
        <ele>84.25</ele>
        <time>2019-05-31T09:19:32Z</time>
      </trkpt>
      <trkpt lat="41.66234" lon="-8.62604">
        <ele>84.25</ele>
        <time>2019-05-31T09:19:47Z</time>
      </trkpt>
      <trkpt lat="41.66236" lon="-8.626">
        <ele>83.77</ele>
        <time>2019-05-31T09:19:50Z</time>
      </trkpt>
      <trkpt lat="41.6624" lon="-8.62574">
        <ele>84.25</ele>
        <time>2019-05-31T09:20:06Z</time>
      </trkpt>
      <trkpt lat="41.6624" lon="-8.6255">
        <ele>84.25</ele>
        <time>2019-05-31T09:20:21Z</time>
      </trkpt>
      <trkpt lat="41.66243" lon="-8.62533">
        <ele>85.21</ele>
        <time>2019-05-31T09:20:33Z</time>
      </trkpt>
      <trkpt lat="41.66244" lon="-8.6253">
        <ele>85.21</ele>
        <time>2019-05-31T09:20:35Z</time>
      </trkpt>
      <trkpt lat="41.66252" lon="-8.62522">
        <ele>85.69</ele>
        <time>2019-05-31T09:20:49Z</time>
      </trkpt>
      <trkpt lat="41.66256" lon="-8.62518">
        <ele>86.18</ele>
        <time>2019-05-31T09:20:54Z</time>
      </trkpt>
      <trkpt lat="41.66274" lon="-8.62509">
        <ele>86.66</ele>
        <time>2019-05-31T09:21:10Z</time>
      </trkpt>
      <trkpt lat="41.66287" lon="-8.62503">
        <ele>87.14</ele>
        <time>2019-05-31T09:21:23Z</time>
      </trkpt>
      <trkpt lat="41.66307" lon="-8.625">
        <ele>87.62</ele>
        <time>2019-05-31T09:21:39Z</time>
      </trkpt>
      <trkpt lat="41.66327" lon="-8.625">
        <ele>87.62</ele>
        <time>2019-05-31T09:21:55Z</time>
      </trkpt>
      <trkpt lat="41.66345" lon="-8.62494">
        <ele>88.58</ele>
        <time>2019-05-31T09:22:11Z</time>
      </trkpt>
      <trkpt lat="41.66364" lon="-8.62487">
        <ele>89.54</ele>
        <time>2019-05-31T09:22:28Z</time>
      </trkpt>
      <trkpt lat="41.66382" lon="-8.62481">
        <ele>90.02</ele>
        <time>2019-05-31T09:22:44Z</time>
      </trkpt>
      <trkpt lat="41.664" lon="-8.62471">
        <ele>90.98</ele>
        <time>2019-05-31T09:23:01Z</time>
      </trkpt>
      <trkpt lat="41.66419" lon="-8.62465">
        <ele>91.46</ele>
        <time>2019-05-31T09:23:17Z</time>
      </trkpt>
      <trkpt lat="41.66438" lon="-8.62458">
        <ele>91.94</ele>
        <time>2019-05-31T09:23:35Z</time>
      </trkpt>
      <trkpt lat="41.66453" lon="-8.6244">
        <ele>92.42</ele>
        <time>2019-05-31T09:23:52Z</time>
      </trkpt>
      <trkpt lat="41.66459" lon="-8.6243">
        <ele>92.9</ele>
        <time>2019-05-31T09:24:08Z</time>
      </trkpt>
      <trkpt lat="41.6646" lon="-8.62428">
        <ele>92.9</ele>
        <time>2019-05-31T09:24:28Z</time>
      </trkpt>
      <trkpt lat="41.66467" lon="-8.62419">
        <ele>93.39</ele>
        <time>2019-05-31T09:24:41Z</time>
      </trkpt>
      <trkpt lat="41.66469" lon="-8.62418">
        <ele>93.39</ele>
        <time>2019-05-31T09:24:44Z</time>
      </trkpt>
      <trkpt lat="41.66493" lon="-8.62409">
        <ele>94.35</ele>
        <time>2019-05-31T09:25:03Z</time>
      </trkpt>
      <trkpt lat="41.66498" lon="-8.62408">
        <ele>94.83</ele>
        <time>2019-05-31T09:25:08Z</time>
      </trkpt>
      <trkpt lat="41.66521" lon="-8.62408">
        <ele>95.31</ele>
        <time>2019-05-31T09:25:26Z</time>
      </trkpt>
      <trkpt lat="41.66539" lon="-8.62411">
        <ele>95.31</ele>
        <time>2019-05-31T09:25:42Z</time>
      </trkpt>
      <trkpt lat="41.66556" lon="-8.62414">
        <ele>96.27</ele>
        <time>2019-05-31T09:25:56Z</time>
      </trkpt>
      <trkpt lat="41.66575" lon="-8.62424">
        <ele>96.27</ele>
        <time>2019-05-31T09:26:12Z</time>
      </trkpt>
      <trkpt lat="41.66576" lon="-8.62425">
        <ele>96.27</ele>
        <time>2019-05-31T09:26:14Z</time>
      </trkpt>
      <trkpt lat="41.66598" lon="-8.62434">
        <ele>96.75</ele>
        <time>2019-05-31T09:26:32Z</time>
      </trkpt>
      <trkpt lat="41.66615" lon="-8.62441">
        <ele>97.71</ele>
        <time>2019-05-31T09:26:48Z</time>
      </trkpt>
      <trkpt lat="41.66631" lon="-8.62448">
        <ele>98.19</ele>
        <time>2019-05-31T09:27:04Z</time>
      </trkpt>
      <trkpt lat="41.66651" lon="-8.6246">
        <ele>98.19</ele>
        <time>2019-05-31T09:27:20Z</time>
      </trkpt>
      <trkpt lat="41.66667" lon="-8.62468">
        <ele>99.63</ele>
        <time>2019-05-31T09:27:35Z</time>
      </trkpt>
      <trkpt lat="41.66678" lon="-8.62474">
        <ele>100.11</ele>
        <time>2019-05-31T09:27:45Z</time>
      </trkpt>
      <trkpt lat="41.6669" lon="-8.62476">
        <ele>100.6</ele>
        <time>2019-05-31T09:27:56Z</time>
      </trkpt>
      <trkpt lat="41.66711" lon="-8.62481">
        <ele>102.04</ele>
        <time>2019-05-31T09:28:15Z</time>
      </trkpt>
      <trkpt lat="41.66725" lon="-8.62482">
        <ele>103.48</ele>
        <time>2019-05-31T09:28:29Z</time>
      </trkpt>
      <trkpt lat="41.66742" lon="-8.62476">
        <ele>103.48</ele>
        <time>2019-05-31T09:28:44Z</time>
      </trkpt>
      <trkpt lat="41.6676" lon="-8.62467">
        <ele>104.44</ele>
        <time>2019-05-31T09:29:01Z</time>
      </trkpt>
      <trkpt lat="41.66774" lon="-8.62462">
        <ele>106.36</ele>
        <time>2019-05-31T09:29:16Z</time>
      </trkpt>
      <trkpt lat="41.66791" lon="-8.62459">
        <ele>106.84</ele>
        <time>2019-05-31T09:29:30Z</time>
      </trkpt>
      <trkpt lat="41.66808" lon="-8.6245">
        <ele>107.32</ele>
        <time>2019-05-31T09:29:46Z</time>
      </trkpt>
      <trkpt lat="41.6681" lon="-8.6245">
        <ele>107.81</ele>
        <time>2019-05-31T09:29:48Z</time>
      </trkpt>
      <trkpt lat="41.66814" lon="-8.62449">
        <ele>106.84</ele>
        <time>2019-05-31T09:29:51Z</time>
      </trkpt>
      <trkpt lat="41.66826" lon="-8.62442">
        <ele>106.84</ele>
        <time>2019-05-31T09:30:06Z</time>
      </trkpt>
      <trkpt lat="41.66843" lon="-8.62433">
        <ele>105.88</ele>
        <time>2019-05-31T09:30:21Z</time>
      </trkpt>
      <trkpt lat="41.6685" lon="-8.62432">
        <ele>106.36</ele>
        <time>2019-05-31T09:30:26Z</time>
      </trkpt>
      <trkpt lat="41.66859" lon="-8.62431">
        <ele>105.88</ele>
        <time>2019-05-31T09:30:34Z</time>
      </trkpt>
      <trkpt lat="41.66879" lon="-8.62428">
        <ele>103.96</ele>
        <time>2019-05-31T09:30:49Z</time>
      </trkpt>
      <trkpt lat="41.66895" lon="-8.62415">
        <ele>103.96</ele>
        <time>2019-05-31T09:31:04Z</time>
      </trkpt>
      <trkpt lat="41.669" lon="-8.6241">
        <ele>103.48</ele>
        <time>2019-05-31T09:31:09Z</time>
      </trkpt>
      <trkpt lat="41.66901" lon="-8.62407">
        <ele>103</ele>
        <time>2019-05-31T09:31:11Z</time>
      </trkpt>
      <trkpt lat="41.66913" lon="-8.62386">
        <ele>101.56</ele>
        <time>2019-05-31T09:31:26Z</time>
      </trkpt>
      <trkpt lat="41.66915" lon="-8.6238">
        <ele>101.08</ele>
        <time>2019-05-31T09:31:30Z</time>
      </trkpt>
      <trkpt lat="41.66926" lon="-8.62376">
        <ele>100.6</ele>
        <time>2019-05-31T09:31:40Z</time>
      </trkpt>
      <trkpt lat="41.66939" lon="-8.62386">
        <ele>99.63</ele>
        <time>2019-05-31T09:31:54Z</time>
      </trkpt>
      <trkpt lat="41.6694" lon="-8.62386">
        <ele>100.11</ele>
        <time>2019-05-31T09:31:58Z</time>
      </trkpt>
      <trkpt lat="41.66941" lon="-8.62388">
        <ele>100.11</ele>
        <time>2019-05-31T09:32:00Z</time>
      </trkpt>
      <trkpt lat="41.66949" lon="-8.62398">
        <ele>99.63</ele>
        <time>2019-05-31T09:32:09Z</time>
      </trkpt>
      <trkpt lat="41.66971" lon="-8.62397">
        <ele>100.11</ele>
        <time>2019-05-31T09:32:26Z</time>
      </trkpt>
      <trkpt lat="41.66988" lon="-8.62392">
        <ele>99.15</ele>
        <time>2019-05-31T09:32:40Z</time>
      </trkpt>
      <trkpt lat="41.67007" lon="-8.62383">
        <ele>100.11</ele>
        <time>2019-05-31T09:32:57Z</time>
      </trkpt>
      <trkpt lat="41.67012" lon="-8.62381">
        <ele>100.6</ele>
        <time>2019-05-31T09:33:01Z</time>
      </trkpt>
      <trkpt lat="41.67025" lon="-8.6237">
        <ele>100.6</ele>
        <time>2019-05-31T09:33:17Z</time>
      </trkpt>
      <trkpt lat="41.67028" lon="-8.62365">
        <ele>100.11</ele>
        <time>2019-05-31T09:33:22Z</time>
      </trkpt>
      <trkpt lat="41.6703" lon="-8.6236">
        <ele>100.11</ele>
        <time>2019-05-31T09:33:25Z</time>
      </trkpt>
      <trkpt lat="41.67043" lon="-8.6234">
        <ele>98.19</ele>
        <time>2019-05-31T09:33:41Z</time>
      </trkpt>
      <trkpt lat="41.67061" lon="-8.62329">
        <ele>97.71</ele>
        <time>2019-05-31T09:33:56Z</time>
      </trkpt>
      <trkpt lat="41.67072" lon="-8.62309">
        <ele>97.23</ele>
        <time>2019-05-31T09:34:12Z</time>
      </trkpt>
      <trkpt lat="41.67072" lon="-8.62308">
        <ele>97.71</ele>
        <time>2019-05-31T09:34:13Z</time>
      </trkpt>
      <trkpt lat="41.67071" lon="-8.62283">
        <ele>96.75</ele>
        <time>2019-05-31T09:34:28Z</time>
      </trkpt>
      <trkpt lat="41.67069" lon="-8.62267">
        <ele>97.23</ele>
        <time>2019-05-31T09:34:38Z</time>
      </trkpt>
      <trkpt lat="41.6707" lon="-8.62257">
        <ele>97.23</ele>
        <time>2019-05-31T09:34:45Z</time>
      </trkpt>
      <trkpt lat="41.67069" lon="-8.62247">
        <ele>98.19</ele>
        <time>2019-05-31T09:34:51Z</time>
      </trkpt>
      <trkpt lat="41.67079" lon="-8.62225">
        <ele>99.15</ele>
        <time>2019-05-31T09:35:07Z</time>
      </trkpt>
      <trkpt lat="41.67083" lon="-8.62219">
        <ele>99.15</ele>
        <time>2019-05-31T09:35:12Z</time>
      </trkpt>
      <trkpt lat="41.67087" lon="-8.62212">
        <ele>100.11</ele>
        <time>2019-05-31T09:35:18Z</time>
      </trkpt>
      <trkpt lat="41.671" lon="-8.62193">
        <ele>100.11</ele>
        <time>2019-05-31T09:35:34Z</time>
      </trkpt>
      <trkpt lat="41.67106" lon="-8.62185">
        <ele>101.56</ele>
        <time>2019-05-31T09:35:48Z</time>
      </trkpt>
      <trkpt lat="41.67113" lon="-8.6217">
        <ele>101.56</ele>
        <time>2019-05-31T09:36:03Z</time>
      </trkpt>
      <trkpt lat="41.67121" lon="-8.62156">
        <ele>102.52</ele>
        <time>2019-05-31T09:36:16Z</time>
      </trkpt>
      <trkpt lat="41.67134" lon="-8.62145">
        <ele>103.96</ele>
        <time>2019-05-31T09:36:30Z</time>
      </trkpt>
      <trkpt lat="41.67146" lon="-8.62141">
        <ele>105.4</ele>
        <time>2019-05-31T09:36:42Z</time>
      </trkpt>
      <trkpt lat="41.67161" lon="-8.62145">
        <ele>107.32</ele>
        <time>2019-05-31T09:36:58Z</time>
      </trkpt>
      <trkpt lat="41.67167" lon="-8.62146">
        <ele>107.81</ele>
        <time>2019-05-31T09:37:05Z</time>
      </trkpt>
      <trkpt lat="41.67181" lon="-8.62146">
        <ele>109.25</ele>
        <time>2019-05-31T09:37:21Z</time>
      </trkpt>
      <trkpt lat="41.67193" lon="-8.62148">
        <ele>110.69</ele>
        <time>2019-05-31T09:37:35Z</time>
      </trkpt>
      <trkpt lat="41.6721" lon="-8.62146">
        <ele>111.65</ele>
        <time>2019-05-31T09:37:51Z</time>
      </trkpt>
      <trkpt lat="41.67225" lon="-8.62148">
        <ele>112.61</ele>
        <time>2019-05-31T09:38:07Z</time>
      </trkpt>
      <trkpt lat="41.6724" lon="-8.62154">
        <ele>113.57</ele>
        <time>2019-05-31T09:38:23Z</time>
      </trkpt>
      <trkpt lat="41.67255" lon="-8.62149">
        <ele>115.98</ele>
        <time>2019-05-31T09:38:40Z</time>
      </trkpt>
      <trkpt lat="41.67262" lon="-8.62148">
        <ele>116.94</ele>
        <time>2019-05-31T09:38:47Z</time>
      </trkpt>
      <trkpt lat="41.67266" lon="-8.62146">
        <ele>118.38</ele>
        <time>2019-05-31T09:38:52Z</time>
      </trkpt>
      <trkpt lat="41.67277" lon="-8.62148">
        <ele>119.34</ele>
        <time>2019-05-31T09:39:04Z</time>
      </trkpt>
      <trkpt lat="41.67296" lon="-8.62148">
        <ele>121.26</ele>
        <time>2019-05-31T09:39:23Z</time>
      </trkpt>
      <trkpt lat="41.67309" lon="-8.62146">
        <ele>123.19</ele>
        <time>2019-05-31T09:39:38Z</time>
      </trkpt>
      <trkpt lat="41.67314" lon="-8.62144">
        <ele>122.22</ele>
        <time>2019-05-31T09:39:54Z</time>
      </trkpt>
      <trkpt lat="41.67315" lon="-8.62146">
        <ele>122.71</ele>
        <time>2019-05-31T09:40:07Z</time>
      </trkpt>
      <trkpt lat="41.67313" lon="-8.62143">
        <ele>122.71</ele>
        <time>2019-05-31T09:40:22Z</time>
      </trkpt>
      <trkpt lat="41.67314" lon="-8.62143">
        <ele>122.71</ele>
        <time>2019-05-31T09:40:42Z</time>
      </trkpt>
      <trkpt lat="41.67318" lon="-8.62146">
        <ele>122.71</ele>
        <time>2019-05-31T09:40:52Z</time>
      </trkpt>
      <trkpt lat="41.67321" lon="-8.6214">
        <ele>122.22</ele>
        <time>2019-05-31T09:41:00Z</time>
      </trkpt>
      <trkpt lat="41.67323" lon="-8.62137">
        <ele>122.22</ele>
        <time>2019-05-31T09:41:11Z</time>
      </trkpt>
      <trkpt lat="41.67322" lon="-8.62138">
        <ele>122.22</ele>
        <time>2019-05-31T09:41:35Z</time>
      </trkpt>
      <trkpt lat="41.67319" lon="-8.6214">
        <ele>122.22</ele>
        <time>2019-05-31T09:41:46Z</time>
      </trkpt>
      <trkpt lat="41.67318" lon="-8.62136">
        <ele>122.22</ele>
        <time>2019-05-31T09:42:02Z</time>
      </trkpt>
      <trkpt lat="41.67317" lon="-8.62136">
        <ele>122.22</ele>
        <time>2019-05-31T09:42:03Z</time>
      </trkpt>
      <trkpt lat="41.67314" lon="-8.62135">
        <ele>122.71</ele>
        <time>2019-05-31T09:42:16Z</time>
      </trkpt>
      <trkpt lat="41.6732" lon="-8.62114">
        <ele>121.74</ele>
        <time>2019-05-31T09:42:31Z</time>
      </trkpt>
      <trkpt lat="41.67328" lon="-8.62093">
        <ele>120.3</ele>
        <time>2019-05-31T09:42:45Z</time>
      </trkpt>
      <trkpt lat="41.67335" lon="-8.6207">
        <ele>118.86</ele>
        <time>2019-05-31T09:43:00Z</time>
      </trkpt>
      <trkpt lat="41.67338" lon="-8.62063">
        <ele>118.38</ele>
        <time>2019-05-31T09:43:04Z</time>
      </trkpt>
      <trkpt lat="41.6734" lon="-8.62056">
        <ele>118.38</ele>
        <time>2019-05-31T09:43:08Z</time>
      </trkpt>
      <trkpt lat="41.67349" lon="-8.62034">
        <ele>118.38</ele>
        <time>2019-05-31T09:43:23Z</time>
      </trkpt>
      <trkpt lat="41.67354" lon="-8.62022">
        <ele>117.42</ele>
        <time>2019-05-31T09:43:38Z</time>
      </trkpt>
      <trkpt lat="41.67365" lon="-8.62002">
        <ele>116.46</ele>
        <time>2019-05-31T09:43:53Z</time>
      </trkpt>
      <trkpt lat="41.67375" lon="-8.61976">
        <ele>115.5</ele>
        <time>2019-05-31T09:44:08Z</time>
      </trkpt>
      <trkpt lat="41.67385" lon="-8.61959">
        <ele>115.01</ele>
        <time>2019-05-31T09:44:22Z</time>
      </trkpt>
      <trkpt lat="41.67402" lon="-8.6194">
        <ele>114.05</ele>
        <time>2019-05-31T09:44:41Z</time>
      </trkpt>
      <trkpt lat="41.6742" lon="-8.61927">
        <ele>112.61</ele>
        <time>2019-05-31T09:44:57Z</time>
      </trkpt>
      <trkpt lat="41.67435" lon="-8.61912">
        <ele>111.65</ele>
        <time>2019-05-31T09:45:12Z</time>
      </trkpt>
      <trkpt lat="41.67453" lon="-8.61897">
        <ele>110.21</ele>
        <time>2019-05-31T09:45:28Z</time>
      </trkpt>
      <trkpt lat="41.67456" lon="-8.61893">
        <ele>110.21</ele>
        <time>2019-05-31T09:45:38Z</time>
      </trkpt>
      <trkpt lat="41.67473" lon="-8.6188">
        <ele>108.77</ele>
        <time>2019-05-31T09:45:54Z</time>
      </trkpt>
      <trkpt lat="41.67485" lon="-8.6187">
        <ele>108.29</ele>
        <time>2019-05-31T09:46:05Z</time>
      </trkpt>
      <trkpt lat="41.67494" lon="-8.61836">
        <ele>107.81</ele>
        <time>2019-05-31T09:46:23Z</time>
      </trkpt>
      <trkpt lat="41.67496" lon="-8.61822">
        <ele>106.84</ele>
        <time>2019-05-31T09:46:31Z</time>
      </trkpt>
      <trkpt lat="41.67487" lon="-8.61804">
        <ele>106.36</ele>
        <time>2019-05-31T09:46:46Z</time>
      </trkpt>
      <trkpt lat="41.6748" lon="-8.61786">
        <ele>104.92</ele>
        <time>2019-05-31T09:47:00Z</time>
      </trkpt>
      <trkpt lat="41.67479" lon="-8.61774">
        <ele>105.4</ele>
        <time>2019-05-31T09:47:13Z</time>
      </trkpt>
      <trkpt lat="41.67485" lon="-8.61762">
        <ele>106.36</ele>
        <time>2019-05-31T09:47:25Z</time>
      </trkpt>
      <trkpt lat="41.67488" lon="-8.61757">
        <ele>106.84</ele>
        <time>2019-05-31T09:47:30Z</time>
      </trkpt>
      <trkpt lat="41.67502" lon="-8.61748">
        <ele>107.32</ele>
        <time>2019-05-31T09:47:43Z</time>
      </trkpt>
      <trkpt lat="41.67515" lon="-8.61739">
        <ele>107.81</ele>
        <time>2019-05-31T09:47:56Z</time>
      </trkpt>
      <trkpt lat="41.67529" lon="-8.61731">
        <ele>109.25</ele>
        <time>2019-05-31T09:48:10Z</time>
      </trkpt>
      <trkpt lat="41.6755" lon="-8.61735">
        <ele>110.69</ele>
        <time>2019-05-31T09:48:25Z</time>
      </trkpt>
      <trkpt lat="41.67552" lon="-8.61734">
        <ele>110.69</ele>
        <time>2019-05-31T09:48:27Z</time>
      </trkpt>
      <trkpt lat="41.67574" lon="-8.61734">
        <ele>112.13</ele>
        <time>2019-05-31T09:48:45Z</time>
      </trkpt>
      <trkpt lat="41.67592" lon="-8.61738">
        <ele>112.61</ele>
        <time>2019-05-31T09:48:59Z</time>
      </trkpt>
      <trkpt lat="41.6761" lon="-8.61752">
        <ele>113.09</ele>
        <time>2019-05-31T09:49:16Z</time>
      </trkpt>
      <trkpt lat="41.67621" lon="-8.61763">
        <ele>114.05</ele>
        <time>2019-05-31T09:49:31Z</time>
      </trkpt>
      <trkpt lat="41.67636" lon="-8.61773">
        <ele>115.5</ele>
        <time>2019-05-31T09:49:45Z</time>
      </trkpt>
      <trkpt lat="41.6765" lon="-8.6178">
        <ele>115.01</ele>
        <time>2019-05-31T09:49:57Z</time>
      </trkpt>
      <trkpt lat="41.67662" lon="-8.61786">
        <ele>114.53</ele>
        <time>2019-05-31T09:50:11Z</time>
      </trkpt>
      <trkpt lat="41.67672" lon="-8.61792">
        <ele>114.05</ele>
        <time>2019-05-31T09:50:21Z</time>
      </trkpt>
      <trkpt lat="41.67683" lon="-8.61803">
        <ele>114.05</ele>
        <time>2019-05-31T09:50:32Z</time>
      </trkpt>
      <trkpt lat="41.67691" lon="-8.6182">
        <ele>114.53</ele>
        <time>2019-05-31T09:50:44Z</time>
      </trkpt>
      <trkpt lat="41.67695" lon="-8.61833">
        <ele>114.53</ele>
        <time>2019-05-31T09:50:52Z</time>
      </trkpt>
      <trkpt lat="41.67697" lon="-8.61841">
        <ele>114.53</ele>
        <time>2019-05-31T09:50:57Z</time>
      </trkpt>
      <trkpt lat="41.67701" lon="-8.61851">
        <ele>115.5</ele>
        <time>2019-05-31T09:51:05Z</time>
      </trkpt>
      <trkpt lat="41.67707" lon="-8.61867">
        <ele>116.46</ele>
        <time>2019-05-31T09:51:16Z</time>
      </trkpt>
      <trkpt lat="41.67715" lon="-8.61884">
        <ele>115.98</ele>
        <time>2019-05-31T09:51:30Z</time>
      </trkpt>
      <trkpt lat="41.67727" lon="-8.61902">
        <ele>116.46</ele>
        <time>2019-05-31T09:51:44Z</time>
      </trkpt>
      <trkpt lat="41.67736" lon="-8.61923">
        <ele>115.98</ele>
        <time>2019-05-31T09:51:59Z</time>
      </trkpt>
      <trkpt lat="41.67738" lon="-8.61931">
        <ele>115.5</ele>
        <time>2019-05-31T09:52:05Z</time>
      </trkpt>
      <trkpt lat="41.67744" lon="-8.61931">
        <ele>115.01</ele>
        <time>2019-05-31T09:52:12Z</time>
      </trkpt>
      <trkpt lat="41.67744" lon="-8.61916">
        <ele>113.57</ele>
        <time>2019-05-31T09:52:24Z</time>
      </trkpt>
      <trkpt lat="41.67746" lon="-8.61909">
        <ele>112.61</ele>
        <time>2019-05-31T09:52:30Z</time>
      </trkpt>
      <trkpt lat="41.67759" lon="-8.61895">
        <ele>110.69</ele>
        <time>2019-05-31T09:52:44Z</time>
      </trkpt>
      <trkpt lat="41.67768" lon="-8.61887">
        <ele>110.69</ele>
        <time>2019-05-31T09:52:57Z</time>
      </trkpt>
      <trkpt lat="41.67774" lon="-8.61883">
        <ele>110.21</ele>
        <time>2019-05-31T09:53:02Z</time>
      </trkpt>
      <trkpt lat="41.6779" lon="-8.6188">
        <ele>111.17</ele>
        <time>2019-05-31T09:53:16Z</time>
      </trkpt>
      <trkpt lat="41.67804" lon="-8.61892">
        <ele>111.65</ele>
        <time>2019-05-31T09:53:28Z</time>
      </trkpt>
      <trkpt lat="41.67809" lon="-8.61897">
        <ele>112.13</ele>
        <time>2019-05-31T09:53:33Z</time>
      </trkpt>
      <trkpt lat="41.67823" lon="-8.61916">
        <ele>113.57</ele>
        <time>2019-05-31T09:53:49Z</time>
      </trkpt>
      <trkpt lat="41.67829" lon="-8.61922">
        <ele>113.57</ele>
        <time>2019-05-31T09:54:02Z</time>
      </trkpt>
      <trkpt lat="41.67831" lon="-8.61924">
        <ele>113.57</ele>
        <time>2019-05-31T09:54:19Z</time>
      </trkpt>
      <trkpt lat="41.67841" lon="-8.61935">
        <ele>114.53</ele>
        <time>2019-05-31T09:54:33Z</time>
      </trkpt>
      <trkpt lat="41.67853" lon="-8.61941">
        <ele>115.5</ele>
        <time>2019-05-31T09:54:46Z</time>
      </trkpt>
      <trkpt lat="41.67871" lon="-8.61948">
        <ele>115.98</ele>
        <time>2019-05-31T09:55:02Z</time>
      </trkpt>
      <trkpt lat="41.67888" lon="-8.61954">
        <ele>116.94</ele>
        <time>2019-05-31T09:55:17Z</time>
      </trkpt>
      <trkpt lat="41.67902" lon="-8.6196">
        <ele>117.42</ele>
        <time>2019-05-31T09:55:30Z</time>
      </trkpt>
      <trkpt lat="41.67923" lon="-8.61964">
        <ele>119.34</ele>
        <time>2019-05-31T09:55:48Z</time>
      </trkpt>
      <trkpt lat="41.67944" lon="-8.61966">
        <ele>120.3</ele>
        <time>2019-05-31T09:56:07Z</time>
      </trkpt>
      <trkpt lat="41.67959" lon="-8.61967">
        <ele>121.74</ele>
        <time>2019-05-31T09:56:22Z</time>
      </trkpt>
      <trkpt lat="41.67971" lon="-8.61968">
        <ele>122.22</ele>
        <time>2019-05-31T09:56:34Z</time>
      </trkpt>
      <trkpt lat="41.67988" lon="-8.61968">
        <ele>122.71</ele>
        <time>2019-05-31T09:56:47Z</time>
      </trkpt>
      <trkpt lat="41.68007" lon="-8.61972">
        <ele>122.71</ele>
        <time>2019-05-31T09:57:03Z</time>
      </trkpt>
      <trkpt lat="41.68022" lon="-8.61981">
        <ele>122.22</ele>
        <time>2019-05-31T09:57:16Z</time>
      </trkpt>
      <trkpt lat="41.6803" lon="-8.61987">
        <ele>123.19</ele>
        <time>2019-05-31T09:57:28Z</time>
      </trkpt>
      <trkpt lat="41.68027" lon="-8.61984">
        <ele>122.71</ele>
        <time>2019-05-31T09:57:42Z</time>
      </trkpt>
      <trkpt lat="41.68028" lon="-8.61986">
        <ele>122.71</ele>
        <time>2019-05-31T09:58:14Z</time>
      </trkpt>
      <trkpt lat="41.68042" lon="-8.62">
        <ele>123.67</ele>
        <time>2019-05-31T09:58:29Z</time>
      </trkpt>
      <trkpt lat="41.68057" lon="-8.62008">
        <ele>123.19</ele>
        <time>2019-05-31T09:58:43Z</time>
      </trkpt>
      <trkpt lat="41.68071" lon="-8.62009">
        <ele>123.67</ele>
        <time>2019-05-31T09:58:55Z</time>
      </trkpt>
      <trkpt lat="41.68088" lon="-8.62005">
        <ele>123.19</ele>
        <time>2019-05-31T09:59:09Z</time>
      </trkpt>
      <trkpt lat="41.68099" lon="-8.62">
        <ele>123.19</ele>
        <time>2019-05-31T09:59:19Z</time>
      </trkpt>
      <trkpt lat="41.68116" lon="-8.61988">
        <ele>124.15</ele>
        <time>2019-05-31T09:59:34Z</time>
      </trkpt>
      <trkpt lat="41.68128" lon="-8.61969">
        <ele>123.19</ele>
        <time>2019-05-31T09:59:49Z</time>
      </trkpt>
      <trkpt lat="41.68139" lon="-8.61943">
        <ele>122.22</ele>
        <time>2019-05-31T10:00:06Z</time>
      </trkpt>
      <trkpt lat="41.68146" lon="-8.61923">
        <ele>121.26</ele>
        <time>2019-05-31T10:00:19Z</time>
      </trkpt>
      <trkpt lat="41.68152" lon="-8.6191">
        <ele>121.74</ele>
        <time>2019-05-31T10:00:32Z</time>
      </trkpt>
      <trkpt lat="41.68169" lon="-8.61896">
        <ele>123.19</ele>
        <time>2019-05-31T10:00:48Z</time>
      </trkpt>
      <trkpt lat="41.68182" lon="-8.61896">
        <ele>125.11</ele>
        <time>2019-05-31T10:01:01Z</time>
      </trkpt>
      <trkpt lat="41.68196" lon="-8.61904">
        <ele>127.03</ele>
        <time>2019-05-31T10:01:18Z</time>
      </trkpt>
      <trkpt lat="41.68207" lon="-8.6191">
        <ele>128.47</ele>
        <time>2019-05-31T10:01:32Z</time>
      </trkpt>
      <trkpt lat="41.68211" lon="-8.61908">
        <ele>128.95</ele>
        <time>2019-05-31T10:01:37Z</time>
      </trkpt>
      <trkpt lat="41.68217" lon="-8.619">
        <ele>129.43</ele>
        <time>2019-05-31T10:01:49Z</time>
      </trkpt>
      <trkpt lat="41.68219" lon="-8.61894">
        <ele>128.95</ele>
        <time>2019-05-31T10:01:53Z</time>
      </trkpt>
      <trkpt lat="41.6822" lon="-8.61879">
        <ele>128.95</ele>
        <time>2019-05-31T10:02:02Z</time>
      </trkpt>
      <trkpt lat="41.6822" lon="-8.61876">
        <ele>128.95</ele>
        <time>2019-05-31T10:02:04Z</time>
      </trkpt>
      <trkpt lat="41.68223" lon="-8.61862">
        <ele>129.43</ele>
        <time>2019-05-31T10:02:16Z</time>
      </trkpt>
      <trkpt lat="41.68225" lon="-8.61846">
        <ele>128.95</ele>
        <time>2019-05-31T10:02:26Z</time>
      </trkpt>
      <trkpt lat="41.68231" lon="-8.61825">
        <ele>129.43</ele>
        <time>2019-05-31T10:02:41Z</time>
      </trkpt>
      <trkpt lat="41.68238" lon="-8.61805">
        <ele>129.43</ele>
        <time>2019-05-31T10:02:55Z</time>
      </trkpt>
      <trkpt lat="41.68242" lon="-8.61792">
        <ele>129.43</ele>
        <time>2019-05-31T10:03:08Z</time>
      </trkpt>
      <trkpt lat="41.68248" lon="-8.61779">
        <ele>130.4</ele>
        <time>2019-05-31T10:03:21Z</time>
      </trkpt>
      <trkpt lat="41.68253" lon="-8.61778">
        <ele>130.88</ele>
        <time>2019-05-31T10:03:33Z</time>
      </trkpt>
      <trkpt lat="41.68252" lon="-8.61769">
        <ele>130.4</ele>
        <time>2019-05-31T10:03:53Z</time>
      </trkpt>
      <trkpt lat="41.68252" lon="-8.61761">
        <ele>130.88</ele>
        <time>2019-05-31T10:04:07Z</time>
      </trkpt>
      <trkpt lat="41.68254" lon="-8.61758">
        <ele>130.88</ele>
        <time>2019-05-31T10:04:29Z</time>
      </trkpt>
      <trkpt lat="41.68259" lon="-8.61756">
        <ele>131.84</ele>
        <time>2019-05-31T10:04:46Z</time>
      </trkpt>
      <trkpt lat="41.68259" lon="-8.61752">
        <ele>131.84</ele>
        <time>2019-05-31T10:05:02Z</time>
      </trkpt>
      <trkpt lat="41.68259" lon="-8.61753">
        <ele>131.36</ele>
        <time>2019-05-31T10:05:26Z</time>
      </trkpt>
      <trkpt lat="41.68259" lon="-8.61753">
        <ele>131.36</ele>
        <time>2019-05-31T10:05:45Z</time>
      </trkpt>
      <trkpt lat="41.68258" lon="-8.61755">
        <ele>131.84</ele>
        <time>2019-05-31T10:06:06Z</time>
      </trkpt>
      <trkpt lat="41.6826" lon="-8.61752">
        <ele>131.84</ele>
        <time>2019-05-31T10:06:18Z</time>
      </trkpt>
      <trkpt lat="41.68261" lon="-8.61751">
        <ele>131.84</ele>
        <time>2019-05-31T10:06:47Z</time>
      </trkpt>
      <trkpt lat="41.68261" lon="-8.61753">
        <ele>131.36</ele>
        <time>2019-05-31T10:07:13Z</time>
      </trkpt>
      <trkpt lat="41.68266" lon="-8.61756">
        <ele>132.32</ele>
        <time>2019-05-31T10:07:37Z</time>
      </trkpt>
      <trkpt lat="41.68278" lon="-8.61758">
        <ele>133.76</ele>
        <time>2019-05-31T10:07:52Z</time>
      </trkpt>
      <trkpt lat="41.6829" lon="-8.61762">
        <ele>134.24</ele>
        <time>2019-05-31T10:08:06Z</time>
      </trkpt>
      <trkpt lat="41.68299" lon="-8.61767">
        <ele>134.72</ele>
        <time>2019-05-31T10:08:15Z</time>
      </trkpt>
      <trkpt lat="41.68314" lon="-8.61772">
        <ele>135.2</ele>
        <time>2019-05-31T10:08:29Z</time>
      </trkpt>
      <trkpt lat="41.68321" lon="-8.61772">
        <ele>135.68</ele>
        <time>2019-05-31T10:08:39Z</time>
      </trkpt>
      <trkpt lat="41.68329" lon="-8.61772">
        <ele>135.68</ele>
        <time>2019-05-31T10:08:47Z</time>
      </trkpt>
      <trkpt lat="41.68346" lon="-8.61772">
        <ele>135.68</ele>
        <time>2019-05-31T10:09:01Z</time>
      </trkpt>
      <trkpt lat="41.6836" lon="-8.6178">
        <ele>136.16</ele>
        <time>2019-05-31T10:09:15Z</time>
      </trkpt>
      <trkpt lat="41.68367" lon="-8.61784">
        <ele>137.13</ele>
        <time>2019-05-31T10:09:22Z</time>
      </trkpt>
      <trkpt lat="41.68383" lon="-8.61791">
        <ele>138.09</ele>
        <time>2019-05-31T10:09:38Z</time>
      </trkpt>
      <trkpt lat="41.6839" lon="-8.61795">
        <ele>138.09</ele>
        <time>2019-05-31T10:09:49Z</time>
      </trkpt>
      <trkpt lat="41.68399" lon="-8.618">
        <ele>139.05</ele>
        <time>2019-05-31T10:09:59Z</time>
      </trkpt>
      <trkpt lat="41.68414" lon="-8.61811">
        <ele>141.45</ele>
        <time>2019-05-31T10:10:14Z</time>
      </trkpt>
      <trkpt lat="41.68423" lon="-8.61819">
        <ele>142.41</ele>
        <time>2019-05-31T10:10:27Z</time>
      </trkpt>
      <trkpt lat="41.68425" lon="-8.61821">
        <ele>142.89</ele>
        <time>2019-05-31T10:10:30Z</time>
      </trkpt>
      <trkpt lat="41.68431" lon="-8.61827">
        <ele>143.85</ele>
        <time>2019-05-31T10:10:38Z</time>
      </trkpt>
      <trkpt lat="41.68442" lon="-8.6184">
        <ele>145.3</ele>
        <time>2019-05-31T10:10:54Z</time>
      </trkpt>
      <trkpt lat="41.68453" lon="-8.61853">
        <ele>147.7</ele>
        <time>2019-05-31T10:11:10Z</time>
      </trkpt>
      <trkpt lat="41.68466" lon="-8.61869">
        <ele>149.14</ele>
        <time>2019-05-31T10:11:29Z</time>
      </trkpt>
      <trkpt lat="41.68478" lon="-8.61882">
        <ele>151.06</ele>
        <time>2019-05-31T10:11:46Z</time>
      </trkpt>
      <trkpt lat="41.6849" lon="-8.61898">
        <ele>152.03</ele>
        <time>2019-05-31T10:12:02Z</time>
      </trkpt>
      <trkpt lat="41.68499" lon="-8.61914">
        <ele>153.47</ele>
        <time>2019-05-31T10:12:18Z</time>
      </trkpt>
      <trkpt lat="41.68506" lon="-8.6193">
        <ele>154.91</ele>
        <time>2019-05-31T10:12:32Z</time>
      </trkpt>
      <trkpt lat="41.68512" lon="-8.61951">
        <ele>154.91</ele>
        <time>2019-05-31T10:12:46Z</time>
      </trkpt>
      <trkpt lat="41.68519" lon="-8.61969">
        <ele>155.87</ele>
        <time>2019-05-31T10:13:00Z</time>
      </trkpt>
      <trkpt lat="41.6853" lon="-8.61985">
        <ele>157.31</ele>
        <time>2019-05-31T10:13:14Z</time>
      </trkpt>
      <trkpt lat="41.68533" lon="-8.62">
        <ele>159.24</ele>
        <time>2019-05-31T10:13:29Z</time>
      </trkpt>
      <trkpt lat="41.68532" lon="-8.62012">
        <ele>160.2</ele>
        <time>2019-05-31T10:13:44Z</time>
      </trkpt>
      <trkpt lat="41.6853" lon="-8.62016">
        <ele>160.2</ele>
        <time>2019-05-31T10:13:48Z</time>
      </trkpt>
      <trkpt lat="41.6853" lon="-8.62026">
        <ele>161.16</ele>
        <time>2019-05-31T10:14:05Z</time>
      </trkpt>
      <trkpt lat="41.68531" lon="-8.62026">
        <ele>161.16</ele>
        <time>2019-05-31T10:14:27Z</time>
      </trkpt>
      <trkpt lat="41.68533" lon="-8.62026">
        <ele>161.64</ele>
        <time>2019-05-31T10:14:49Z</time>
      </trkpt>
      <trkpt lat="41.68532" lon="-8.62036">
        <ele>161.64</ele>
        <time>2019-05-31T10:14:58Z</time>
      </trkpt>
      <trkpt lat="41.68539" lon="-8.6205">
        <ele>162.12</ele>
        <time>2019-05-31T10:15:13Z</time>
      </trkpt>
      <trkpt lat="41.68546" lon="-8.62058">
        <ele>162.6</ele>
        <time>2019-05-31T10:15:22Z</time>
      </trkpt>
      <trkpt lat="41.6856" lon="-8.6207">
        <ele>162.6</ele>
        <time>2019-05-31T10:15:36Z</time>
      </trkpt>
      <trkpt lat="41.68578" lon="-8.62073">
        <ele>162.6</ele>
        <time>2019-05-31T10:15:51Z</time>
      </trkpt>
      <trkpt lat="41.6858" lon="-8.62073">
        <ele>163.08</ele>
        <time>2019-05-31T10:15:52Z</time>
      </trkpt>
      <trkpt lat="41.68599" lon="-8.62082">
        <ele>164.52</ele>
        <time>2019-05-31T10:16:07Z</time>
      </trkpt>
      <trkpt lat="41.68604" lon="-8.62087">
        <ele>164.04</ele>
        <time>2019-05-31T10:16:12Z</time>
      </trkpt>
      <trkpt lat="41.68616" lon="-8.62096">
        <ele>165.48</ele>
        <time>2019-05-31T10:16:25Z</time>
      </trkpt>
      <trkpt lat="41.68617" lon="-8.62097">
        <ele>165.48</ele>
        <time>2019-05-31T10:16:26Z</time>
      </trkpt>
      <trkpt lat="41.68633" lon="-8.62098">
        <ele>166.45</ele>
        <time>2019-05-31T10:16:40Z</time>
      </trkpt>
      <trkpt lat="41.68645" lon="-8.62099">
        <ele>165.96</ele>
        <time>2019-05-31T10:16:49Z</time>
      </trkpt>
      <trkpt lat="41.6866" lon="-8.62113">
        <ele>164.52</ele>
        <time>2019-05-31T10:17:04Z</time>
      </trkpt>
      <trkpt lat="41.68672" lon="-8.62123">
        <ele>162.6</ele>
        <time>2019-05-31T10:17:17Z</time>
      </trkpt>
      <trkpt lat="41.68683" lon="-8.62129">
        <ele>160.68</ele>
        <time>2019-05-31T10:17:29Z</time>
      </trkpt>
      <trkpt lat="41.68688" lon="-8.62129">
        <ele>160.68</ele>
        <time>2019-05-31T10:17:40Z</time>
      </trkpt>
      <trkpt lat="41.68696" lon="-8.6213">
        <ele>160.2</ele>
        <time>2019-05-31T10:17:55Z</time>
      </trkpt>
      <trkpt lat="41.68702" lon="-8.62132">
        <ele>159.24</ele>
        <time>2019-05-31T10:18:00Z</time>
      </trkpt>
      <trkpt lat="41.68718" lon="-8.62142">
        <ele>158.27</ele>
        <time>2019-05-31T10:18:14Z</time>
      </trkpt>
      <trkpt lat="41.6872" lon="-8.62141">
        <ele>158.27</ele>
        <time>2019-05-31T10:18:30Z</time>
      </trkpt>
      <trkpt lat="41.6872" lon="-8.62154">
        <ele>156.83</ele>
        <time>2019-05-31T10:18:41Z</time>
      </trkpt>
      <trkpt lat="41.68727" lon="-8.62174">
        <ele>154.91</ele>
        <time>2019-05-31T10:18:54Z</time>
      </trkpt>
      <trkpt lat="41.6873" lon="-8.62181">
        <ele>154.43</ele>
        <time>2019-05-31T10:19:00Z</time>
      </trkpt>
      <trkpt lat="41.68742" lon="-8.62195">
        <ele>154.43</ele>
        <time>2019-05-31T10:19:13Z</time>
      </trkpt>
      <trkpt lat="41.68751" lon="-8.62207">
        <ele>153.47</ele>
        <time>2019-05-31T10:19:23Z</time>
      </trkpt>
      <trkpt lat="41.68755" lon="-8.62212">
        <ele>152.99</ele>
        <time>2019-05-31T10:19:27Z</time>
      </trkpt>
      <trkpt lat="41.68761" lon="-8.6222">
        <ele>153.47</ele>
        <time>2019-05-31T10:19:33Z</time>
      </trkpt>
      <trkpt lat="41.68772" lon="-8.62224">
        <ele>152.99</ele>
        <time>2019-05-31T10:19:46Z</time>
      </trkpt>
      <trkpt lat="41.68773" lon="-8.62224">
        <ele>152.99</ele>
        <time>2019-05-31T10:19:47Z</time>
      </trkpt>
      <trkpt lat="41.68783" lon="-8.62231">
        <ele>152.99</ele>
        <time>2019-05-31T10:20:02Z</time>
      </trkpt>
      <trkpt lat="41.6879" lon="-8.62234">
        <ele>152.51</ele>
        <time>2019-05-31T10:20:09Z</time>
      </trkpt>
      <trkpt lat="41.68805" lon="-8.62241">
        <ele>152.51</ele>
        <time>2019-05-31T10:20:21Z</time>
      </trkpt>
      <trkpt lat="41.68824" lon="-8.62249">
        <ele>152.03</ele>
        <time>2019-05-31T10:20:36Z</time>
      </trkpt>
      <trkpt lat="41.6884" lon="-8.62262">
        <ele>152.03</ele>
        <time>2019-05-31T10:20:50Z</time>
      </trkpt>
      <trkpt lat="41.68842" lon="-8.62263">
        <ele>152.03</ele>
        <time>2019-05-31T10:20:51Z</time>
      </trkpt>
      <trkpt lat="41.6886" lon="-8.62282">
        <ele>151.54</ele>
        <time>2019-05-31T10:21:09Z</time>
      </trkpt>
      <trkpt lat="41.68879" lon="-8.62284">
        <ele>152.03</ele>
        <time>2019-05-31T10:21:26Z</time>
      </trkpt>
      <trkpt lat="41.68889" lon="-8.62277">
        <ele>152.99</ele>
        <time>2019-05-31T10:21:40Z</time>
      </trkpt>
      <trkpt lat="41.6889" lon="-8.6227">
        <ele>153.95</ele>
        <time>2019-05-31T10:21:46Z</time>
      </trkpt>
      <trkpt lat="41.6889" lon="-8.62262">
        <ele>155.39</ele>
        <time>2019-05-31T10:21:56Z</time>
      </trkpt>
      <trkpt lat="41.68892" lon="-8.62246">
        <ele>156.83</ele>
        <time>2019-05-31T10:22:13Z</time>
      </trkpt>
      <trkpt lat="41.68897" lon="-8.62241">
        <ele>158.75</ele>
        <time>2019-05-31T10:22:25Z</time>
      </trkpt>
      <trkpt lat="41.68898" lon="-8.62238">
        <ele>158.75</ele>
        <time>2019-05-31T10:22:28Z</time>
      </trkpt>
      <trkpt lat="41.689" lon="-8.62236">
        <ele>158.75</ele>
        <time>2019-05-31T10:22:30Z</time>
      </trkpt>
      <trkpt lat="41.68918" lon="-8.6223">
        <ele>158.75</ele>
        <time>2019-05-31T10:22:46Z</time>
      </trkpt>
      <trkpt lat="41.68928" lon="-8.62227">
        <ele>159.24</ele>
        <time>2019-05-31T10:22:59Z</time>
      </trkpt>
      <trkpt lat="41.68941" lon="-8.62231">
        <ele>159.24</ele>
        <time>2019-05-31T10:23:12Z</time>
      </trkpt>
      <trkpt lat="41.68955" lon="-8.62236">
        <ele>161.16</ele>
        <time>2019-05-31T10:23:28Z</time>
      </trkpt>
      <trkpt lat="41.68969" lon="-8.62241">
        <ele>162.6</ele>
        <time>2019-05-31T10:23:44Z</time>
      </trkpt>
      <trkpt lat="41.68981" lon="-8.62244">
        <ele>165</ele>
        <time>2019-05-31T10:23:58Z</time>
      </trkpt>
      <trkpt lat="41.68994" lon="-8.62245">
        <ele>165.48</ele>
        <time>2019-05-31T10:24:12Z</time>
      </trkpt>
      <trkpt lat="41.69007" lon="-8.62248">
        <ele>166.45</ele>
        <time>2019-05-31T10:24:27Z</time>
      </trkpt>
      <trkpt lat="41.69017" lon="-8.62251">
        <ele>166.45</ele>
        <time>2019-05-31T10:24:40Z</time>
      </trkpt>
      <trkpt lat="41.69026" lon="-8.62246">
        <ele>167.41</ele>
        <time>2019-05-31T10:24:53Z</time>
      </trkpt>
      <trkpt lat="41.69039" lon="-8.6224">
        <ele>168.85</ele>
        <time>2019-05-31T10:25:06Z</time>
      </trkpt>
      <trkpt lat="41.6904" lon="-8.62241">
        <ele>169.33</ele>
        <time>2019-05-31T10:25:10Z</time>
      </trkpt>
      <trkpt lat="41.69055" lon="-8.6224">
        <ele>169.81</ele>
        <time>2019-05-31T10:25:23Z</time>
      </trkpt>
      <trkpt lat="41.69058" lon="-8.62239">
        <ele>169.81</ele>
        <time>2019-05-31T10:25:26Z</time>
      </trkpt>
      <trkpt lat="41.69072" lon="-8.62241">
        <ele>171.25</ele>
        <time>2019-05-31T10:25:38Z</time>
      </trkpt>
      <trkpt lat="41.6908" lon="-8.62247">
        <ele>171.73</ele>
        <time>2019-05-31T10:25:46Z</time>
      </trkpt>
      <trkpt lat="41.69094" lon="-8.62254">
        <ele>173.17</ele>
        <time>2019-05-31T10:26:00Z</time>
      </trkpt>
      <trkpt lat="41.69103" lon="-8.6226">
        <ele>173.17</ele>
        <time>2019-05-31T10:26:12Z</time>
      </trkpt>
      <trkpt lat="41.69115" lon="-8.62282">
        <ele>173.17</ele>
        <time>2019-05-31T10:26:30Z</time>
      </trkpt>
      <trkpt lat="41.69116" lon="-8.62283">
        <ele>173.66</ele>
        <time>2019-05-31T10:26:31Z</time>
      </trkpt>
      <trkpt lat="41.69122" lon="-8.623">
        <ele>174.14</ele>
        <time>2019-05-31T10:26:45Z</time>
      </trkpt>
      <trkpt lat="41.69129" lon="-8.62309">
        <ele>173.66</ele>
        <time>2019-05-31T10:26:54Z</time>
      </trkpt>
      <trkpt lat="41.69136" lon="-8.62316">
        <ele>174.14</ele>
        <time>2019-05-31T10:27:02Z</time>
      </trkpt>
      <trkpt lat="41.69154" lon="-8.62331">
        <ele>174.14</ele>
        <time>2019-05-31T10:27:19Z</time>
      </trkpt>
      <trkpt lat="41.69156" lon="-8.62333">
        <ele>174.14</ele>
        <time>2019-05-31T10:27:21Z</time>
      </trkpt>
      <trkpt lat="41.69173" lon="-8.6234">
        <ele>174.62</ele>
        <time>2019-05-31T10:27:37Z</time>
      </trkpt>
      <trkpt lat="41.69195" lon="-8.62349">
        <ele>174.14</ele>
        <time>2019-05-31T10:27:55Z</time>
      </trkpt>
      <trkpt lat="41.69205" lon="-8.6235">
        <ele>175.1</ele>
        <time>2019-05-31T10:28:09Z</time>
      </trkpt>
      <trkpt lat="41.69206" lon="-8.62353">
        <ele>175.1</ele>
        <time>2019-05-31T10:28:16Z</time>
      </trkpt>
      <trkpt lat="41.69216" lon="-8.62352">
        <ele>175.1</ele>
        <time>2019-05-31T10:28:24Z</time>
      </trkpt>
      <trkpt lat="41.69234" lon="-8.62354">
        <ele>174.62</ele>
        <time>2019-05-31T10:28:39Z</time>
      </trkpt>
      <trkpt lat="41.69252" lon="-8.62362">
        <ele>174.62</ele>
        <time>2019-05-31T10:28:53Z</time>
      </trkpt>
      <trkpt lat="41.69271" lon="-8.62368">
        <ele>174.14</ele>
        <time>2019-05-31T10:29:07Z</time>
      </trkpt>
      <trkpt lat="41.69278" lon="-8.62371">
        <ele>173.66</ele>
        <time>2019-05-31T10:29:12Z</time>
      </trkpt>
      <trkpt lat="41.69282" lon="-8.62368">
        <ele>174.14</ele>
        <time>2019-05-31T10:29:23Z</time>
      </trkpt>
      <trkpt lat="41.69291" lon="-8.62367">
        <ele>173.66</ele>
        <time>2019-05-31T10:29:31Z</time>
      </trkpt>
      <trkpt lat="41.69293" lon="-8.62367">
        <ele>173.66</ele>
        <time>2019-05-31T10:29:32Z</time>
      </trkpt>
      <trkpt lat="41.69294" lon="-8.62368">
        <ele>173.66</ele>
        <time>2019-05-31T10:29:33Z</time>
      </trkpt>
      <trkpt lat="41.69295" lon="-8.62368">
        <ele>174.14</ele>
        <time>2019-05-31T10:29:34Z</time>
      </trkpt>
      <trkpt lat="41.69296" lon="-8.62368">
        <ele>174.14</ele>
        <time>2019-05-31T10:29:35Z</time>
      </trkpt>
      <trkpt lat="41.69297" lon="-8.62368">
        <ele>173.66</ele>
        <time>2019-05-31T10:29:36Z</time>
      </trkpt>
      <trkpt lat="41.69299" lon="-8.62369">
        <ele>173.66</ele>
        <time>2019-05-31T10:29:37Z</time>
      </trkpt>
      <trkpt lat="41.69323" lon="-8.62373">
        <ele>172.69</ele>
        <time>2019-05-31T10:29:57Z</time>
      </trkpt>
      <trkpt lat="41.69329" lon="-8.62376">
        <ele>172.69</ele>
        <time>2019-05-31T10:30:09Z</time>
      </trkpt>
      <trkpt lat="41.69331" lon="-8.62379">
        <ele>172.21</ele>
        <time>2019-05-31T10:30:29Z</time>
      </trkpt>
      <trkpt lat="41.69344" lon="-8.62384">
        <ele>170.29</ele>
        <time>2019-05-31T10:30:44Z</time>
      </trkpt>
      <trkpt lat="41.69346" lon="-8.62384">
        <ele>170.77</ele>
        <time>2019-05-31T10:30:46Z</time>
      </trkpt>
      <trkpt lat="41.69347" lon="-8.62385">
        <ele>170.29</ele>
        <time>2019-05-31T10:30:47Z</time>
      </trkpt>
      <trkpt lat="41.69358" lon="-8.62387">
        <ele>169.33</ele>
        <time>2019-05-31T10:31:03Z</time>
      </trkpt>
      <trkpt lat="41.69362" lon="-8.62388">
        <ele>168.85</ele>
        <time>2019-05-31T10:31:06Z</time>
      </trkpt>
      <trkpt lat="41.69363" lon="-8.62389">
        <ele>168.85</ele>
        <time>2019-05-31T10:31:07Z</time>
      </trkpt>
      <trkpt lat="41.69373" lon="-8.62395">
        <ele>167.41</ele>
        <time>2019-05-31T10:31:18Z</time>
      </trkpt>
      <trkpt lat="41.69376" lon="-8.62401">
        <ele>167.41</ele>
        <time>2019-05-31T10:31:22Z</time>
      </trkpt>
      <trkpt lat="41.69386" lon="-8.62412">
        <ele>164.04</ele>
        <time>2019-05-31T10:31:33Z</time>
      </trkpt>
      <trkpt lat="41.69397" lon="-8.62421">
        <ele>161.64</ele>
        <time>2019-05-31T10:31:46Z</time>
      </trkpt>
      <trkpt lat="41.69413" lon="-8.62427">
        <ele>158.75</ele>
        <time>2019-05-31T10:31:59Z</time>
      </trkpt>
      <trkpt lat="41.69431" lon="-8.62432">
        <ele>156.35</ele>
        <time>2019-05-31T10:32:13Z</time>
      </trkpt>
      <trkpt lat="41.69443" lon="-8.62435">
        <ele>154.91</ele>
        <time>2019-05-31T10:32:26Z</time>
      </trkpt>
      <trkpt lat="41.69443" lon="-8.62435">
        <ele>154.91</ele>
        <time>2019-05-31T10:32:27Z</time>
      </trkpt>
      <trkpt lat="41.69445" lon="-8.62436">
        <ele>154.43</ele>
        <time>2019-05-31T10:32:28Z</time>
      </trkpt>
      <trkpt lat="41.69465" lon="-8.6244">
        <ele>152.51</ele>
        <time>2019-05-31T10:32:44Z</time>
      </trkpt>
      <trkpt lat="41.69482" lon="-8.6244">
        <ele>150.58</ele>
        <time>2019-05-31T10:32:59Z</time>
      </trkpt>
      <trkpt lat="41.69493" lon="-8.62432">
        <ele>148.18</ele>
        <time>2019-05-31T10:33:13Z</time>
      </trkpt>
      <trkpt lat="41.69496" lon="-8.62431">
        <ele>147.7</ele>
        <time>2019-05-31T10:33:15Z</time>
      </trkpt>
      <trkpt lat="41.69516" lon="-8.62427">
        <ele>147.7</ele>
        <time>2019-05-31T10:33:27Z</time>
      </trkpt>
      <trkpt lat="41.69522" lon="-8.62428">
        <ele>147.22</ele>
        <time>2019-05-31T10:33:29Z</time>
      </trkpt>
      <trkpt lat="41.69536" lon="-8.62434">
        <ele>146.26</ele>
        <time>2019-05-31T10:33:43Z</time>
      </trkpt>
      <trkpt lat="41.69547" lon="-8.62438">
        <ele>144.82</ele>
        <time>2019-05-31T10:33:54Z</time>
      </trkpt>
      <trkpt lat="41.6956" lon="-8.62445">
        <ele>142.89</ele>
        <time>2019-05-31T10:34:06Z</time>
      </trkpt>
      <trkpt lat="41.69562" lon="-8.62446">
        <ele>141.93</ele>
        <time>2019-05-31T10:34:08Z</time>
      </trkpt>
      <trkpt lat="41.69564" lon="-8.62447">
        <ele>142.41</ele>
        <time>2019-05-31T10:34:09Z</time>
      </trkpt>
      <trkpt lat="41.6958" lon="-8.62453">
        <ele>139.53</ele>
        <time>2019-05-31T10:34:23Z</time>
      </trkpt>
      <trkpt lat="41.69585" lon="-8.62452">
        <ele>139.05</ele>
        <time>2019-05-31T10:34:27Z</time>
      </trkpt>
      <trkpt lat="41.69597" lon="-8.62447">
        <ele>137.13</ele>
        <time>2019-05-31T10:34:39Z</time>
      </trkpt>
      <trkpt lat="41.69602" lon="-8.62445">
        <ele>137.13</ele>
        <time>2019-05-31T10:34:55Z</time>
      </trkpt>
      <trkpt lat="41.69606" lon="-8.62443">
        <ele>137.13</ele>
        <time>2019-05-31T10:35:12Z</time>
      </trkpt>
      <trkpt lat="41.69612" lon="-8.62439">
        <ele>137.13</ele>
        <time>2019-05-31T10:35:20Z</time>
      </trkpt>
      <trkpt lat="41.6962" lon="-8.62435">
        <ele>136.64</ele>
        <time>2019-05-31T10:35:30Z</time>
      </trkpt>
      <trkpt lat="41.69626" lon="-8.62432">
        <ele>136.16</ele>
        <time>2019-05-31T10:35:36Z</time>
      </trkpt>
      <trkpt lat="41.69632" lon="-8.62427">
        <ele>135.2</ele>
        <time>2019-05-31T10:35:42Z</time>
      </trkpt>
      <trkpt lat="41.69643" lon="-8.6242">
        <ele>134.24</ele>
        <time>2019-05-31T10:35:54Z</time>
      </trkpt>
      <trkpt lat="41.69657" lon="-8.62419">
        <ele>133.28</ele>
        <time>2019-05-31T10:36:06Z</time>
      </trkpt>
      <trkpt lat="41.6967" lon="-8.62419">
        <ele>132.32</ele>
        <time>2019-05-31T10:36:17Z</time>
      </trkpt>
      <trkpt lat="41.6969" lon="-8.62421">
        <ele>131.84</ele>
        <time>2019-05-31T10:36:32Z</time>
      </trkpt>
      <trkpt lat="41.69698" lon="-8.62421">
        <ele>131.36</ele>
        <time>2019-05-31T10:36:38Z</time>
      </trkpt>
      <trkpt lat="41.697" lon="-8.62421">
        <ele>131.84</ele>
        <time>2019-05-31T10:36:40Z</time>
      </trkpt>
      <trkpt lat="41.69713" lon="-8.62421">
        <ele>130.4</ele>
        <time>2019-05-31T10:36:51Z</time>
      </trkpt>
      <trkpt lat="41.6973" lon="-8.62424">
        <ele>129.43</ele>
        <time>2019-05-31T10:37:04Z</time>
      </trkpt>
      <trkpt lat="41.6975" lon="-8.62426">
        <ele>128.47</ele>
        <time>2019-05-31T10:37:18Z</time>
      </trkpt>
      <trkpt lat="41.69754" lon="-8.62426">
        <ele>127.99</ele>
        <time>2019-05-31T10:37:21Z</time>
      </trkpt>
      <trkpt lat="41.69767" lon="-8.62428">
        <ele>127.99</ele>
        <time>2019-05-31T10:37:32Z</time>
      </trkpt>
      <trkpt lat="41.69782" lon="-8.62434">
        <ele>126.55</ele>
        <time>2019-05-31T10:37:44Z</time>
      </trkpt>
      <trkpt lat="41.69796" lon="-8.62438">
        <ele>124.63</ele>
        <time>2019-05-31T10:37:57Z</time>
      </trkpt>
      <trkpt lat="41.69809" lon="-8.62439">
        <ele>122.22</ele>
        <time>2019-05-31T10:38:10Z</time>
      </trkpt>
      <trkpt lat="41.69824" lon="-8.62435">
        <ele>120.3</ele>
        <time>2019-05-31T10:38:21Z</time>
      </trkpt>
      <trkpt lat="41.69826" lon="-8.62435">
        <ele>120.3</ele>
        <time>2019-05-31T10:38:22Z</time>
      </trkpt>
      <trkpt lat="41.69827" lon="-8.62434">
        <ele>120.3</ele>
        <time>2019-05-31T10:38:23Z</time>
      </trkpt>
      <trkpt lat="41.69829" lon="-8.62434">
        <ele>120.3</ele>
        <time>2019-05-31T10:38:24Z</time>
      </trkpt>
      <trkpt lat="41.6983" lon="-8.62434">
        <ele>120.3</ele>
        <time>2019-05-31T10:38:25Z</time>
      </trkpt>
      <trkpt lat="41.6985" lon="-8.62422">
        <ele>118.86</ele>
        <time>2019-05-31T10:38:41Z</time>
      </trkpt>
      <trkpt lat="41.69852" lon="-8.62422">
        <ele>118.38</ele>
        <time>2019-05-31T10:38:42Z</time>
      </trkpt>
      <trkpt lat="41.69858" lon="-8.62422">
        <ele>117.42</ele>
        <time>2019-05-31T10:38:46Z</time>
      </trkpt>
      <trkpt lat="41.69873" lon="-8.62426">
        <ele>115.98</ele>
        <time>2019-05-31T10:38:58Z</time>
      </trkpt>
      <trkpt lat="41.69885" lon="-8.62425">
        <ele>114.05</ele>
        <time>2019-05-31T10:39:08Z</time>
      </trkpt>
      <trkpt lat="41.69886" lon="-8.62425">
        <ele>114.53</ele>
        <time>2019-05-31T10:39:09Z</time>
      </trkpt>
      <trkpt lat="41.699" lon="-8.62425">
        <ele>112.13</ele>
        <time>2019-05-31T10:39:24Z</time>
      </trkpt>
      <trkpt lat="41.69902" lon="-8.62425">
        <ele>112.13</ele>
        <time>2019-05-31T10:39:26Z</time>
      </trkpt>
      <trkpt lat="41.69903" lon="-8.62425">
        <ele>111.65</ele>
        <time>2019-05-31T10:39:27Z</time>
      </trkpt>
      <trkpt lat="41.69921" lon="-8.62428">
        <ele>110.21</ele>
        <time>2019-05-31T10:39:38Z</time>
      </trkpt>
      <trkpt lat="41.69925" lon="-8.62429">
        <ele>110.69</ele>
        <time>2019-05-31T10:39:40Z</time>
      </trkpt>
      <trkpt lat="41.69933" lon="-8.6243">
        <ele>110.69</ele>
        <time>2019-05-31T10:39:46Z</time>
      </trkpt>
      <trkpt lat="41.69935" lon="-8.6243">
        <ele>110.21</ele>
        <time>2019-05-31T10:39:47Z</time>
      </trkpt>
      <trkpt lat="41.69937" lon="-8.6243">
        <ele>109.73</ele>
        <time>2019-05-31T10:39:48Z</time>
      </trkpt>
      <trkpt lat="41.69945" lon="-8.62432">
        <ele>109.25</ele>
        <time>2019-05-31T10:39:54Z</time>
      </trkpt>
      <trkpt lat="41.69946" lon="-8.62433">
        <ele>108.77</ele>
        <time>2019-05-31T10:39:55Z</time>
      </trkpt>
      <trkpt lat="41.69959" lon="-8.62438">
        <ele>109.25</ele>
        <time>2019-05-31T10:40:02Z</time>
      </trkpt>
      <trkpt lat="41.6997" lon="-8.62438">
        <ele>108.77</ele>
        <time>2019-05-31T10:40:11Z</time>
      </trkpt>
      <trkpt lat="41.6997" lon="-8.62438">
        <ele>109.25</ele>
        <time>2019-05-31T10:40:26Z</time>
      </trkpt>
      <trkpt lat="41.69972" lon="-8.62438">
        <ele>109.73</ele>
        <time>2019-05-31T10:40:55Z</time>
      </trkpt>
      <trkpt lat="41.69975" lon="-8.62437">
        <ele>109.25</ele>
        <time>2019-05-31T10:40:57Z</time>
      </trkpt>
      <trkpt lat="41.69976" lon="-8.62437">
        <ele>108.77</ele>
        <time>2019-05-31T10:40:58Z</time>
      </trkpt>
      <trkpt lat="41.69995" lon="-8.62438">
        <ele>107.32</ele>
        <time>2019-05-31T10:41:14Z</time>
      </trkpt>
      <trkpt lat="41.70013" lon="-8.6244">
        <ele>105.4</ele>
        <time>2019-05-31T10:41:29Z</time>
      </trkpt>
      <trkpt lat="41.70014" lon="-8.6244">
        <ele>105.88</ele>
        <time>2019-05-31T10:41:30Z</time>
      </trkpt>
      <trkpt lat="41.70029" lon="-8.62445">
        <ele>103.48</ele>
        <time>2019-05-31T10:41:44Z</time>
      </trkpt>
      <trkpt lat="41.70031" lon="-8.62446">
        <ele>103.48</ele>
        <time>2019-05-31T10:41:46Z</time>
      </trkpt>
      <trkpt lat="41.70036" lon="-8.62446">
        <ele>102.52</ele>
        <time>2019-05-31T10:41:49Z</time>
      </trkpt>
      <trkpt lat="41.70052" lon="-8.62458">
        <ele>99.63</ele>
        <time>2019-05-31T10:42:04Z</time>
      </trkpt>
      <trkpt lat="41.70059" lon="-8.6246">
        <ele>98.67</ele>
        <time>2019-05-31T10:42:11Z</time>
      </trkpt>
      <trkpt lat="41.70077" lon="-8.62453">
        <ele>97.71</ele>
        <time>2019-05-31T10:42:25Z</time>
      </trkpt>
      <trkpt lat="41.70082" lon="-8.62454">
        <ele>97.71</ele>
        <time>2019-05-31T10:42:29Z</time>
      </trkpt>
      <trkpt lat="41.70097" lon="-8.62457">
        <ele>96.75</ele>
        <time>2019-05-31T10:42:41Z</time>
      </trkpt>
      <trkpt lat="41.70104" lon="-8.62458">
        <ele>96.27</ele>
        <time>2019-05-31T10:42:47Z</time>
      </trkpt>
      <trkpt lat="41.70105" lon="-8.62458">
        <ele>96.75</ele>
        <time>2019-05-31T10:42:48Z</time>
      </trkpt>
      <trkpt lat="41.7012" lon="-8.62459">
        <ele>95.79</ele>
        <time>2019-05-31T10:43:01Z</time>
      </trkpt>
      <trkpt lat="41.70138" lon="-8.62458">
        <ele>93.87</ele>
        <time>2019-05-31T10:43:16Z</time>
      </trkpt>
      <trkpt lat="41.70158" lon="-8.6245">
        <ele>92.42</ele>
        <time>2019-05-31T10:43:31Z</time>
      </trkpt>
      <trkpt lat="41.7016" lon="-8.62449">
        <ele>92.9</ele>
        <time>2019-05-31T10:43:32Z</time>
      </trkpt>
      <trkpt lat="41.70161" lon="-8.62446">
        <ele>91.94</ele>
        <time>2019-05-31T10:43:34Z</time>
      </trkpt>
      <trkpt lat="41.70162" lon="-8.62444">
        <ele>92.42</ele>
        <time>2019-05-31T10:43:35Z</time>
      </trkpt>
      <trkpt lat="41.70165" lon="-8.62438">
        <ele>92.42</ele>
        <time>2019-05-31T10:43:49Z</time>
      </trkpt>
      <trkpt lat="41.70173" lon="-8.62432">
        <ele>92.9</ele>
        <time>2019-05-31T10:43:58Z</time>
      </trkpt>
      <trkpt lat="41.70173" lon="-8.6243">
        <ele>92.9</ele>
        <time>2019-05-31T10:43:59Z</time>
      </trkpt>
      <trkpt lat="41.70175" lon="-8.62427">
        <ele>92.9</ele>
        <time>2019-05-31T10:44:02Z</time>
      </trkpt>
      <trkpt lat="41.70175" lon="-8.62425">
        <ele>92.42</ele>
        <time>2019-05-31T10:44:03Z</time>
      </trkpt>
      <trkpt lat="41.70182" lon="-8.62408">
        <ele>91.46</ele>
        <time>2019-05-31T10:44:16Z</time>
      </trkpt>
      <trkpt lat="41.70185" lon="-8.62406">
        <ele>91.46</ele>
        <time>2019-05-31T10:44:28Z</time>
      </trkpt>
      <trkpt lat="41.70189" lon="-8.62406">
        <ele>90.5</ele>
        <time>2019-05-31T10:44:49Z</time>
      </trkpt>
      <trkpt lat="41.7019" lon="-8.62406">
        <ele>90.98</ele>
        <time>2019-05-31T10:44:50Z</time>
      </trkpt>
      <trkpt lat="41.70203" lon="-8.62404">
        <ele>90.5</ele>
        <time>2019-05-31T10:45:01Z</time>
      </trkpt>
      <trkpt lat="41.70225" lon="-8.62404">
        <ele>90.98</ele>
        <time>2019-05-31T10:45:20Z</time>
      </trkpt>
      <trkpt lat="41.70232" lon="-8.62397">
        <ele>90.98</ele>
        <time>2019-05-31T10:45:29Z</time>
      </trkpt>
      <trkpt lat="41.70245" lon="-8.62386">
        <ele>91.94</ele>
        <time>2019-05-31T10:45:41Z</time>
      </trkpt>
      <trkpt lat="41.70251" lon="-8.62381">
        <ele>92.42</ele>
        <time>2019-05-31T10:45:55Z</time>
      </trkpt>
      <trkpt lat="41.7026" lon="-8.62376">
        <ele>91.94</ele>
        <time>2019-05-31T10:46:21Z</time>
      </trkpt>
      <trkpt lat="41.70271" lon="-8.62378">
        <ele>92.42</ele>
        <time>2019-05-31T10:46:35Z</time>
      </trkpt>
      <trkpt lat="41.70272" lon="-8.6238">
        <ele>92.42</ele>
        <time>2019-05-31T10:47:00Z</time>
      </trkpt>
      <trkpt lat="41.70273" lon="-8.6238">
        <ele>92.42</ele>
        <time>2019-05-31T10:47:01Z</time>
      </trkpt>
      <trkpt lat="41.70295" lon="-8.62393">
        <ele>93.39</ele>
        <time>2019-05-31T10:47:18Z</time>
      </trkpt>
      <trkpt lat="41.70298" lon="-8.62395">
        <ele>92.9</ele>
        <time>2019-05-31T10:47:21Z</time>
      </trkpt>
      <trkpt lat="41.70299" lon="-8.62396">
        <ele>92.9</ele>
        <time>2019-05-31T10:47:22Z</time>
      </trkpt>
      <trkpt lat="41.703" lon="-8.62397">
        <ele>92.9</ele>
        <time>2019-05-31T10:47:23Z</time>
      </trkpt>
      <trkpt lat="41.70303" lon="-8.62399">
        <ele>92.9</ele>
        <time>2019-05-31T10:47:26Z</time>
      </trkpt>
      <trkpt lat="41.70322" lon="-8.62399">
        <ele>93.39</ele>
        <time>2019-05-31T10:47:42Z</time>
      </trkpt>
      <trkpt lat="41.70333" lon="-8.624">
        <ele>92.9</ele>
        <time>2019-05-31T10:47:51Z</time>
      </trkpt>
      <trkpt lat="41.70345" lon="-8.62404">
        <ele>93.39</ele>
        <time>2019-05-31T10:48:02Z</time>
      </trkpt>
      <trkpt lat="41.7035" lon="-8.62404">
        <ele>94.35</ele>
        <time>2019-05-31T10:48:07Z</time>
      </trkpt>
      <trkpt lat="41.7036" lon="-8.62404">
        <ele>94.83</ele>
        <time>2019-05-31T10:48:15Z</time>
      </trkpt>
      <trkpt lat="41.70361" lon="-8.62404">
        <ele>94.83</ele>
        <time>2019-05-31T10:48:16Z</time>
      </trkpt>
      <trkpt lat="41.70379" lon="-8.62402">
        <ele>93.87</ele>
        <time>2019-05-31T10:48:31Z</time>
      </trkpt>
      <trkpt lat="41.70394" lon="-8.62393">
        <ele>91.94</ele>
        <time>2019-05-31T10:48:44Z</time>
      </trkpt>
      <trkpt lat="41.70399" lon="-8.62394">
        <ele>90.98</ele>
        <time>2019-05-31T10:48:56Z</time>
      </trkpt>
      <trkpt lat="41.70406" lon="-8.6239">
        <ele>89.54</ele>
        <time>2019-05-31T10:49:11Z</time>
      </trkpt>
      <trkpt lat="41.70424" lon="-8.62384">
        <ele>87.14</ele>
        <time>2019-05-31T10:49:26Z</time>
      </trkpt>
      <trkpt lat="41.70431" lon="-8.62384">
        <ele>86.18</ele>
        <time>2019-05-31T10:49:30Z</time>
      </trkpt>
      <trkpt lat="41.70433" lon="-8.62384">
        <ele>86.18</ele>
        <time>2019-05-31T10:49:31Z</time>
      </trkpt>
      <trkpt lat="41.70437" lon="-8.62386">
        <ele>86.18</ele>
        <time>2019-05-31T10:49:45Z</time>
      </trkpt>
      <trkpt lat="41.70445" lon="-8.62383">
        <ele>85.21</ele>
        <time>2019-05-31T10:49:56Z</time>
      </trkpt>
      <trkpt lat="41.70462" lon="-8.62382">
        <ele>83.77</ele>
        <time>2019-05-31T10:50:09Z</time>
      </trkpt>
      <trkpt lat="41.70476" lon="-8.62389">
        <ele>82.33</ele>
        <time>2019-05-31T10:50:22Z</time>
      </trkpt>
      <trkpt lat="41.70489" lon="-8.62398">
        <ele>81.85</ele>
        <time>2019-05-31T10:50:35Z</time>
      </trkpt>
      <trkpt lat="41.70496" lon="-8.62398">
        <ele>81.37</ele>
        <time>2019-05-31T10:50:49Z</time>
      </trkpt>
      <trkpt lat="41.70498" lon="-8.62397">
        <ele>81.37</ele>
        <time>2019-05-31T10:50:50Z</time>
      </trkpt>
      <trkpt lat="41.70511" lon="-8.62393">
        <ele>78.48</ele>
        <time>2019-05-31T10:51:04Z</time>
      </trkpt>
      <trkpt lat="41.70531" lon="-8.62389">
        <ele>76.08</ele>
        <time>2019-05-31T10:51:19Z</time>
      </trkpt>
      <trkpt lat="41.70555" lon="-8.62383">
        <ele>74.16</ele>
        <time>2019-05-31T10:51:35Z</time>
      </trkpt>
      <trkpt lat="41.7056" lon="-8.62383">
        <ele>73.68</ele>
        <time>2019-05-31T10:51:39Z</time>
      </trkpt>
      <trkpt lat="41.70576" lon="-8.62371">
        <ele>72.72</ele>
        <time>2019-05-31T10:51:54Z</time>
      </trkpt>
      <trkpt lat="41.70593" lon="-8.62369">
        <ele>72.72</ele>
        <time>2019-05-31T10:52:08Z</time>
      </trkpt>
      <trkpt lat="41.70614" lon="-8.62368">
        <ele>72.72</ele>
        <time>2019-05-31T10:52:23Z</time>
      </trkpt>
      <trkpt lat="41.70633" lon="-8.62369">
        <ele>72.72</ele>
        <time>2019-05-31T10:52:37Z</time>
      </trkpt>
      <trkpt lat="41.70653" lon="-8.62366">
        <ele>71.27</ele>
        <time>2019-05-31T10:52:53Z</time>
      </trkpt>
      <trkpt lat="41.70657" lon="-8.62364">
        <ele>71.27</ele>
        <time>2019-05-31T10:52:57Z</time>
      </trkpt>
      <trkpt lat="41.7066" lon="-8.62364">
        <ele>71.76</ele>
        <time>2019-05-31T10:53:00Z</time>
      </trkpt>
      <trkpt lat="41.70662" lon="-8.62363">
        <ele>71.76</ele>
        <time>2019-05-31T10:53:01Z</time>
      </trkpt>
      <trkpt lat="41.70676" lon="-8.62362">
        <ele>72.24</ele>
        <time>2019-05-31T10:53:13Z</time>
      </trkpt>
      <trkpt lat="41.70692" lon="-8.62361">
        <ele>70.79</ele>
        <time>2019-05-31T10:53:25Z</time>
      </trkpt>
      <trkpt lat="41.70696" lon="-8.62361">
        <ele>71.27</ele>
        <time>2019-05-31T10:53:28Z</time>
      </trkpt>
      <trkpt lat="41.70706" lon="-8.62361">
        <ele>70.79</ele>
        <time>2019-05-31T10:53:38Z</time>
      </trkpt>
      <trkpt lat="41.70726" lon="-8.62364">
        <ele>71.27</ele>
        <time>2019-05-31T10:53:52Z</time>
      </trkpt>
      <trkpt lat="41.70742" lon="-8.6237">
        <ele>69.83</ele>
        <time>2019-05-31T10:54:03Z</time>
      </trkpt>
      <trkpt lat="41.70745" lon="-8.62373">
        <ele>69.83</ele>
        <time>2019-05-31T10:54:06Z</time>
      </trkpt>
      <trkpt lat="41.70757" lon="-8.62383">
        <ele>69.83</ele>
        <time>2019-05-31T10:54:19Z</time>
      </trkpt>
      <trkpt lat="41.70757" lon="-8.62386">
        <ele>69.83</ele>
        <time>2019-05-31T10:54:35Z</time>
      </trkpt>
      <trkpt lat="41.70758" lon="-8.62387">
        <ele>69.83</ele>
        <time>2019-05-31T10:54:52Z</time>
      </trkpt>
      <trkpt lat="41.70757" lon="-8.62387">
        <ele>70.31</ele>
        <time>2019-05-31T10:55:04Z</time>
      </trkpt>
      <trkpt lat="41.70757" lon="-8.62386">
        <ele>69.83</ele>
        <time>2019-05-31T10:55:26Z</time>
      </trkpt>
      <trkpt lat="41.7076" lon="-8.62385">
        <ele>69.35</ele>
        <time>2019-05-31T10:55:52Z</time>
      </trkpt>
      <trkpt lat="41.70758" lon="-8.62385">
        <ele>69.83</ele>
        <time>2019-05-31T10:56:14Z</time>
      </trkpt>
      <trkpt lat="41.70763" lon="-8.62385">
        <ele>68.87</ele>
        <time>2019-05-31T10:56:43Z</time>
      </trkpt>
      <trkpt lat="41.70763" lon="-8.62387">
        <ele>68.87</ele>
        <time>2019-05-31T10:56:59Z</time>
      </trkpt>
      <trkpt lat="41.70763" lon="-8.62384">
        <ele>68.87</ele>
        <time>2019-05-31T10:57:15Z</time>
      </trkpt>
      <trkpt lat="41.70777" lon="-8.62382">
        <ele>69.35</ele>
        <time>2019-05-31T10:57:29Z</time>
      </trkpt>
      <trkpt lat="41.70795" lon="-8.62381">
        <ele>71.27</ele>
        <time>2019-05-31T10:57:44Z</time>
      </trkpt>
      <trkpt lat="41.70808" lon="-8.62378">
        <ele>73.68</ele>
        <time>2019-05-31T10:58:01Z</time>
      </trkpt>
      <trkpt lat="41.70817" lon="-8.62375">
        <ele>75.12</ele>
        <time>2019-05-31T10:58:14Z</time>
      </trkpt>
      <trkpt lat="41.70826" lon="-8.6237">
        <ele>75.6</ele>
        <time>2019-05-31T10:58:27Z</time>
      </trkpt>
      <trkpt lat="41.70842" lon="-8.62363">
        <ele>74.16</ele>
        <time>2019-05-31T10:58:41Z</time>
      </trkpt>
      <trkpt lat="41.70848" lon="-8.62359">
        <ele>74.16</ele>
        <time>2019-05-31T10:58:47Z</time>
      </trkpt>
      <trkpt lat="41.70852" lon="-8.62358">
        <ele>74.16</ele>
        <time>2019-05-31T10:58:50Z</time>
      </trkpt>
      <trkpt lat="41.70871" lon="-8.62353">
        <ele>70.79</ele>
        <time>2019-05-31T10:59:07Z</time>
      </trkpt>
      <trkpt lat="41.70873" lon="-8.62353">
        <ele>70.79</ele>
        <time>2019-05-31T10:59:08Z</time>
      </trkpt>
      <trkpt lat="41.70892" lon="-8.62351">
        <ele>67.91</ele>
        <time>2019-05-31T10:59:24Z</time>
      </trkpt>
      <trkpt lat="41.70914" lon="-8.62345">
        <ele>65.99</ele>
        <time>2019-05-31T10:59:41Z</time>
      </trkpt>
      <trkpt lat="41.70927" lon="-8.6234">
        <ele>65.51</ele>
        <time>2019-05-31T10:59:50Z</time>
      </trkpt>
      <trkpt lat="41.70928" lon="-8.62339">
        <ele>65.51</ele>
        <time>2019-05-31T10:59:51Z</time>
      </trkpt>
      <trkpt lat="41.70936" lon="-8.62335">
        <ele>65.51</ele>
        <time>2019-05-31T10:59:57Z</time>
      </trkpt>
      <trkpt lat="41.70938" lon="-8.62334">
        <ele>65.99</ele>
        <time>2019-05-31T10:59:58Z</time>
      </trkpt>
      <trkpt lat="41.70961" lon="-8.62332">
        <ele>64.07</ele>
        <time>2019-05-31T11:00:16Z</time>
      </trkpt>
      <trkpt lat="41.7097" lon="-8.62335">
        <ele>63.58</ele>
        <time>2019-05-31T11:00:24Z</time>
      </trkpt>
      <trkpt lat="41.70974" lon="-8.62336">
        <ele>63.1</ele>
        <time>2019-05-31T11:00:27Z</time>
      </trkpt>
      <trkpt lat="41.70976" lon="-8.62336">
        <ele>62.62</ele>
        <time>2019-05-31T11:00:28Z</time>
      </trkpt>
      <trkpt lat="41.70993" lon="-8.62338">
        <ele>61.66</ele>
        <time>2019-05-31T11:00:42Z</time>
      </trkpt>
      <trkpt lat="41.71011" lon="-8.62339">
        <ele>61.66</ele>
        <time>2019-05-31T11:00:56Z</time>
      </trkpt>
      <trkpt lat="41.71028" lon="-8.62335">
        <ele>61.18</ele>
        <time>2019-05-31T11:01:09Z</time>
      </trkpt>
      <trkpt lat="41.71037" lon="-8.62332">
        <ele>60.7</ele>
        <time>2019-05-31T11:01:17Z</time>
      </trkpt>
      <trkpt lat="41.71038" lon="-8.62332">
        <ele>61.18</ele>
        <time>2019-05-31T11:01:18Z</time>
      </trkpt>
      <trkpt lat="41.7104" lon="-8.62332">
        <ele>61.18</ele>
        <time>2019-05-31T11:01:19Z</time>
      </trkpt>
      <trkpt lat="41.71041" lon="-8.62332">
        <ele>61.18</ele>
        <time>2019-05-31T11:01:20Z</time>
      </trkpt>
      <trkpt lat="41.71042" lon="-8.62331">
        <ele>61.66</ele>
        <time>2019-05-31T11:01:21Z</time>
      </trkpt>
      <trkpt lat="41.71043" lon="-8.62331">
        <ele>61.18</ele>
        <time>2019-05-31T11:01:22Z</time>
      </trkpt>
      <trkpt lat="41.71044" lon="-8.6233">
        <ele>61.18</ele>
        <time>2019-05-31T11:01:23Z</time>
      </trkpt>
      <trkpt lat="41.71046" lon="-8.6233">
        <ele>61.18</ele>
        <time>2019-05-31T11:01:24Z</time>
      </trkpt>
      <trkpt lat="41.71061" lon="-8.6232">
        <ele>60.7</ele>
        <time>2019-05-31T11:01:38Z</time>
      </trkpt>
      <trkpt lat="41.71078" lon="-8.62303">
        <ele>59.26</ele>
        <time>2019-05-31T11:01:53Z</time>
      </trkpt>
      <trkpt lat="41.71088" lon="-8.62293">
        <ele>58.3</ele>
        <time>2019-05-31T11:02:04Z</time>
      </trkpt>
      <trkpt lat="41.71089" lon="-8.62292">
        <ele>57.82</ele>
        <time>2019-05-31T11:02:05Z</time>
      </trkpt>
      <trkpt lat="41.71106" lon="-8.62278">
        <ele>56.37</ele>
        <time>2019-05-31T11:02:21Z</time>
      </trkpt>
      <trkpt lat="41.71116" lon="-8.6227">
        <ele>56.37</ele>
        <time>2019-05-31T11:02:33Z</time>
      </trkpt>
      <trkpt lat="41.71133" lon="-8.62261">
        <ele>55.89</ele>
        <time>2019-05-31T11:02:48Z</time>
      </trkpt>
      <trkpt lat="41.71154" lon="-8.62256">
        <ele>55.89</ele>
        <time>2019-05-31T11:03:05Z</time>
      </trkpt>
      <trkpt lat="41.71172" lon="-8.62249">
        <ele>56.37</ele>
        <time>2019-05-31T11:03:21Z</time>
      </trkpt>
      <trkpt lat="41.71192" lon="-8.6224">
        <ele>55.89</ele>
        <time>2019-05-31T11:03:37Z</time>
      </trkpt>
      <trkpt lat="41.71205" lon="-8.62237">
        <ele>55.41</ele>
        <time>2019-05-31T11:03:48Z</time>
      </trkpt>
      <trkpt lat="41.71207" lon="-8.62235">
        <ele>55.89</ele>
        <time>2019-05-31T11:03:50Z</time>
      </trkpt>
      <trkpt lat="41.71218" lon="-8.62227">
        <ele>55.89</ele>
        <time>2019-05-31T11:04:00Z</time>
      </trkpt>
      <trkpt lat="41.71219" lon="-8.62226">
        <ele>55.41</ele>
        <time>2019-05-31T11:04:01Z</time>
      </trkpt>
      <trkpt lat="41.71234" lon="-8.62221">
        <ele>55.89</ele>
        <time>2019-05-31T11:04:15Z</time>
      </trkpt>
      <trkpt lat="41.71258" lon="-8.62214">
        <ele>55.89</ele>
        <time>2019-05-31T11:04:33Z</time>
      </trkpt>
      <trkpt lat="41.71276" lon="-8.6221">
        <ele>56.37</ele>
        <time>2019-05-31T11:04:48Z</time>
      </trkpt>
      <trkpt lat="41.7128" lon="-8.62208">
        <ele>56.37</ele>
        <time>2019-05-31T11:04:52Z</time>
      </trkpt>
      <trkpt lat="41.7129" lon="-8.62201">
        <ele>56.37</ele>
        <time>2019-05-31T11:05:03Z</time>
      </trkpt>
      <trkpt lat="41.71309" lon="-8.62195">
        <ele>56.86</ele>
        <time>2019-05-31T11:05:17Z</time>
      </trkpt>
      <trkpt lat="41.71326" lon="-8.62197">
        <ele>56.86</ele>
        <time>2019-05-31T11:05:30Z</time>
      </trkpt>
      <trkpt lat="41.71339" lon="-8.62203">
        <ele>55.89</ele>
        <time>2019-05-31T11:05:41Z</time>
      </trkpt>
      <trkpt lat="41.71353" lon="-8.62201">
        <ele>56.86</ele>
        <time>2019-05-31T11:05:54Z</time>
      </trkpt>
      <trkpt lat="41.71367" lon="-8.62197">
        <ele>56.37</ele>
        <time>2019-05-31T11:06:07Z</time>
      </trkpt>
      <trkpt lat="41.71386" lon="-8.62194">
        <ele>56.86</ele>
        <time>2019-05-31T11:06:20Z</time>
      </trkpt>
      <trkpt lat="41.71402" lon="-8.62194">
        <ele>57.34</ele>
        <time>2019-05-31T11:06:33Z</time>
      </trkpt>
      <trkpt lat="41.71418" lon="-8.62193">
        <ele>57.34</ele>
        <time>2019-05-31T11:06:46Z</time>
      </trkpt>
      <trkpt lat="41.71435" lon="-8.62188">
        <ele>58.3</ele>
        <time>2019-05-31T11:07:01Z</time>
      </trkpt>
      <trkpt lat="41.71445" lon="-8.62183">
        <ele>58.78</ele>
        <time>2019-05-31T11:07:12Z</time>
      </trkpt>
      <trkpt lat="41.71461" lon="-8.62175">
        <ele>59.26</ele>
        <time>2019-05-31T11:07:26Z</time>
      </trkpt>
      <trkpt lat="41.71477" lon="-8.62166">
        <ele>59.74</ele>
        <time>2019-05-31T11:07:40Z</time>
      </trkpt>
      <trkpt lat="41.71478" lon="-8.62161">
        <ele>60.22</ele>
        <time>2019-05-31T11:07:53Z</time>
      </trkpt>
      <trkpt lat="41.71479" lon="-8.62163">
        <ele>59.26</ele>
        <time>2019-05-31T11:08:09Z</time>
      </trkpt>
      <trkpt lat="41.71477" lon="-8.62165">
        <ele>59.26</ele>
        <time>2019-05-31T11:08:44Z</time>
      </trkpt>
      <trkpt lat="41.7148" lon="-8.62164">
        <ele>59.26</ele>
        <time>2019-05-31T11:09:16Z</time>
      </trkpt>
      <trkpt lat="41.71478" lon="-8.62164">
        <ele>59.26</ele>
        <time>2019-05-31T11:09:55Z</time>
      </trkpt>
      <trkpt lat="41.71477" lon="-8.62163">
        <ele>59.74</ele>
        <time>2019-05-31T11:10:35Z</time>
      </trkpt>
      <trkpt lat="41.71477" lon="-8.62162">
        <ele>59.74</ele>
        <time>2019-05-31T11:11:14Z</time>
      </trkpt>
      <trkpt lat="41.71477" lon="-8.62164">
        <ele>59.74</ele>
        <time>2019-05-31T11:11:57Z</time>
      </trkpt>
      <trkpt lat="41.71475" lon="-8.62163">
        <ele>60.22</ele>
        <time>2019-05-31T11:12:40Z</time>
      </trkpt>
      <trkpt lat="41.71479" lon="-8.62163">
        <ele>59.26</ele>
        <time>2019-05-31T11:13:12Z</time>
      </trkpt>
      <trkpt lat="41.71478" lon="-8.62163">
        <ele>59.26</ele>
        <time>2019-05-31T11:13:40Z</time>
      </trkpt>
      <trkpt lat="41.7148" lon="-8.62162">
        <ele>58.78</ele>
        <time>2019-05-31T11:14:16Z</time>
      </trkpt>
      <trkpt lat="41.7148" lon="-8.62163">
        <ele>59.26</ele>
        <time>2019-05-31T11:14:44Z</time>
      </trkpt>
      <trkpt lat="41.71481" lon="-8.62165">
        <ele>59.74</ele>
        <time>2019-05-31T11:15:17Z</time>
      </trkpt>
      <trkpt lat="41.71477" lon="-8.62163">
        <ele>59.74</ele>
        <time>2019-05-31T11:15:49Z</time>
      </trkpt>
      <trkpt lat="41.71478" lon="-8.62164">
        <ele>59.74</ele>
        <time>2019-05-31T11:16:26Z</time>
      </trkpt>
      <trkpt lat="41.71477" lon="-8.62164">
        <ele>59.74</ele>
        <time>2019-05-31T11:17:06Z</time>
      </trkpt>
      <trkpt lat="41.71478" lon="-8.62164">
        <ele>59.74</ele>
        <time>2019-05-31T11:17:43Z</time>
      </trkpt>
      <trkpt lat="41.71478" lon="-8.62165">
        <ele>59.26</ele>
        <time>2019-05-31T11:18:23Z</time>
      </trkpt>
      <trkpt lat="41.71476" lon="-8.62164">
        <ele>60.22</ele>
        <time>2019-05-31T11:19:01Z</time>
      </trkpt>
      <trkpt lat="41.71476" lon="-8.62163">
        <ele>60.22</ele>
        <time>2019-05-31T11:19:45Z</time>
      </trkpt>
      <trkpt lat="41.71476" lon="-8.62162">
        <ele>59.74</ele>
        <time>2019-05-31T11:20:31Z</time>
      </trkpt>
      <trkpt lat="41.71475" lon="-8.62162">
        <ele>60.22</ele>
        <time>2019-05-31T11:21:09Z</time>
      </trkpt>
      <trkpt lat="41.71477" lon="-8.62165">
        <ele>60.7</ele>
        <time>2019-05-31T11:21:52Z</time>
      </trkpt>
      <trkpt lat="41.7148" lon="-8.62165">
        <ele>59.74</ele>
        <time>2019-05-31T11:22:35Z</time>
      </trkpt>
      <trkpt lat="41.71478" lon="-8.62162">
        <ele>60.22</ele>
        <time>2019-05-31T11:23:13Z</time>
      </trkpt>
      <trkpt lat="41.71477" lon="-8.62164">
        <ele>60.22</ele>
        <time>2019-05-31T11:23:47Z</time>
      </trkpt>
      <trkpt lat="41.71476" lon="-8.62164">
        <ele>60.7</ele>
        <time>2019-05-31T11:24:31Z</time>
      </trkpt>
      <trkpt lat="41.71479" lon="-8.62163">
        <ele>61.18</ele>
        <time>2019-05-31T11:25:05Z</time>
      </trkpt>
      <trkpt lat="41.71479" lon="-8.62163">
        <ele>60.7</ele>
        <time>2019-05-31T11:25:39Z</time>
      </trkpt>
      <trkpt lat="41.7148" lon="-8.62162">
        <ele>61.66</ele>
        <time>2019-05-31T11:25:54Z</time>
      </trkpt>
      <trkpt lat="41.71479" lon="-8.62163">
        <ele>62.14</ele>
        <time>2019-05-31T11:26:10Z</time>
      </trkpt>
      <trkpt lat="41.71479" lon="-8.62161">
        <ele>62.14</ele>
        <time>2019-05-31T11:26:30Z</time>
      </trkpt>
      <trkpt lat="41.71477" lon="-8.62163">
        <ele>62.14</ele>
        <time>2019-05-31T11:26:50Z</time>
      </trkpt>
      <trkpt lat="41.71479" lon="-8.62167">
        <ele>60.7</ele>
        <time>2019-05-31T11:27:03Z</time>
      </trkpt>
      <trkpt lat="41.71485" lon="-8.6216">
        <ele>60.7</ele>
        <time>2019-05-31T11:27:17Z</time>
      </trkpt>
      <trkpt lat="41.71497" lon="-8.62147">
        <ele>60.22</ele>
        <time>2019-05-31T11:27:32Z</time>
      </trkpt>
      <trkpt lat="41.7151" lon="-8.62136">
        <ele>59.74</ele>
        <time>2019-05-31T11:27:48Z</time>
      </trkpt>
      <trkpt lat="41.71511" lon="-8.62136">
        <ele>59.74</ele>
        <time>2019-05-31T11:27:52Z</time>
      </trkpt>
      <trkpt lat="41.71515" lon="-8.62135">
        <ele>59.26</ele>
        <time>2019-05-31T11:27:57Z</time>
      </trkpt>
      <trkpt lat="41.71533" lon="-8.62137">
        <ele>58.3</ele>
        <time>2019-05-31T11:28:14Z</time>
      </trkpt>
      <trkpt lat="41.71539" lon="-8.62136">
        <ele>57.82</ele>
        <time>2019-05-31T11:28:20Z</time>
      </trkpt>
      <trkpt lat="41.7154" lon="-8.62136">
        <ele>57.34</ele>
        <time>2019-05-31T11:28:21Z</time>
      </trkpt>
      <trkpt lat="41.7156" lon="-8.62137">
        <ele>56.37</ele>
        <time>2019-05-31T11:28:38Z</time>
      </trkpt>
      <trkpt lat="41.71579" lon="-8.62133">
        <ele>55.89</ele>
        <time>2019-05-31T11:28:53Z</time>
      </trkpt>
      <trkpt lat="41.71596" lon="-8.62122">
        <ele>54.93</ele>
        <time>2019-05-31T11:29:08Z</time>
      </trkpt>
      <trkpt lat="41.71614" lon="-8.62108">
        <ele>54.45</ele>
        <time>2019-05-31T11:29:25Z</time>
      </trkpt>
      <trkpt lat="41.71632" lon="-8.62094">
        <ele>53.49</ele>
        <time>2019-05-31T11:29:42Z</time>
      </trkpt>
      <trkpt lat="41.7165" lon="-8.62078">
        <ele>53.49</ele>
        <time>2019-05-31T11:30:00Z</time>
      </trkpt>
      <trkpt lat="41.71665" lon="-8.62063">
        <ele>52.05</ele>
        <time>2019-05-31T11:30:15Z</time>
      </trkpt>
      <trkpt lat="41.7168" lon="-8.6205">
        <ele>52.05</ele>
        <time>2019-05-31T11:30:30Z</time>
      </trkpt>
      <trkpt lat="41.71696" lon="-8.6204">
        <ele>51.57</ele>
        <time>2019-05-31T11:30:45Z</time>
      </trkpt>
      <trkpt lat="41.71714" lon="-8.62032">
        <ele>51.09</ele>
        <time>2019-05-31T11:31:01Z</time>
      </trkpt>
      <trkpt lat="41.71725" lon="-8.62028">
        <ele>51.57</ele>
        <time>2019-05-31T11:31:12Z</time>
      </trkpt>
      <trkpt lat="41.71726" lon="-8.62028">
        <ele>51.09</ele>
        <time>2019-05-31T11:31:13Z</time>
      </trkpt>
      <trkpt lat="41.71743" lon="-8.62027">
        <ele>49.65</ele>
        <time>2019-05-31T11:31:26Z</time>
      </trkpt>
      <trkpt lat="41.7176" lon="-8.62032">
        <ele>48.2</ele>
        <time>2019-05-31T11:31:40Z</time>
      </trkpt>
      <trkpt lat="41.7178" lon="-8.6204">
        <ele>45.8</ele>
        <time>2019-05-31T11:31:57Z</time>
      </trkpt>
      <trkpt lat="41.71789" lon="-8.62046">
        <ele>44.84</ele>
        <time>2019-05-31T11:32:05Z</time>
      </trkpt>
      <trkpt lat="41.71791" lon="-8.62047">
        <ele>44.84</ele>
        <time>2019-05-31T11:32:06Z</time>
      </trkpt>
      <trkpt lat="41.71792" lon="-8.62047">
        <ele>44.84</ele>
        <time>2019-05-31T11:32:07Z</time>
      </trkpt>
      <trkpt lat="41.71793" lon="-8.62048">
        <ele>44.84</ele>
        <time>2019-05-31T11:32:08Z</time>
      </trkpt>
      <trkpt lat="41.71797" lon="-8.6205">
        <ele>44.84</ele>
        <time>2019-05-31T11:32:11Z</time>
      </trkpt>
      <trkpt lat="41.71811" lon="-8.62059">
        <ele>44.36</ele>
        <time>2019-05-31T11:32:24Z</time>
      </trkpt>
      <trkpt lat="41.71826" lon="-8.62072">
        <ele>43.88</ele>
        <time>2019-05-31T11:32:39Z</time>
      </trkpt>
      <trkpt lat="41.71828" lon="-8.62071">
        <ele>44.36</ele>
        <time>2019-05-31T11:32:55Z</time>
      </trkpt>
      <trkpt lat="41.71831" lon="-8.62076">
        <ele>44.36</ele>
        <time>2019-05-31T11:33:07Z</time>
      </trkpt>
      <trkpt lat="41.71833" lon="-8.62079">
        <ele>42.92</ele>
        <time>2019-05-31T11:33:10Z</time>
      </trkpt>
      <trkpt lat="41.71848" lon="-8.62094">
        <ele>43.4</ele>
        <time>2019-05-31T11:33:26Z</time>
      </trkpt>
      <trkpt lat="41.71861" lon="-8.62105">
        <ele>43.4</ele>
        <time>2019-05-31T11:33:40Z</time>
      </trkpt>
      <trkpt lat="41.71871" lon="-8.62114">
        <ele>42.92</ele>
        <time>2019-05-31T11:33:52Z</time>
      </trkpt>
      <trkpt lat="41.71886" lon="-8.62127">
        <ele>43.88</ele>
        <time>2019-05-31T11:34:06Z</time>
      </trkpt>
      <trkpt lat="41.71904" lon="-8.62133">
        <ele>43.88</ele>
        <time>2019-05-31T11:34:22Z</time>
      </trkpt>
      <trkpt lat="41.71921" lon="-8.62137">
        <ele>44.36</ele>
        <time>2019-05-31T11:34:37Z</time>
      </trkpt>
      <trkpt lat="41.71941" lon="-8.62141">
        <ele>44.36</ele>
        <time>2019-05-31T11:34:54Z</time>
      </trkpt>
      <trkpt lat="41.71961" lon="-8.62147">
        <ele>44.84</ele>
        <time>2019-05-31T11:35:12Z</time>
      </trkpt>
      <trkpt lat="41.71979" lon="-8.62153">
        <ele>45.32</ele>
        <time>2019-05-31T11:35:28Z</time>
      </trkpt>
      <trkpt lat="41.71983" lon="-8.62154">
        <ele>45.32</ele>
        <time>2019-05-31T11:35:31Z</time>
      </trkpt>
      <trkpt lat="41.71984" lon="-8.62154">
        <ele>45.32</ele>
        <time>2019-05-31T11:35:32Z</time>
      </trkpt>
      <trkpt lat="41.72001" lon="-8.6216">
        <ele>45.8</ele>
        <time>2019-05-31T11:35:46Z</time>
      </trkpt>
      <trkpt lat="41.72018" lon="-8.62165">
        <ele>46.28</ele>
        <time>2019-05-31T11:36:02Z</time>
      </trkpt>
      <trkpt lat="41.72036" lon="-8.62172">
        <ele>46.76</ele>
        <time>2019-05-31T11:36:18Z</time>
      </trkpt>
      <trkpt lat="41.72043" lon="-8.62174">
        <ele>47.24</ele>
        <time>2019-05-31T11:36:24Z</time>
      </trkpt>
      <trkpt lat="41.72047" lon="-8.62175">
        <ele>47.24</ele>
        <time>2019-05-31T11:36:27Z</time>
      </trkpt>
      <trkpt lat="41.72048" lon="-8.62175">
        <ele>47.24</ele>
        <time>2019-05-31T11:36:28Z</time>
      </trkpt>
      <trkpt lat="41.72049" lon="-8.62175">
        <ele>47.24</ele>
        <time>2019-05-31T11:36:29Z</time>
      </trkpt>
      <trkpt lat="41.72053" lon="-8.62177">
        <ele>47.24</ele>
        <time>2019-05-31T11:36:33Z</time>
      </trkpt>
      <trkpt lat="41.72054" lon="-8.62177">
        <ele>47.24</ele>
        <time>2019-05-31T11:36:34Z</time>
      </trkpt>
      <trkpt lat="41.72074" lon="-8.62186">
        <ele>47.24</ele>
        <time>2019-05-31T11:36:51Z</time>
      </trkpt>
      <trkpt lat="41.72091" lon="-8.62195">
        <ele>48.68</ele>
        <time>2019-05-31T11:37:07Z</time>
      </trkpt>
      <trkpt lat="41.72105" lon="-8.62198">
        <ele>48.68</ele>
        <time>2019-05-31T11:37:20Z</time>
      </trkpt>
      <trkpt lat="41.72109" lon="-8.62198">
        <ele>49.16</ele>
        <time>2019-05-31T11:37:23Z</time>
      </trkpt>
      <trkpt lat="41.72123" lon="-8.62194">
        <ele>49.65</ele>
        <time>2019-05-31T11:37:36Z</time>
      </trkpt>
      <trkpt lat="41.72136" lon="-8.62191">
        <ele>51.09</ele>
        <time>2019-05-31T11:37:50Z</time>
      </trkpt>
      <trkpt lat="41.72149" lon="-8.62191">
        <ele>53.01</ele>
        <time>2019-05-31T11:38:05Z</time>
      </trkpt>
      <trkpt lat="41.7216" lon="-8.62188">
        <ele>53.97</ele>
        <time>2019-05-31T11:38:20Z</time>
      </trkpt>
      <trkpt lat="41.72177" lon="-8.62186">
        <ele>54.93</ele>
        <time>2019-05-31T11:38:34Z</time>
      </trkpt>
      <trkpt lat="41.72186" lon="-8.62185">
        <ele>54.93</ele>
        <time>2019-05-31T11:38:44Z</time>
      </trkpt>
      <trkpt lat="41.72192" lon="-8.62184">
        <ele>54.93</ele>
        <time>2019-05-31T11:38:56Z</time>
      </trkpt>
      <trkpt lat="41.72194" lon="-8.62183">
        <ele>55.41</ele>
        <time>2019-05-31T11:38:57Z</time>
      </trkpt>
      <trkpt lat="41.72195" lon="-8.62183">
        <ele>55.41</ele>
        <time>2019-05-31T11:38:58Z</time>
      </trkpt>
      <trkpt lat="41.7221" lon="-8.62176">
        <ele>55.41</ele>
        <time>2019-05-31T11:39:13Z</time>
      </trkpt>
      <trkpt lat="41.72231" lon="-8.62168">
        <ele>55.89</ele>
        <time>2019-05-31T11:39:30Z</time>
      </trkpt>
      <trkpt lat="41.72237" lon="-8.62167">
        <ele>55.89</ele>
        <time>2019-05-31T11:39:42Z</time>
      </trkpt>
      <trkpt lat="41.7225" lon="-8.62158">
        <ele>56.86</ele>
        <time>2019-05-31T11:39:56Z</time>
      </trkpt>
      <trkpt lat="41.72257" lon="-8.62147">
        <ele>56.86</ele>
        <time>2019-05-31T11:40:07Z</time>
      </trkpt>
      <trkpt lat="41.72272" lon="-8.62135">
        <ele>56.37</ele>
        <time>2019-05-31T11:40:19Z</time>
      </trkpt>
      <trkpt lat="41.72284" lon="-8.62123">
        <ele>56.37</ele>
        <time>2019-05-31T11:40:32Z</time>
      </trkpt>
      <trkpt lat="41.72289" lon="-8.62119">
        <ele>56.86</ele>
        <time>2019-05-31T11:40:37Z</time>
      </trkpt>
      <trkpt lat="41.72306" lon="-8.62106">
        <ele>58.3</ele>
        <time>2019-05-31T11:40:53Z</time>
      </trkpt>
      <trkpt lat="41.72315" lon="-8.62103">
        <ele>57.82</ele>
        <time>2019-05-31T11:41:06Z</time>
      </trkpt>
      <trkpt lat="41.72317" lon="-8.62102">
        <ele>58.3</ele>
        <time>2019-05-31T11:41:31Z</time>
      </trkpt>
      <trkpt lat="41.72314" lon="-8.62107">
        <ele>58.3</ele>
        <time>2019-05-31T11:41:51Z</time>
      </trkpt>
      <trkpt lat="41.72314" lon="-8.62107">
        <ele>57.34</ele>
        <time>2019-05-31T11:42:13Z</time>
      </trkpt>
      <trkpt lat="41.72315" lon="-8.6211">
        <ele>58.3</ele>
        <time>2019-05-31T11:42:36Z</time>
      </trkpt>
      <trkpt lat="41.72315" lon="-8.62111">
        <ele>57.82</ele>
        <time>2019-05-31T11:43:07Z</time>
      </trkpt>
      <trkpt lat="41.72315" lon="-8.62112">
        <ele>57.82</ele>
        <time>2019-05-31T11:43:27Z</time>
      </trkpt>
      <trkpt lat="41.72315" lon="-8.6211">
        <ele>58.3</ele>
        <time>2019-05-31T11:43:51Z</time>
      </trkpt>
      <trkpt lat="41.72313" lon="-8.62108">
        <ele>58.3</ele>
        <time>2019-05-31T11:44:13Z</time>
      </trkpt>
      <trkpt lat="41.72316" lon="-8.62106">
        <ele>57.34</ele>
        <time>2019-05-31T11:44:32Z</time>
      </trkpt>
      <trkpt lat="41.72315" lon="-8.62105">
        <ele>58.3</ele>
        <time>2019-05-31T11:44:57Z</time>
      </trkpt>
      <trkpt lat="41.72316" lon="-8.62105">
        <ele>57.82</ele>
        <time>2019-05-31T11:45:19Z</time>
      </trkpt>
      <trkpt lat="41.72316" lon="-8.62105">
        <ele>58.3</ele>
        <time>2019-05-31T11:45:57Z</time>
      </trkpt>
      <trkpt lat="41.72317" lon="-8.62104">
        <ele>58.3</ele>
        <time>2019-05-31T11:46:20Z</time>
      </trkpt>
      <trkpt lat="41.72318" lon="-8.62106">
        <ele>61.66</ele>
        <time>2019-05-31T11:46:48Z</time>
      </trkpt>
      <trkpt lat="41.72318" lon="-8.62105">
        <ele>58.3</ele>
        <time>2019-05-31T11:46:50Z</time>
      </trkpt>
      <trkpt lat="41.72317" lon="-8.62106">
        <ele>58.3</ele>
        <time>2019-05-31T11:47:15Z</time>
      </trkpt>
      <trkpt lat="41.72316" lon="-8.62104">
        <ele>58.78</ele>
        <time>2019-05-31T11:47:38Z</time>
      </trkpt>
      <trkpt lat="41.72316" lon="-8.62099">
        <ele>58.78</ele>
        <time>2019-05-31T11:48:07Z</time>
      </trkpt>
      <trkpt lat="41.72318" lon="-8.62096">
        <ele>58.3</ele>
        <time>2019-05-31T11:48:26Z</time>
      </trkpt>
      <trkpt lat="41.7232" lon="-8.62098">
        <ele>58.3</ele>
        <time>2019-05-31T11:48:40Z</time>
      </trkpt>
      <trkpt lat="41.72333" lon="-8.62095">
        <ele>58.3</ele>
        <time>2019-05-31T11:48:53Z</time>
      </trkpt>
      <trkpt lat="41.72335" lon="-8.62096">
        <ele>57.82</ele>
        <time>2019-05-31T11:48:54Z</time>
      </trkpt>
      <trkpt lat="41.72353" lon="-8.62098">
        <ele>58.3</ele>
        <time>2019-05-31T11:49:09Z</time>
      </trkpt>
      <trkpt lat="41.72374" lon="-8.62098">
        <ele>58.78</ele>
        <time>2019-05-31T11:49:26Z</time>
      </trkpt>
      <trkpt lat="41.72392" lon="-8.62099">
        <ele>58.78</ele>
        <time>2019-05-31T11:49:40Z</time>
      </trkpt>
      <trkpt lat="41.72395" lon="-8.62099">
        <ele>58.3</ele>
        <time>2019-05-31T11:49:43Z</time>
      </trkpt>
      <trkpt lat="41.72413" lon="-8.62105">
        <ele>58.78</ele>
        <time>2019-05-31T11:49:58Z</time>
      </trkpt>
      <trkpt lat="41.7243" lon="-8.62112">
        <ele>58.3</ele>
        <time>2019-05-31T11:50:13Z</time>
      </trkpt>
      <trkpt lat="41.72437" lon="-8.62118">
        <ele>58.3</ele>
        <time>2019-05-31T11:50:28Z</time>
      </trkpt>
      <trkpt lat="41.72442" lon="-8.6212">
        <ele>58.78</ele>
        <time>2019-05-31T11:50:54Z</time>
      </trkpt>
      <trkpt lat="41.72441" lon="-8.62118">
        <ele>58.3</ele>
        <time>2019-05-31T11:51:19Z</time>
      </trkpt>
      <trkpt lat="41.7244" lon="-8.62119">
        <ele>58.78</ele>
        <time>2019-05-31T11:51:40Z</time>
      </trkpt>
      <trkpt lat="41.72441" lon="-8.62118">
        <ele>58.3</ele>
        <time>2019-05-31T11:51:57Z</time>
      </trkpt>
      <trkpt lat="41.72445" lon="-8.62119">
        <ele>58.78</ele>
        <time>2019-05-31T11:52:04Z</time>
      </trkpt>
      <trkpt lat="41.72447" lon="-8.62121">
        <ele>57.82</ele>
        <time>2019-05-31T11:52:07Z</time>
      </trkpt>
      <trkpt lat="41.72466" lon="-8.62126">
        <ele>56.37</ele>
        <time>2019-05-31T11:52:23Z</time>
      </trkpt>
      <trkpt lat="41.72477" lon="-8.62128">
        <ele>56.86</ele>
        <time>2019-05-31T11:52:34Z</time>
      </trkpt>
      <trkpt lat="41.72479" lon="-8.62129">
        <ele>56.37</ele>
        <time>2019-05-31T11:52:35Z</time>
      </trkpt>
      <trkpt lat="41.72481" lon="-8.62129">
        <ele>55.89</ele>
        <time>2019-05-31T11:52:36Z</time>
      </trkpt>
      <trkpt lat="41.72494" lon="-8.6213">
        <ele>55.41</ele>
        <time>2019-05-31T11:52:49Z</time>
      </trkpt>
      <trkpt lat="41.72497" lon="-8.6213">
        <ele>55.41</ele>
        <time>2019-05-31T11:52:52Z</time>
      </trkpt>
      <trkpt lat="41.72499" lon="-8.62129">
        <ele>55.41</ele>
        <time>2019-05-31T11:52:53Z</time>
      </trkpt>
      <trkpt lat="41.72517" lon="-8.62131">
        <ele>54.45</ele>
        <time>2019-05-31T11:53:08Z</time>
      </trkpt>
      <trkpt lat="41.72538" lon="-8.62134">
        <ele>53.97</ele>
        <time>2019-05-31T11:53:24Z</time>
      </trkpt>
      <trkpt lat="41.72557" lon="-8.6213">
        <ele>53.49</ele>
        <time>2019-05-31T11:53:39Z</time>
      </trkpt>
      <trkpt lat="41.72567" lon="-8.62125">
        <ele>53.49</ele>
        <time>2019-05-31T11:53:49Z</time>
      </trkpt>
      <trkpt lat="41.72569" lon="-8.62125">
        <ele>53.97</ele>
        <time>2019-05-31T11:53:50Z</time>
      </trkpt>
      <trkpt lat="41.72571" lon="-8.62124">
        <ele>53.49</ele>
        <time>2019-05-31T11:53:51Z</time>
      </trkpt>
      <trkpt lat="41.72572" lon="-8.62123">
        <ele>53.49</ele>
        <time>2019-05-31T11:53:52Z</time>
      </trkpt>
      <trkpt lat="41.72573" lon="-8.62123">
        <ele>53.49</ele>
        <time>2019-05-31T11:53:53Z</time>
      </trkpt>
      <trkpt lat="41.72583" lon="-8.62123">
        <ele>53.49</ele>
        <time>2019-05-31T11:54:06Z</time>
      </trkpt>
      <trkpt lat="41.726" lon="-8.62123">
        <ele>53.49</ele>
        <time>2019-05-31T11:54:22Z</time>
      </trkpt>
      <trkpt lat="41.72609" lon="-8.62124">
        <ele>53.49</ele>
        <time>2019-05-31T11:54:36Z</time>
      </trkpt>
      <trkpt lat="41.72624" lon="-8.6213">
        <ele>53.01</ele>
        <time>2019-05-31T11:54:52Z</time>
      </trkpt>
      <trkpt lat="41.72644" lon="-8.6214">
        <ele>53.01</ele>
        <time>2019-05-31T11:55:07Z</time>
      </trkpt>
      <trkpt lat="41.72661" lon="-8.62147">
        <ele>53.01</ele>
        <time>2019-05-31T11:55:21Z</time>
      </trkpt>
      <trkpt lat="41.7268" lon="-8.62157">
        <ele>53.01</ele>
        <time>2019-05-31T11:55:38Z</time>
      </trkpt>
      <trkpt lat="41.72693" lon="-8.62166">
        <ele>53.01</ele>
        <time>2019-05-31T11:55:52Z</time>
      </trkpt>
      <trkpt lat="41.72714" lon="-8.62178">
        <ele>53.01</ele>
        <time>2019-05-31T11:56:08Z</time>
      </trkpt>
      <trkpt lat="41.72722" lon="-8.62186">
        <ele>53.01</ele>
        <time>2019-05-31T11:56:16Z</time>
      </trkpt>
      <trkpt lat="41.72723" lon="-8.62187">
        <ele>53.49</ele>
        <time>2019-05-31T11:56:17Z</time>
      </trkpt>
      <trkpt lat="41.72727" lon="-8.62191">
        <ele>53.49</ele>
        <time>2019-05-31T11:56:21Z</time>
      </trkpt>
      <trkpt lat="41.7274" lon="-8.622">
        <ele>53.97</ele>
        <time>2019-05-31T11:56:35Z</time>
      </trkpt>
      <trkpt lat="41.72752" lon="-8.62204">
        <ele>53.01</ele>
        <time>2019-05-31T11:56:46Z</time>
      </trkpt>
      <trkpt lat="41.72761" lon="-8.62216">
        <ele>54.45</ele>
        <time>2019-05-31T11:56:59Z</time>
      </trkpt>
      <trkpt lat="41.72777" lon="-8.6223">
        <ele>53.97</ele>
        <time>2019-05-31T11:57:15Z</time>
      </trkpt>
      <trkpt lat="41.72792" lon="-8.62247">
        <ele>54.93</ele>
        <time>2019-05-31T11:57:30Z</time>
      </trkpt>
      <trkpt lat="41.72807" lon="-8.62264">
        <ele>54.45</ele>
        <time>2019-05-31T11:57:46Z</time>
      </trkpt>
      <trkpt lat="41.72822" lon="-8.62282">
        <ele>54.45</ele>
        <time>2019-05-31T11:58:02Z</time>
      </trkpt>
      <trkpt lat="41.72826" lon="-8.6229">
        <ele>54.45</ele>
        <time>2019-05-31T11:58:08Z</time>
      </trkpt>
      <trkpt lat="41.72837" lon="-8.62309">
        <ele>53.01</ele>
        <time>2019-05-31T11:58:24Z</time>
      </trkpt>
      <trkpt lat="41.72849" lon="-8.62337">
        <ele>52.05</ele>
        <time>2019-05-31T11:58:42Z</time>
      </trkpt>
      <trkpt lat="41.72856" lon="-8.62352">
        <ele>51.09</ele>
        <time>2019-05-31T11:58:51Z</time>
      </trkpt>
      <trkpt lat="41.72866" lon="-8.62368">
        <ele>51.09</ele>
        <time>2019-05-31T11:59:05Z</time>
      </trkpt>
      <trkpt lat="41.72868" lon="-8.62368">
        <ele>50.61</ele>
        <time>2019-05-31T11:59:06Z</time>
      </trkpt>
      <trkpt lat="41.72883" lon="-8.62379">
        <ele>49.65</ele>
        <time>2019-05-31T11:59:19Z</time>
      </trkpt>
      <trkpt lat="41.72886" lon="-8.6238">
        <ele>49.16</ele>
        <time>2019-05-31T11:59:22Z</time>
      </trkpt>
      <trkpt lat="41.7289" lon="-8.62382">
        <ele>49.16</ele>
        <time>2019-05-31T11:59:25Z</time>
      </trkpt>
      <trkpt lat="41.72891" lon="-8.62382">
        <ele>49.16</ele>
        <time>2019-05-31T11:59:26Z</time>
      </trkpt>
      <trkpt lat="41.72892" lon="-8.62383">
        <ele>49.65</ele>
        <time>2019-05-31T11:59:27Z</time>
      </trkpt>
      <trkpt lat="41.72893" lon="-8.62383">
        <ele>49.16</ele>
        <time>2019-05-31T11:59:28Z</time>
      </trkpt>
      <trkpt lat="41.72895" lon="-8.62381">
        <ele>49.65</ele>
        <time>2019-05-31T11:59:45Z</time>
      </trkpt>
      <trkpt lat="41.72908" lon="-8.62384">
        <ele>48.68</ele>
        <time>2019-05-31T11:59:58Z</time>
      </trkpt>
      <trkpt lat="41.72928" lon="-8.62388">
        <ele>48.68</ele>
        <time>2019-05-31T12:00:14Z</time>
      </trkpt>
      <trkpt lat="41.72938" lon="-8.62392">
        <ele>48.68</ele>
        <time>2019-05-31T12:00:21Z</time>
      </trkpt>
      <trkpt lat="41.7294" lon="-8.62392">
        <ele>48.68</ele>
        <time>2019-05-31T12:00:22Z</time>
      </trkpt>
      <trkpt lat="41.72954" lon="-8.62389">
        <ele>47.72</ele>
        <time>2019-05-31T12:00:36Z</time>
      </trkpt>
      <trkpt lat="41.72973" lon="-8.62389">
        <ele>47.24</ele>
        <time>2019-05-31T12:00:53Z</time>
      </trkpt>
      <trkpt lat="41.72991" lon="-8.62388">
        <ele>46.28</ele>
        <time>2019-05-31T12:01:09Z</time>
      </trkpt>
      <trkpt lat="41.73011" lon="-8.62389">
        <ele>45.8</ele>
        <time>2019-05-31T12:01:23Z</time>
      </trkpt>
      <trkpt lat="41.73029" lon="-8.6239">
        <ele>43.88</ele>
        <time>2019-05-31T12:01:36Z</time>
      </trkpt>
      <trkpt lat="41.73049" lon="-8.62397">
        <ele>43.4</ele>
        <time>2019-05-31T12:01:50Z</time>
      </trkpt>
      <trkpt lat="41.73057" lon="-8.62403">
        <ele>42.92</ele>
        <time>2019-05-31T12:01:56Z</time>
      </trkpt>
      <trkpt lat="41.73071" lon="-8.62419">
        <ele>41.95</ele>
        <time>2019-05-31T12:02:11Z</time>
      </trkpt>
      <trkpt lat="41.73083" lon="-8.62428">
        <ele>40.03</ele>
        <time>2019-05-31T12:02:23Z</time>
      </trkpt>
      <trkpt lat="41.73084" lon="-8.62428">
        <ele>39.55</ele>
        <time>2019-05-31T12:02:24Z</time>
      </trkpt>
      <trkpt lat="41.731" lon="-8.6244">
        <ele>38.59</ele>
        <time>2019-05-31T12:02:37Z</time>
      </trkpt>
      <trkpt lat="41.73119" lon="-8.62444">
        <ele>35.71</ele>
        <time>2019-05-31T12:02:54Z</time>
      </trkpt>
      <trkpt lat="41.73138" lon="-8.62448">
        <ele>33.3</ele>
        <time>2019-05-31T12:03:10Z</time>
      </trkpt>
      <trkpt lat="41.73155" lon="-8.62436">
        <ele>32.34</ele>
        <time>2019-05-31T12:03:26Z</time>
      </trkpt>
      <trkpt lat="41.73173" lon="-8.62419">
        <ele>32.34</ele>
        <time>2019-05-31T12:03:43Z</time>
      </trkpt>
      <trkpt lat="41.73188" lon="-8.62409">
        <ele>32.34</ele>
        <time>2019-05-31T12:03:56Z</time>
      </trkpt>
      <trkpt lat="41.7319" lon="-8.6241">
        <ele>32.34</ele>
        <time>2019-05-31T12:03:57Z</time>
      </trkpt>
      <trkpt lat="41.73192" lon="-8.6241">
        <ele>32.34</ele>
        <time>2019-05-31T12:03:58Z</time>
      </trkpt>
      <trkpt lat="41.73194" lon="-8.6241">
        <ele>32.82</ele>
        <time>2019-05-31T12:03:59Z</time>
      </trkpt>
      <trkpt lat="41.73196" lon="-8.6241">
        <ele>31.86</ele>
        <time>2019-05-31T12:04:00Z</time>
      </trkpt>
      <trkpt lat="41.73197" lon="-8.6241">
        <ele>32.34</ele>
        <time>2019-05-31T12:04:01Z</time>
      </trkpt>
      <trkpt lat="41.73211" lon="-8.62397">
        <ele>31.86</ele>
        <time>2019-05-31T12:04:15Z</time>
      </trkpt>
      <trkpt lat="41.7321" lon="-8.62399">
        <ele>32.34</ele>
        <time>2019-05-31T12:04:24Z</time>
      </trkpt>
      <trkpt lat="41.73209" lon="-8.624">
        <ele>31.86</ele>
        <time>2019-05-31T12:04:25Z</time>
      </trkpt>
      <trkpt lat="41.73198" lon="-8.62413">
        <ele>31.86</ele>
        <time>2019-05-31T12:04:40Z</time>
      </trkpt>
      <trkpt lat="41.73198" lon="-8.62422">
        <ele>31.86</ele>
        <time>2019-05-31T12:04:54Z</time>
      </trkpt>
      <trkpt lat="41.732" lon="-8.62427">
        <ele>32.34</ele>
        <time>2019-05-31T12:05:04Z</time>
      </trkpt>
      <trkpt lat="41.732" lon="-8.62429">
        <ele>32.34</ele>
        <time>2019-05-31T12:05:05Z</time>
      </trkpt>
      <trkpt lat="41.73199" lon="-8.62428">
        <ele>31.86</ele>
        <time>2019-05-31T12:05:19Z</time>
      </trkpt>
      <trkpt lat="41.73196" lon="-8.6243">
        <ele>31.38</ele>
        <time>2019-05-31T12:05:36Z</time>
      </trkpt>
      <trkpt lat="41.73198" lon="-8.62424">
        <ele>31.86</ele>
        <time>2019-05-31T12:05:59Z</time>
      </trkpt>
      <trkpt lat="41.732" lon="-8.62423">
        <ele>31.86</ele>
        <time>2019-05-31T12:06:01Z</time>
      </trkpt>
      <trkpt lat="41.73215" lon="-8.62421">
        <ele>31.38</ele>
        <time>2019-05-31T12:06:26Z</time>
      </trkpt>
      <trkpt lat="41.73209" lon="-8.62427">
        <ele>31.38</ele>
        <time>2019-05-31T12:06:47Z</time>
      </trkpt>
      <trkpt lat="41.73208" lon="-8.62428">
        <ele>31.86</ele>
        <time>2019-05-31T12:06:48Z</time>
      </trkpt>
      <trkpt lat="41.73211" lon="-8.62428">
        <ele>30.9</ele>
        <time>2019-05-31T12:07:12Z</time>
      </trkpt>
      <trkpt lat="41.73201" lon="-8.62432">
        <ele>31.86</ele>
        <time>2019-05-31T12:07:40Z</time>
      </trkpt>
      <trkpt lat="41.73197" lon="-8.62435">
        <ele>31.86</ele>
        <time>2019-05-31T12:08:11Z</time>
      </trkpt>
      <trkpt lat="41.73198" lon="-8.62436">
        <ele>31.38</ele>
        <time>2019-05-31T12:08:52Z</time>
      </trkpt>
      <trkpt lat="41.73193" lon="-8.62426">
        <ele>31.38</ele>
        <time>2019-05-31T12:09:22Z</time>
      </trkpt>
      <trkpt lat="41.73186" lon="-8.62421">
        <ele>31.38</ele>
        <time>2019-05-31T12:09:49Z</time>
      </trkpt>
      <trkpt lat="41.7318" lon="-8.62419">
        <ele>31.38</ele>
        <time>2019-05-31T12:10:13Z</time>
      </trkpt>
      <trkpt lat="41.732" lon="-8.62427">
        <ele>31.38</ele>
        <time>2019-05-31T12:10:41Z</time>
      </trkpt>
      <trkpt lat="41.73205" lon="-8.62401">
        <ele>31.38</ele>
        <time>2019-05-31T12:11:07Z</time>
      </trkpt>
      <trkpt lat="41.73207" lon="-8.62408">
        <ele>30.9</ele>
        <time>2019-05-31T12:11:34Z</time>
      </trkpt>
      <trkpt lat="41.73195" lon="-8.62425">
        <ele>31.38</ele>
        <time>2019-05-31T12:11:56Z</time>
      </trkpt>
      <trkpt lat="41.73199" lon="-8.62434">
        <ele>31.38</ele>
        <time>2019-05-31T12:12:02Z</time>
      </trkpt>
      <trkpt lat="41.73207" lon="-8.62434">
        <ele>31.86</ele>
        <time>2019-05-31T12:12:29Z</time>
      </trkpt>
      <trkpt lat="41.73192" lon="-8.62418">
        <ele>31.86</ele>
        <time>2019-05-31T12:12:55Z</time>
      </trkpt>
      <trkpt lat="41.73206" lon="-8.62421">
        <ele>31.38</ele>
        <time>2019-05-31T12:13:24Z</time>
      </trkpt>
      <trkpt lat="41.73207" lon="-8.6242">
        <ele>32.34</ele>
        <time>2019-05-31T12:13:53Z</time>
      </trkpt>
      <trkpt lat="41.73208" lon="-8.62425">
        <ele>32.34</ele>
        <time>2019-05-31T12:14:17Z</time>
      </trkpt>
      <trkpt lat="41.73207" lon="-8.62424">
        <ele>32.34</ele>
        <time>2019-05-31T12:14:25Z</time>
      </trkpt>
      <trkpt lat="41.73205" lon="-8.62424">
        <ele>32.34</ele>
        <time>2019-05-31T12:14:26Z</time>
      </trkpt>
      <trkpt lat="41.73184" lon="-8.62425">
        <ele>32.82</ele>
        <time>2019-05-31T12:14:41Z</time>
      </trkpt>
      <trkpt lat="41.73182" lon="-8.62423">
        <ele>32.82</ele>
        <time>2019-05-31T12:14:59Z</time>
      </trkpt>
      <trkpt lat="41.73133" lon="-8.62409">
        <ele>33.3</ele>
        <time>2019-05-31T12:15:13Z</time>
      </trkpt>
      <trkpt lat="41.73088" lon="-8.62393">
        <ele>32.82</ele>
        <time>2019-05-31T12:15:35Z</time>
      </trkpt>
      <trkpt lat="41.73063" lon="-8.62376">
        <ele>32.82</ele>
        <time>2019-05-31T12:15:54Z</time>
      </trkpt>
      <trkpt lat="41.73193" lon="-8.62411">
        <ele>33.78</ele>
        <time>2019-05-31T12:16:12Z</time>
      </trkpt>
      <trkpt lat="41.73194" lon="-8.62408">
        <ele>34.26</ele>
        <time>2019-05-31T12:16:34Z</time>
      </trkpt>
      <trkpt lat="41.73198" lon="-8.62411">
        <ele>34.26</ele>
        <time>2019-05-31T12:16:46Z</time>
      </trkpt>
      <trkpt lat="41.73198" lon="-8.62408">
        <ele>33.78</ele>
        <time>2019-05-31T12:16:59Z</time>
      </trkpt>
      <trkpt lat="41.73199" lon="-8.62408">
        <ele>33.78</ele>
        <time>2019-05-31T12:17:00Z</time>
      </trkpt>
      <trkpt lat="41.732" lon="-8.62407">
        <ele>33.78</ele>
        <time>2019-05-31T12:17:01Z</time>
      </trkpt>
      <trkpt lat="41.73201" lon="-8.62406">
        <ele>33.78</ele>
        <time>2019-05-31T12:17:02Z</time>
      </trkpt>
      <trkpt lat="41.73202" lon="-8.62405">
        <ele>33.78</ele>
        <time>2019-05-31T12:17:03Z</time>
      </trkpt>
      <trkpt lat="41.73203" lon="-8.62405">
        <ele>33.78</ele>
        <time>2019-05-31T12:17:04Z</time>
      </trkpt>
      <trkpt lat="41.73219" lon="-8.62394">
        <ele>33.78</ele>
        <time>2019-05-31T12:17:21Z</time>
      </trkpt>
      <trkpt lat="41.7322" lon="-8.62393">
        <ele>34.26</ele>
        <time>2019-05-31T12:17:22Z</time>
      </trkpt>
      <trkpt lat="41.73234" lon="-8.6238">
        <ele>34.26</ele>
        <time>2019-05-31T12:17:38Z</time>
      </trkpt>
      <trkpt lat="41.73247" lon="-8.62369">
        <ele>34.26</ele>
        <time>2019-05-31T12:17:52Z</time>
      </trkpt>
      <trkpt lat="41.73252" lon="-8.62365">
        <ele>34.26</ele>
        <time>2019-05-31T12:17:57Z</time>
      </trkpt>
      <trkpt lat="41.73266" lon="-8.62354">
        <ele>33.78</ele>
        <time>2019-05-31T12:18:12Z</time>
      </trkpt>
      <trkpt lat="41.73271" lon="-8.62352">
        <ele>33.78</ele>
        <time>2019-05-31T12:18:16Z</time>
      </trkpt>
      <trkpt lat="41.73287" lon="-8.62337">
        <ele>33.78</ele>
        <time>2019-05-31T12:18:32Z</time>
      </trkpt>
      <trkpt lat="41.73309" lon="-8.62327">
        <ele>33.3</ele>
        <time>2019-05-31T12:18:51Z</time>
      </trkpt>
      <trkpt lat="41.73322" lon="-8.62329">
        <ele>32.34</ele>
        <time>2019-05-31T12:19:05Z</time>
      </trkpt>
      <trkpt lat="41.73337" lon="-8.62335">
        <ele>30.42</ele>
        <time>2019-05-31T12:19:19Z</time>
      </trkpt>
      <trkpt lat="41.73346" lon="-8.62339">
        <ele>30.42</ele>
        <time>2019-05-31T12:19:26Z</time>
      </trkpt>
      <trkpt lat="41.73359" lon="-8.62342">
        <ele>30.42</ele>
        <time>2019-05-31T12:19:38Z</time>
      </trkpt>
      <trkpt lat="41.73365" lon="-8.62341">
        <ele>29.94</ele>
        <time>2019-05-31T12:19:43Z</time>
      </trkpt>
      <trkpt lat="41.73378" lon="-8.62339">
        <ele>28.98</ele>
        <time>2019-05-31T12:19:58Z</time>
      </trkpt>
      <trkpt lat="41.73381" lon="-8.62339">
        <ele>29.46</ele>
        <time>2019-05-31T12:20:14Z</time>
      </trkpt>
      <trkpt lat="41.734" lon="-8.62333">
        <ele>28.5</ele>
        <time>2019-05-31T12:20:31Z</time>
      </trkpt>
      <trkpt lat="41.7342" lon="-8.62325">
        <ele>28.02</ele>
        <time>2019-05-31T12:20:48Z</time>
      </trkpt>
      <trkpt lat="41.73425" lon="-8.62324">
        <ele>28.02</ele>
        <time>2019-05-31T12:20:53Z</time>
      </trkpt>
      <trkpt lat="41.73448" lon="-8.62318">
        <ele>28.02</ele>
        <time>2019-05-31T12:21:11Z</time>
      </trkpt>
      <trkpt lat="41.73454" lon="-8.62313">
        <ele>28.02</ele>
        <time>2019-05-31T12:21:21Z</time>
      </trkpt>
      <trkpt lat="41.73468" lon="-8.62307">
        <ele>28.5</ele>
        <time>2019-05-31T12:21:35Z</time>
      </trkpt>
      <trkpt lat="41.73472" lon="-8.62306">
        <ele>28.02</ele>
        <time>2019-05-31T12:21:39Z</time>
      </trkpt>
      <trkpt lat="41.7348" lon="-8.62302">
        <ele>28.02</ele>
        <time>2019-05-31T12:21:47Z</time>
      </trkpt>
      <trkpt lat="41.73498" lon="-8.62293">
        <ele>28.02</ele>
        <time>2019-05-31T12:22:03Z</time>
      </trkpt>
      <trkpt lat="41.73518" lon="-8.62287">
        <ele>28.5</ele>
        <time>2019-05-31T12:22:20Z</time>
      </trkpt>
      <trkpt lat="41.73529" lon="-8.62284">
        <ele>28.5</ele>
        <time>2019-05-31T12:22:28Z</time>
      </trkpt>
      <trkpt lat="41.73547" lon="-8.6228">
        <ele>28.02</ele>
        <time>2019-05-31T12:22:43Z</time>
      </trkpt>
      <trkpt lat="41.73558" lon="-8.6228">
        <ele>28.02</ele>
        <time>2019-05-31T12:22:52Z</time>
      </trkpt>
      <trkpt lat="41.7358" lon="-8.62286">
        <ele>28.02</ele>
        <time>2019-05-31T12:23:10Z</time>
      </trkpt>
      <trkpt lat="41.73598" lon="-8.62293">
        <ele>28.98</ele>
        <time>2019-05-31T12:23:27Z</time>
      </trkpt>
      <trkpt lat="41.73601" lon="-8.62295">
        <ele>28.5</ele>
        <time>2019-05-31T12:23:30Z</time>
      </trkpt>
      <trkpt lat="41.73617" lon="-8.62301">
        <ele>28.5</ele>
        <time>2019-05-31T12:23:44Z</time>
      </trkpt>
      <trkpt lat="41.73635" lon="-8.62306">
        <ele>28.5</ele>
        <time>2019-05-31T12:23:59Z</time>
      </trkpt>
      <trkpt lat="41.73652" lon="-8.62309">
        <ele>29.46</ele>
        <time>2019-05-31T12:24:13Z</time>
      </trkpt>
      <trkpt lat="41.73672" lon="-8.62317">
        <ele>29.94</ele>
        <time>2019-05-31T12:24:31Z</time>
      </trkpt>
      <trkpt lat="41.7369" lon="-8.62321">
        <ele>29.94</ele>
        <time>2019-05-31T12:24:46Z</time>
      </trkpt>
      <trkpt lat="41.73708" lon="-8.62325">
        <ele>30.42</ele>
        <time>2019-05-31T12:24:59Z</time>
      </trkpt>
      <trkpt lat="41.73726" lon="-8.62328">
        <ele>30.9</ele>
        <time>2019-05-31T12:25:13Z</time>
      </trkpt>
      <trkpt lat="41.73745" lon="-8.62334">
        <ele>30.42</ele>
        <time>2019-05-31T12:25:29Z</time>
      </trkpt>
      <trkpt lat="41.73754" lon="-8.62337">
        <ele>29.94</ele>
        <time>2019-05-31T12:25:42Z</time>
      </trkpt>
      <trkpt lat="41.73758" lon="-8.62343">
        <ele>29.46</ele>
        <time>2019-05-31T12:25:58Z</time>
      </trkpt>
      <trkpt lat="41.73765" lon="-8.62347">
        <ele>28.5</ele>
        <time>2019-05-31T12:26:19Z</time>
      </trkpt>
      <trkpt lat="41.73784" lon="-8.62352">
        <ele>28.02</ele>
        <time>2019-05-31T12:26:35Z</time>
      </trkpt>
      <trkpt lat="41.73801" lon="-8.62357">
        <ele>26.09</ele>
        <time>2019-05-31T12:26:48Z</time>
      </trkpt>
      <trkpt lat="41.73804" lon="-8.62359">
        <ele>26.09</ele>
        <time>2019-05-31T12:27:07Z</time>
      </trkpt>
      <trkpt lat="41.73809" lon="-8.62363">
        <ele>25.61</ele>
        <time>2019-05-31T12:27:28Z</time>
      </trkpt>
      <trkpt lat="41.73823" lon="-8.62367">
        <ele>24.17</ele>
        <time>2019-05-31T12:27:43Z</time>
      </trkpt>
      <trkpt lat="41.73837" lon="-8.62369">
        <ele>23.69</ele>
        <time>2019-05-31T12:27:55Z</time>
      </trkpt>
      <trkpt lat="41.7386" lon="-8.62371">
        <ele>22.73</ele>
        <time>2019-05-31T12:28:10Z</time>
      </trkpt>
      <trkpt lat="41.73863" lon="-8.62372">
        <ele>22.73</ele>
        <time>2019-05-31T12:28:13Z</time>
      </trkpt>
      <trkpt lat="41.73882" lon="-8.62367">
        <ele>21.77</ele>
        <time>2019-05-31T12:28:29Z</time>
      </trkpt>
      <trkpt lat="41.739" lon="-8.62359">
        <ele>21.29</ele>
        <time>2019-05-31T12:28:43Z</time>
      </trkpt>
      <trkpt lat="41.73921" lon="-8.62354">
        <ele>20.81</ele>
        <time>2019-05-31T12:28:58Z</time>
      </trkpt>
      <trkpt lat="41.73942" lon="-8.62343">
        <ele>20.32</ele>
        <time>2019-05-31T12:29:16Z</time>
      </trkpt>
      <trkpt lat="41.73957" lon="-8.62328">
        <ele>19.36</ele>
        <time>2019-05-31T12:29:31Z</time>
      </trkpt>
      <trkpt lat="41.73971" lon="-8.62314">
        <ele>18.88</ele>
        <time>2019-05-31T12:29:45Z</time>
      </trkpt>
      <trkpt lat="41.73982" lon="-8.62296">
        <ele>18.88</ele>
        <time>2019-05-31T12:29:59Z</time>
      </trkpt>
      <trkpt lat="41.73993" lon="-8.62273">
        <ele>17.92</ele>
        <time>2019-05-31T12:30:15Z</time>
      </trkpt>
      <trkpt lat="41.74008" lon="-8.62253">
        <ele>18.88</ele>
        <time>2019-05-31T12:30:31Z</time>
      </trkpt>
      <trkpt lat="41.74022" lon="-8.62237">
        <ele>18.4</ele>
        <time>2019-05-31T12:30:46Z</time>
      </trkpt>
      <trkpt lat="41.74039" lon="-8.6222">
        <ele>18.4</ele>
        <time>2019-05-31T12:31:02Z</time>
      </trkpt>
      <trkpt lat="41.74051" lon="-8.62207">
        <ele>18.4</ele>
        <time>2019-05-31T12:31:15Z</time>
      </trkpt>
      <trkpt lat="41.74068" lon="-8.62192">
        <ele>17.92</ele>
        <time>2019-05-31T12:31:31Z</time>
      </trkpt>
      <trkpt lat="41.74083" lon="-8.62179">
        <ele>17.44</ele>
        <time>2019-05-31T12:31:46Z</time>
      </trkpt>
      <trkpt lat="41.74093" lon="-8.6217">
        <ele>17.92</ele>
        <time>2019-05-31T12:31:57Z</time>
      </trkpt>
      <trkpt lat="41.74098" lon="-8.62167">
        <ele>17.44</ele>
        <time>2019-05-31T12:32:07Z</time>
      </trkpt>
      <trkpt lat="41.74112" lon="-8.6215">
        <ele>16.96</ele>
        <time>2019-05-31T12:32:22Z</time>
      </trkpt>
      <trkpt lat="41.7412" lon="-8.62129">
        <ele>16.96</ele>
        <time>2019-05-31T12:32:36Z</time>
      </trkpt>
      <trkpt lat="41.7412" lon="-8.62128">
        <ele>16.96</ele>
        <time>2019-05-31T12:32:37Z</time>
      </trkpt>
      <trkpt lat="41.74132" lon="-8.62103">
        <ele>16.96</ele>
        <time>2019-05-31T12:32:54Z</time>
      </trkpt>
      <trkpt lat="41.74141" lon="-8.62083">
        <ele>16</ele>
        <time>2019-05-31T12:33:08Z</time>
      </trkpt>
      <trkpt lat="41.74152" lon="-8.62065">
        <ele>16</ele>
        <time>2019-05-31T12:33:22Z</time>
      </trkpt>
      <trkpt lat="41.74164" lon="-8.62053">
        <ele>15.52</ele>
        <time>2019-05-31T12:33:34Z</time>
      </trkpt>
      <trkpt lat="41.74179" lon="-8.6204">
        <ele>15.04</ele>
        <time>2019-05-31T12:33:48Z</time>
      </trkpt>
      <trkpt lat="41.74195" lon="-8.62023">
        <ele>15.52</ele>
        <time>2019-05-31T12:34:04Z</time>
      </trkpt>
      <trkpt lat="41.74211" lon="-8.6201">
        <ele>15.04</ele>
        <time>2019-05-31T12:34:18Z</time>
      </trkpt>
      <trkpt lat="41.74212" lon="-8.62009">
        <ele>15.04</ele>
        <time>2019-05-31T12:34:19Z</time>
      </trkpt>
      <trkpt lat="41.74214" lon="-8.62007">
        <ele>15.04</ele>
        <time>2019-05-31T12:34:21Z</time>
      </trkpt>
      <trkpt lat="41.7423" lon="-8.61992">
        <ele>15.52</ele>
        <time>2019-05-31T12:34:37Z</time>
      </trkpt>
      <trkpt lat="41.74247" lon="-8.61974">
        <ele>15.52</ele>
        <time>2019-05-31T12:34:53Z</time>
      </trkpt>
      <trkpt lat="41.74257" lon="-8.61963">
        <ele>16</ele>
        <time>2019-05-31T12:35:05Z</time>
      </trkpt>
      <trkpt lat="41.74261" lon="-8.6196">
        <ele>16.48</ele>
        <time>2019-05-31T12:35:10Z</time>
      </trkpt>
      <trkpt lat="41.74272" lon="-8.61956">
        <ele>16</ele>
        <time>2019-05-31T12:35:26Z</time>
      </trkpt>
      <trkpt lat="41.74285" lon="-8.61944">
        <ele>16.48</ele>
        <time>2019-05-31T12:35:45Z</time>
      </trkpt>
      <trkpt lat="41.74301" lon="-8.61934">
        <ele>16.48</ele>
        <time>2019-05-31T12:36:00Z</time>
      </trkpt>
      <trkpt lat="41.74318" lon="-8.61927">
        <ele>16.96</ele>
        <time>2019-05-31T12:36:15Z</time>
      </trkpt>
      <trkpt lat="41.74325" lon="-8.61921">
        <ele>16.48</ele>
        <time>2019-05-31T12:36:22Z</time>
      </trkpt>
      <trkpt lat="41.74339" lon="-8.61906">
        <ele>16.96</ele>
        <time>2019-05-31T12:36:37Z</time>
      </trkpt>
      <trkpt lat="41.74346" lon="-8.61899">
        <ele>17.44</ele>
        <time>2019-05-31T12:36:52Z</time>
      </trkpt>
      <trkpt lat="41.74359" lon="-8.61884">
        <ele>16.96</ele>
        <time>2019-05-31T12:37:07Z</time>
      </trkpt>
      <trkpt lat="41.74372" lon="-8.61871">
        <ele>16.96</ele>
        <time>2019-05-31T12:37:20Z</time>
      </trkpt>
      <trkpt lat="41.74387" lon="-8.6186">
        <ele>16.96</ele>
        <time>2019-05-31T12:37:33Z</time>
      </trkpt>
      <trkpt lat="41.74401" lon="-8.61845">
        <ele>16.96</ele>
        <time>2019-05-31T12:37:48Z</time>
      </trkpt>
      <trkpt lat="41.74419" lon="-8.61831">
        <ele>16.96</ele>
        <time>2019-05-31T12:38:04Z</time>
      </trkpt>
      <trkpt lat="41.74432" lon="-8.61818">
        <ele>17.44</ele>
        <time>2019-05-31T12:38:17Z</time>
      </trkpt>
      <trkpt lat="41.74448" lon="-8.61806">
        <ele>17.44</ele>
        <time>2019-05-31T12:38:32Z</time>
      </trkpt>
      <trkpt lat="41.74463" lon="-8.61793">
        <ele>17.92</ele>
        <time>2019-05-31T12:38:47Z</time>
      </trkpt>
      <trkpt lat="41.74476" lon="-8.6178">
        <ele>17.92</ele>
        <time>2019-05-31T12:39:00Z</time>
      </trkpt>
      <trkpt lat="41.74478" lon="-8.61778">
        <ele>18.4</ele>
        <time>2019-05-31T12:39:03Z</time>
      </trkpt>
      <trkpt lat="41.7448" lon="-8.61776">
        <ele>17.92</ele>
        <time>2019-05-31T12:39:05Z</time>
      </trkpt>
      <trkpt lat="41.74492" lon="-8.61762">
        <ele>17.44</ele>
        <time>2019-05-31T12:39:18Z</time>
      </trkpt>
      <trkpt lat="41.74505" lon="-8.61744">
        <ele>18.4</ele>
        <time>2019-05-31T12:39:33Z</time>
      </trkpt>
      <trkpt lat="41.7451" lon="-8.61737">
        <ele>18.4</ele>
        <time>2019-05-31T12:39:39Z</time>
      </trkpt>
      <trkpt lat="41.74519" lon="-8.61725">
        <ele>18.4</ele>
        <time>2019-05-31T12:39:49Z</time>
      </trkpt>
      <trkpt lat="41.74527" lon="-8.61712">
        <ele>18.88</ele>
        <time>2019-05-31T12:39:59Z</time>
      </trkpt>
      <trkpt lat="41.74539" lon="-8.61695">
        <ele>18.4</ele>
        <time>2019-05-31T12:40:16Z</time>
      </trkpt>
      <trkpt lat="41.74545" lon="-8.61694">
        <ele>18.88</ele>
        <time>2019-05-31T12:40:31Z</time>
      </trkpt>
      <trkpt lat="41.74554" lon="-8.61692">
        <ele>18.88</ele>
        <time>2019-05-31T12:40:56Z</time>
      </trkpt>
      <trkpt lat="41.74552" lon="-8.6169">
        <ele>18.88</ele>
        <time>2019-05-31T12:41:21Z</time>
      </trkpt>
      <trkpt lat="41.74553" lon="-8.61692">
        <ele>18.88</ele>
        <time>2019-05-31T12:41:42Z</time>
      </trkpt>
      <trkpt lat="41.74555" lon="-8.61686">
        <ele>18.4</ele>
        <time>2019-05-31T12:42:00Z</time>
      </trkpt>
      <trkpt lat="41.74558" lon="-8.61672">
        <ele>19.36</ele>
        <time>2019-05-31T12:42:11Z</time>
      </trkpt>
      <trkpt lat="41.74569" lon="-8.61649">
        <ele>18.88</ele>
        <time>2019-05-31T12:42:28Z</time>
      </trkpt>
      <trkpt lat="41.74581" lon="-8.61628">
        <ele>18.88</ele>
        <time>2019-05-31T12:42:44Z</time>
      </trkpt>
      <trkpt lat="41.74592" lon="-8.61607">
        <ele>18.88</ele>
        <time>2019-05-31T12:42:59Z</time>
      </trkpt>
      <trkpt lat="41.74606" lon="-8.61586">
        <ele>19.36</ele>
        <time>2019-05-31T12:43:16Z</time>
      </trkpt>
      <trkpt lat="41.74616" lon="-8.61569">
        <ele>18.88</ele>
        <time>2019-05-31T12:43:29Z</time>
      </trkpt>
      <trkpt lat="41.74618" lon="-8.61567">
        <ele>18.88</ele>
        <time>2019-05-31T12:43:31Z</time>
      </trkpt>
      <trkpt lat="41.74634" lon="-8.6155">
        <ele>19.36</ele>
        <time>2019-05-31T12:43:47Z</time>
      </trkpt>
      <trkpt lat="41.74642" lon="-8.61543">
        <ele>19.36</ele>
        <time>2019-05-31T12:44:01Z</time>
      </trkpt>
      <trkpt lat="41.74651" lon="-8.61531">
        <ele>19.36</ele>
        <time>2019-05-31T12:44:15Z</time>
      </trkpt>
      <trkpt lat="41.74664" lon="-8.61517">
        <ele>20.81</ele>
        <time>2019-05-31T12:44:31Z</time>
      </trkpt>
      <trkpt lat="41.74665" lon="-8.61514">
        <ele>20.81</ele>
        <time>2019-05-31T12:44:33Z</time>
      </trkpt>
      <trkpt lat="41.74671" lon="-8.61507">
        <ele>21.77</ele>
        <time>2019-05-31T12:44:40Z</time>
      </trkpt>
      <trkpt lat="41.74683" lon="-8.61494">
        <ele>21.77</ele>
        <time>2019-05-31T12:44:54Z</time>
      </trkpt>
      <trkpt lat="41.74696" lon="-8.61478">
        <ele>22.25</ele>
        <time>2019-05-31T12:45:08Z</time>
      </trkpt>
      <trkpt lat="41.74709" lon="-8.61459">
        <ele>22.25</ele>
        <time>2019-05-31T12:45:23Z</time>
      </trkpt>
      <trkpt lat="41.74719" lon="-8.61443">
        <ele>21.29</ele>
        <time>2019-05-31T12:45:35Z</time>
      </trkpt>
      <trkpt lat="41.74727" lon="-8.61431">
        <ele>21.77</ele>
        <time>2019-05-31T12:45:45Z</time>
      </trkpt>
      <trkpt lat="41.74729" lon="-8.6143">
        <ele>21.77</ele>
        <time>2019-05-31T12:45:47Z</time>
      </trkpt>
      <trkpt lat="41.74741" lon="-8.61409">
        <ele>21.29</ele>
        <time>2019-05-31T12:46:02Z</time>
      </trkpt>
      <trkpt lat="41.74751" lon="-8.61387">
        <ele>20.81</ele>
        <time>2019-05-31T12:46:18Z</time>
      </trkpt>
      <trkpt lat="41.74754" lon="-8.61382">
        <ele>20.81</ele>
        <time>2019-05-31T12:46:22Z</time>
      </trkpt>
      <trkpt lat="41.7477" lon="-8.61362">
        <ele>21.29</ele>
        <time>2019-05-31T12:46:40Z</time>
      </trkpt>
      <trkpt lat="41.74782" lon="-8.61351">
        <ele>21.29</ele>
        <time>2019-05-31T12:46:53Z</time>
      </trkpt>
      <trkpt lat="41.74795" lon="-8.61338">
        <ele>21.29</ele>
        <time>2019-05-31T12:47:06Z</time>
      </trkpt>
      <trkpt lat="41.74803" lon="-8.6133">
        <ele>20.32</ele>
        <time>2019-05-31T12:47:14Z</time>
      </trkpt>
      <trkpt lat="41.74818" lon="-8.61313">
        <ele>21.29</ele>
        <time>2019-05-31T12:47:29Z</time>
      </trkpt>
      <trkpt lat="41.74834" lon="-8.61299">
        <ele>20.81</ele>
        <time>2019-05-31T12:47:44Z</time>
      </trkpt>
      <trkpt lat="41.74847" lon="-8.61281">
        <ele>21.29</ele>
        <time>2019-05-31T12:47:59Z</time>
      </trkpt>
      <trkpt lat="41.74855" lon="-8.61275">
        <ele>21.77</ele>
        <time>2019-05-31T12:48:07Z</time>
      </trkpt>
      <trkpt lat="41.74861" lon="-8.61272">
        <ele>21.77</ele>
        <time>2019-05-31T12:48:11Z</time>
      </trkpt>
      <trkpt lat="41.74879" lon="-8.61259">
        <ele>21.77</ele>
        <time>2019-05-31T12:48:28Z</time>
      </trkpt>
      <trkpt lat="41.74898" lon="-8.61259">
        <ele>22.25</ele>
        <time>2019-05-31T12:48:44Z</time>
      </trkpt>
      <trkpt lat="41.74913" lon="-8.61256">
        <ele>21.77</ele>
        <time>2019-05-31T12:48:56Z</time>
      </trkpt>
      <trkpt lat="41.74928" lon="-8.61251">
        <ele>21.77</ele>
        <time>2019-05-31T12:49:09Z</time>
      </trkpt>
      <trkpt lat="41.74938" lon="-8.61239">
        <ele>21.77</ele>
        <time>2019-05-31T12:49:25Z</time>
      </trkpt>
      <trkpt lat="41.74939" lon="-8.61235">
        <ele>21.77</ele>
        <time>2019-05-31T12:49:46Z</time>
      </trkpt>
      <trkpt lat="41.74945" lon="-8.61231">
        <ele>21.29</ele>
        <time>2019-05-31T12:49:52Z</time>
      </trkpt>
      <trkpt lat="41.74964" lon="-8.61213">
        <ele>21.77</ele>
        <time>2019-05-31T12:50:11Z</time>
      </trkpt>
      <trkpt lat="41.74978" lon="-8.61198">
        <ele>21.77</ele>
        <time>2019-05-31T12:50:25Z</time>
      </trkpt>
      <trkpt lat="41.74995" lon="-8.61182">
        <ele>21.29</ele>
        <time>2019-05-31T12:50:41Z</time>
      </trkpt>
      <trkpt lat="41.75012" lon="-8.61165">
        <ele>21.77</ele>
        <time>2019-05-31T12:50:58Z</time>
      </trkpt>
      <trkpt lat="41.75026" lon="-8.61152">
        <ele>22.73</ele>
        <time>2019-05-31T12:51:13Z</time>
      </trkpt>
      <trkpt lat="41.75041" lon="-8.61137">
        <ele>23.21</ele>
        <time>2019-05-31T12:51:28Z</time>
      </trkpt>
      <trkpt lat="41.75056" lon="-8.6112">
        <ele>23.69</ele>
        <time>2019-05-31T12:51:43Z</time>
      </trkpt>
      <trkpt lat="41.7507" lon="-8.61103">
        <ele>24.17</ele>
        <time>2019-05-31T12:51:59Z</time>
      </trkpt>
      <trkpt lat="41.7508" lon="-8.61087">
        <ele>25.13</ele>
        <time>2019-05-31T12:52:13Z</time>
      </trkpt>
      <trkpt lat="41.75096" lon="-8.6107">
        <ele>25.13</ele>
        <time>2019-05-31T12:52:29Z</time>
      </trkpt>
      <trkpt lat="41.75108" lon="-8.61067">
        <ele>24.65</ele>
        <time>2019-05-31T12:52:40Z</time>
      </trkpt>
      <trkpt lat="41.75116" lon="-8.61066">
        <ele>24.65</ele>
        <time>2019-05-31T12:52:52Z</time>
      </trkpt>
      <trkpt lat="41.75132" lon="-8.61055">
        <ele>24.17</ele>
        <time>2019-05-31T12:53:04Z</time>
      </trkpt>
      <trkpt lat="41.75136" lon="-8.61048">
        <ele>24.17</ele>
        <time>2019-05-31T12:53:14Z</time>
      </trkpt>
      <trkpt lat="41.75147" lon="-8.61045">
        <ele>22.73</ele>
        <time>2019-05-31T12:53:35Z</time>
      </trkpt>
      <trkpt lat="41.75151" lon="-8.61038">
        <ele>22.73</ele>
        <time>2019-05-31T12:53:41Z</time>
      </trkpt>
      <trkpt lat="41.75167" lon="-8.61019">
        <ele>22.73</ele>
        <time>2019-05-31T12:53:59Z</time>
      </trkpt>
      <trkpt lat="41.75173" lon="-8.61011">
        <ele>22.73</ele>
        <time>2019-05-31T12:54:06Z</time>
      </trkpt>
      <trkpt lat="41.75193" lon="-8.60997">
        <ele>22.25</ele>
        <time>2019-05-31T12:54:21Z</time>
      </trkpt>
      <trkpt lat="41.75197" lon="-8.60993">
        <ele>22.25</ele>
        <time>2019-05-31T12:54:35Z</time>
      </trkpt>
      <trkpt lat="41.752" lon="-8.60993">
        <ele>18.4</ele>
        <time>2019-05-31T12:54:42Z</time>
      </trkpt>
      <trkpt lat="41.752" lon="-8.60993">
        <ele>23.21</ele>
        <time>2019-05-31T12:54:43Z</time>
      </trkpt>
      <trkpt lat="41.7521" lon="-8.6099">
        <ele>21.77</ele>
        <time>2019-05-31T12:54:55Z</time>
      </trkpt>
      <trkpt lat="41.75222" lon="-8.60983">
        <ele>21.77</ele>
        <time>2019-05-31T12:55:09Z</time>
      </trkpt>
      <trkpt lat="41.75229" lon="-8.60975">
        <ele>21.29</ele>
        <time>2019-05-31T12:55:23Z</time>
      </trkpt>
      <trkpt lat="41.75232" lon="-8.60974">
        <ele>21.77</ele>
        <time>2019-05-31T12:55:38Z</time>
      </trkpt>
      <trkpt lat="41.75251" lon="-8.60966">
        <ele>21.29</ele>
        <time>2019-05-31T12:55:51Z</time>
      </trkpt>
      <trkpt lat="41.75261" lon="-8.60959">
        <ele>21.29</ele>
        <time>2019-05-31T12:56:06Z</time>
      </trkpt>
      <trkpt lat="41.75281" lon="-8.60948">
        <ele>20.81</ele>
        <time>2019-05-31T12:56:22Z</time>
      </trkpt>
      <trkpt lat="41.75292" lon="-8.60941">
        <ele>20.32</ele>
        <time>2019-05-31T12:56:33Z</time>
      </trkpt>
      <trkpt lat="41.75311" lon="-8.60931">
        <ele>20.32</ele>
        <time>2019-05-31T12:56:50Z</time>
      </trkpt>
      <trkpt lat="41.75324" lon="-8.60919">
        <ele>20.32</ele>
        <time>2019-05-31T12:57:05Z</time>
      </trkpt>
      <trkpt lat="41.75333" lon="-8.60912">
        <ele>20.32</ele>
        <time>2019-05-31T12:57:15Z</time>
      </trkpt>
      <trkpt lat="41.75343" lon="-8.60903">
        <ele>20.32</ele>
        <time>2019-05-31T12:57:24Z</time>
      </trkpt>
      <trkpt lat="41.75354" lon="-8.60886">
        <ele>19.36</ele>
        <time>2019-05-31T12:57:39Z</time>
      </trkpt>
      <trkpt lat="41.75361" lon="-8.60873">
        <ele>19.36</ele>
        <time>2019-05-31T12:57:50Z</time>
      </trkpt>
      <trkpt lat="41.75363" lon="-8.60869">
        <ele>19.36</ele>
        <time>2019-05-31T12:57:53Z</time>
      </trkpt>
      <trkpt lat="41.75369" lon="-8.60861">
        <ele>19.36</ele>
        <time>2019-05-31T12:58:00Z</time>
      </trkpt>
      <trkpt lat="41.75377" lon="-8.60848">
        <ele>19.36</ele>
        <time>2019-05-31T12:58:13Z</time>
      </trkpt>
      <trkpt lat="41.75379" lon="-8.60848">
        <ele>19.36</ele>
        <time>2019-05-31T12:58:34Z</time>
      </trkpt>
      <trkpt lat="41.7538" lon="-8.6085">
        <ele>18.88</ele>
        <time>2019-05-31T12:59:00Z</time>
      </trkpt>
      <trkpt lat="41.7538" lon="-8.60848">
        <ele>18.88</ele>
        <time>2019-05-31T12:59:20Z</time>
      </trkpt>
      <trkpt lat="41.75382" lon="-8.6084">
        <ele>18.88</ele>
        <time>2019-05-31T12:59:34Z</time>
      </trkpt>
      <trkpt lat="41.7539" lon="-8.60834">
        <ele>18.88</ele>
        <time>2019-05-31T12:59:48Z</time>
      </trkpt>
      <trkpt lat="41.75398" lon="-8.60819">
        <ele>18.88</ele>
        <time>2019-05-31T13:00:01Z</time>
      </trkpt>
      <trkpt lat="41.75412" lon="-8.60801">
        <ele>18.88</ele>
        <time>2019-05-31T13:00:17Z</time>
      </trkpt>
      <trkpt lat="41.75424" lon="-8.60783">
        <ele>18.4</ele>
        <time>2019-05-31T13:00:33Z</time>
      </trkpt>
      <trkpt lat="41.75429" lon="-8.60772">
        <ele>18.4</ele>
        <time>2019-05-31T13:00:41Z</time>
      </trkpt>
      <trkpt lat="41.75433" lon="-8.60764">
        <ele>17.44</ele>
        <time>2019-05-31T13:00:47Z</time>
      </trkpt>
      <trkpt lat="41.75435" lon="-8.60749">
        <ele>17.44</ele>
        <time>2019-05-31T13:00:55Z</time>
      </trkpt>
      <trkpt lat="41.75437" lon="-8.60738">
        <ele>16.96</ele>
        <time>2019-05-31T13:01:01Z</time>
      </trkpt>
      <trkpt lat="41.75438" lon="-8.60716">
        <ele>16</ele>
        <time>2019-05-31T13:01:12Z</time>
      </trkpt>
      <trkpt lat="41.75442" lon="-8.6069">
        <ele>15.52</ele>
        <time>2019-05-31T13:01:28Z</time>
      </trkpt>
      <trkpt lat="41.75442" lon="-8.60689">
        <ele>15.52</ele>
        <time>2019-05-31T13:01:29Z</time>
      </trkpt>
      <trkpt lat="41.7545" lon="-8.60666">
        <ele>15.04</ele>
        <time>2019-05-31T13:01:45Z</time>
      </trkpt>
      <trkpt lat="41.75449" lon="-8.60663">
        <ele>15.04</ele>
        <time>2019-05-31T13:02:00Z</time>
      </trkpt>
      <trkpt lat="41.75448" lon="-8.60666">
        <ele>14.56</ele>
        <time>2019-05-31T13:02:18Z</time>
      </trkpt>
      <trkpt lat="41.75455" lon="-8.60669">
        <ele>14.56</ele>
        <time>2019-05-31T13:02:49Z</time>
      </trkpt>
      <trkpt lat="41.75451" lon="-8.60669">
        <ele>15.52</ele>
        <time>2019-05-31T13:03:11Z</time>
      </trkpt>
      <trkpt lat="41.75456" lon="-8.60665">
        <ele>14.56</ele>
        <time>2019-05-31T13:03:37Z</time>
      </trkpt>
      <trkpt lat="41.75461" lon="-8.60641">
        <ele>14.56</ele>
        <time>2019-05-31T13:03:52Z</time>
      </trkpt>
      <trkpt lat="41.7547" lon="-8.60617">
        <ele>15.04</ele>
        <time>2019-05-31T13:04:09Z</time>
      </trkpt>
      <trkpt lat="41.75481" lon="-8.60596">
        <ele>15.04</ele>
        <time>2019-05-31T13:04:25Z</time>
      </trkpt>
      <trkpt lat="41.75493" lon="-8.60577">
        <ele>15.52</ele>
        <time>2019-05-31T13:04:39Z</time>
      </trkpt>
      <trkpt lat="41.75496" lon="-8.6057">
        <ele>15.04</ele>
        <time>2019-05-31T13:04:45Z</time>
      </trkpt>
      <trkpt lat="41.75502" lon="-8.6055">
        <ele>16</ele>
        <time>2019-05-31T13:04:59Z</time>
      </trkpt>
      <trkpt lat="41.75508" lon="-8.60535">
        <ele>16</ele>
        <time>2019-05-31T13:05:10Z</time>
      </trkpt>
      <trkpt lat="41.75516" lon="-8.6051">
        <ele>17.44</ele>
        <time>2019-05-31T13:05:28Z</time>
      </trkpt>
      <trkpt lat="41.75521" lon="-8.60502">
        <ele>16.48</ele>
        <time>2019-05-31T13:05:34Z</time>
      </trkpt>
      <trkpt lat="41.7553" lon="-8.60495">
        <ele>16.96</ele>
        <time>2019-05-31T13:05:42Z</time>
      </trkpt>
      <trkpt lat="41.7555" lon="-8.60492">
        <ele>16.96</ele>
        <time>2019-05-31T13:05:57Z</time>
      </trkpt>
      <trkpt lat="41.75567" lon="-8.60491">
        <ele>15.52</ele>
        <time>2019-05-31T13:06:12Z</time>
      </trkpt>
      <trkpt lat="41.75589" lon="-8.60484">
        <ele>14.56</ele>
        <time>2019-05-31T13:06:28Z</time>
      </trkpt>
      <trkpt lat="41.75606" lon="-8.60471">
        <ele>13.6</ele>
        <time>2019-05-31T13:06:42Z</time>
      </trkpt>
      <trkpt lat="41.75617" lon="-8.60449">
        <ele>13.12</ele>
        <time>2019-05-31T13:06:58Z</time>
      </trkpt>
      <trkpt lat="41.75624" lon="-8.60428">
        <ele>14.08</ele>
        <time>2019-05-31T13:07:12Z</time>
      </trkpt>
      <trkpt lat="41.75632" lon="-8.60407">
        <ele>14.08</ele>
        <time>2019-05-31T13:07:28Z</time>
      </trkpt>
      <trkpt lat="41.75639" lon="-8.60387">
        <ele>14.08</ele>
        <time>2019-05-31T13:07:43Z</time>
      </trkpt>
      <trkpt lat="41.75645" lon="-8.60364">
        <ele>14.08</ele>
        <time>2019-05-31T13:07:57Z</time>
      </trkpt>
      <trkpt lat="41.75646" lon="-8.60353">
        <ele>14.56</ele>
        <time>2019-05-31T13:08:05Z</time>
      </trkpt>
      <trkpt lat="41.75646" lon="-8.60348">
        <ele>15.04</ele>
        <time>2019-05-31T13:08:09Z</time>
      </trkpt>
      <trkpt lat="41.75645" lon="-8.60337">
        <ele>16</ele>
        <time>2019-05-31T13:08:23Z</time>
      </trkpt>
      <trkpt lat="41.75647" lon="-8.60334">
        <ele>14.56</ele>
        <time>2019-05-31T13:08:53Z</time>
      </trkpt>
      <trkpt lat="41.75646" lon="-8.60333">
        <ele>15.04</ele>
        <time>2019-05-31T13:08:54Z</time>
      </trkpt>
      <trkpt lat="41.75646" lon="-8.6033">
        <ele>15.04</ele>
        <time>2019-05-31T13:08:56Z</time>
      </trkpt>
      <trkpt lat="41.75644" lon="-8.60311">
        <ele>15.04</ele>
        <time>2019-05-31T13:09:13Z</time>
      </trkpt>
      <trkpt lat="41.7565" lon="-8.60297">
        <ele>13.6</ele>
        <time>2019-05-31T13:09:24Z</time>
      </trkpt>
      <trkpt lat="41.75668" lon="-8.60298">
        <ele>13.6</ele>
        <time>2019-05-31T13:09:40Z</time>
      </trkpt>
      <trkpt lat="41.75675" lon="-8.60302">
        <ele>14.08</ele>
        <time>2019-05-31T13:09:55Z</time>
      </trkpt>
      <trkpt lat="41.75682" lon="-8.60302">
        <ele>13.12</ele>
        <time>2019-05-31T13:10:02Z</time>
      </trkpt>
      <trkpt lat="41.75689" lon="-8.60296">
        <ele>13.6</ele>
        <time>2019-05-31T13:10:18Z</time>
      </trkpt>
      <trkpt lat="41.75695" lon="-8.6029">
        <ele>13.12</ele>
        <time>2019-05-31T13:10:37Z</time>
      </trkpt>
      <trkpt lat="41.75706" lon="-8.60276">
        <ele>13.6</ele>
        <time>2019-05-31T13:10:50Z</time>
      </trkpt>
      <trkpt lat="41.75716" lon="-8.60254">
        <ele>13.6</ele>
        <time>2019-05-31T13:11:08Z</time>
      </trkpt>
      <trkpt lat="41.75723" lon="-8.60243">
        <ele>14.08</ele>
        <time>2019-05-31T13:11:16Z</time>
      </trkpt>
      <trkpt lat="41.75731" lon="-8.60226">
        <ele>13.6</ele>
        <time>2019-05-31T13:11:29Z</time>
      </trkpt>
      <trkpt lat="41.75736" lon="-8.6022">
        <ele>13.6</ele>
        <time>2019-05-31T13:11:34Z</time>
      </trkpt>
      <trkpt lat="41.75746" lon="-8.60202">
        <ele>14.56</ele>
        <time>2019-05-31T13:11:49Z</time>
      </trkpt>
      <trkpt lat="41.75757" lon="-8.60185">
        <ele>13.6</ele>
        <time>2019-05-31T13:12:01Z</time>
      </trkpt>
      <trkpt lat="41.75761" lon="-8.60175">
        <ele>13.12</ele>
        <time>2019-05-31T13:12:09Z</time>
      </trkpt>
      <trkpt lat="41.75774" lon="-8.60155">
        <ele>14.56</ele>
        <time>2019-05-31T13:12:24Z</time>
      </trkpt>
      <trkpt lat="41.75777" lon="-8.6015">
        <ele>14.08</ele>
        <time>2019-05-31T13:12:28Z</time>
      </trkpt>
      <trkpt lat="41.75778" lon="-8.60147">
        <ele>14.56</ele>
        <time>2019-05-31T13:12:30Z</time>
      </trkpt>
      <trkpt lat="41.75786" lon="-8.60144">
        <ele>14.56</ele>
        <time>2019-05-31T13:12:47Z</time>
      </trkpt>
      <trkpt lat="41.75787" lon="-8.60143">
        <ele>15.04</ele>
        <time>2019-05-31T13:13:01Z</time>
      </trkpt>
      <trkpt lat="41.75788" lon="-8.60151">
        <ele>14.56</ele>
        <time>2019-05-31T13:13:32Z</time>
      </trkpt>
      <trkpt lat="41.75798" lon="-8.60135">
        <ele>15.04</ele>
        <time>2019-05-31T13:13:49Z</time>
      </trkpt>
      <trkpt lat="41.7581" lon="-8.60108">
        <ele>16</ele>
        <time>2019-05-31T13:14:03Z</time>
      </trkpt>
      <trkpt lat="41.75818" lon="-8.60097">
        <ele>15.04</ele>
        <time>2019-05-31T13:14:13Z</time>
      </trkpt>
      <trkpt lat="41.75827" lon="-8.60083">
        <ele>14.08</ele>
        <time>2019-05-31T13:14:24Z</time>
      </trkpt>
      <trkpt lat="41.75839" lon="-8.60062">
        <ele>13.12</ele>
        <time>2019-05-31T13:14:41Z</time>
      </trkpt>
      <trkpt lat="41.7585" lon="-8.60048">
        <ele>12.63</ele>
        <time>2019-05-31T13:14:56Z</time>
      </trkpt>
      <trkpt lat="41.75857" lon="-8.60038">
        <ele>12.15</ele>
        <time>2019-05-31T13:15:07Z</time>
      </trkpt>
      <trkpt lat="41.75876" lon="-8.60026">
        <ele>12.15</ele>
        <time>2019-05-31T13:15:23Z</time>
      </trkpt>
      <trkpt lat="41.75895" lon="-8.6002">
        <ele>12.63</ele>
        <time>2019-05-31T13:15:39Z</time>
      </trkpt>
      <trkpt lat="41.75909" lon="-8.60016">
        <ele>12.63</ele>
        <time>2019-05-31T13:15:50Z</time>
      </trkpt>
      <trkpt lat="41.75925" lon="-8.60009">
        <ele>12.63</ele>
        <time>2019-05-31T13:16:05Z</time>
      </trkpt>
      <trkpt lat="41.7593" lon="-8.60006">
        <ele>13.6</ele>
        <time>2019-05-31T13:16:10Z</time>
      </trkpt>
      <trkpt lat="41.75936" lon="-8.6">
        <ele>13.12</ele>
        <time>2019-05-31T13:16:17Z</time>
      </trkpt>
      <trkpt lat="41.75953" lon="-8.59991">
        <ele>13.12</ele>
        <time>2019-05-31T13:16:31Z</time>
      </trkpt>
      <trkpt lat="41.75964" lon="-8.59984">
        <ele>12.63</ele>
        <time>2019-05-31T13:16:42Z</time>
      </trkpt>
      <trkpt lat="41.75971" lon="-8.59978">
        <ele>13.12</ele>
        <time>2019-05-31T13:16:49Z</time>
      </trkpt>
      <trkpt lat="41.7599" lon="-8.59967">
        <ele>13.12</ele>
        <time>2019-05-31T13:17:05Z</time>
      </trkpt>
      <trkpt lat="41.75993" lon="-8.59964">
        <ele>12.63</ele>
        <time>2019-05-31T13:17:08Z</time>
      </trkpt>
      <trkpt lat="41.76011" lon="-8.59956">
        <ele>12.15</ele>
        <time>2019-05-31T13:17:23Z</time>
      </trkpt>
      <trkpt lat="41.76024" lon="-8.59944">
        <ele>12.63</ele>
        <time>2019-05-31T13:17:37Z</time>
      </trkpt>
      <trkpt lat="41.7604" lon="-8.59936">
        <ele>12.63</ele>
        <time>2019-05-31T13:17:50Z</time>
      </trkpt>
      <trkpt lat="41.76051" lon="-8.59928">
        <ele>12.63</ele>
        <time>2019-05-31T13:18:04Z</time>
      </trkpt>
      <trkpt lat="41.76052" lon="-8.59927">
        <ele>12.63</ele>
        <time>2019-05-31T13:18:05Z</time>
      </trkpt>
      <trkpt lat="41.76059" lon="-8.5991">
        <ele>13.6</ele>
        <time>2019-05-31T13:18:19Z</time>
      </trkpt>
      <trkpt lat="41.76064" lon="-8.59897">
        <ele>13.12</ele>
        <time>2019-05-31T13:18:28Z</time>
      </trkpt>
      <trkpt lat="41.76075" lon="-8.59877">
        <ele>12.63</ele>
        <time>2019-05-31T13:18:43Z</time>
      </trkpt>
      <trkpt lat="41.76079" lon="-8.59866">
        <ele>12.15</ele>
        <time>2019-05-31T13:18:56Z</time>
      </trkpt>
      <trkpt lat="41.7608" lon="-8.59864">
        <ele>11.67</ele>
        <time>2019-05-31T13:18:58Z</time>
      </trkpt>
      <trkpt lat="41.76082" lon="-8.59852">
        <ele>11.19</ele>
        <time>2019-05-31T13:19:06Z</time>
      </trkpt>
      <trkpt lat="41.76085" lon="-8.59825">
        <ele>11.19</ele>
        <time>2019-05-31T13:19:23Z</time>
      </trkpt>
      <trkpt lat="41.76087" lon="-8.59795">
        <ele>11.19</ele>
        <time>2019-05-31T13:19:39Z</time>
      </trkpt>
      <trkpt lat="41.76089" lon="-8.59771">
        <ele>10.23</ele>
        <time>2019-05-31T13:19:53Z</time>
      </trkpt>
      <trkpt lat="41.76091" lon="-8.59752">
        <ele>10.71</ele>
        <time>2019-05-31T13:20:06Z</time>
      </trkpt>
      <trkpt lat="41.76094" lon="-8.59733">
        <ele>10.23</ele>
        <time>2019-05-31T13:20:19Z</time>
      </trkpt>
      <trkpt lat="41.76098" lon="-8.59714">
        <ele>10.71</ele>
        <time>2019-05-31T13:20:32Z</time>
      </trkpt>
      <trkpt lat="41.761" lon="-8.5969">
        <ele>10.71</ele>
        <time>2019-05-31T13:20:47Z</time>
      </trkpt>
      <trkpt lat="41.76101" lon="-8.59679">
        <ele>10.71</ele>
        <time>2019-05-31T13:20:55Z</time>
      </trkpt>
      <trkpt lat="41.76102" lon="-8.59649">
        <ele>10.71</ele>
        <time>2019-05-31T13:21:12Z</time>
      </trkpt>
      <trkpt lat="41.76101" lon="-8.59629">
        <ele>10.71</ele>
        <time>2019-05-31T13:21:25Z</time>
      </trkpt>
      <trkpt lat="41.76103" lon="-8.59607">
        <ele>10.71</ele>
        <time>2019-05-31T13:21:39Z</time>
      </trkpt>
      <trkpt lat="41.76104" lon="-8.5958">
        <ele>9.75</ele>
        <time>2019-05-31T13:21:54Z</time>
      </trkpt>
      <trkpt lat="41.7611" lon="-8.59556">
        <ele>10.23</ele>
        <time>2019-05-31T13:22:09Z</time>
      </trkpt>
      <trkpt lat="41.76113" lon="-8.59536">
        <ele>10.23</ele>
        <time>2019-05-31T13:22:23Z</time>
      </trkpt>
      <trkpt lat="41.76119" lon="-8.59508">
        <ele>10.23</ele>
        <time>2019-05-31T13:22:38Z</time>
      </trkpt>
      <trkpt lat="41.76119" lon="-8.59505">
        <ele>10.23</ele>
        <time>2019-05-31T13:22:40Z</time>
      </trkpt>
      <trkpt lat="41.76126" lon="-8.59481">
        <ele>10.23</ele>
        <time>2019-05-31T13:22:55Z</time>
      </trkpt>
      <trkpt lat="41.76133" lon="-8.5946">
        <ele>10.71</ele>
        <time>2019-05-31T13:23:09Z</time>
      </trkpt>
      <trkpt lat="41.7614" lon="-8.59442">
        <ele>10.23</ele>
        <time>2019-05-31T13:23:22Z</time>
      </trkpt>
      <trkpt lat="41.76147" lon="-8.59425">
        <ele>10.23</ele>
        <time>2019-05-31T13:23:34Z</time>
      </trkpt>
      <trkpt lat="41.76152" lon="-8.59404">
        <ele>10.71</ele>
        <time>2019-05-31T13:23:48Z</time>
      </trkpt>
      <trkpt lat="41.76158" lon="-8.59382">
        <ele>10.71</ele>
        <time>2019-05-31T13:24:06Z</time>
      </trkpt>
      <trkpt lat="41.76163" lon="-8.59363">
        <ele>10.71</ele>
        <time>2019-05-31T13:24:19Z</time>
      </trkpt>
      <trkpt lat="41.76173" lon="-8.59341">
        <ele>11.19</ele>
        <time>2019-05-31T13:24:33Z</time>
      </trkpt>
      <trkpt lat="41.76182" lon="-8.59318">
        <ele>11.19</ele>
        <time>2019-05-31T13:24:49Z</time>
      </trkpt>
      <trkpt lat="41.76195" lon="-8.59289">
        <ele>10.71</ele>
        <time>2019-05-31T13:25:08Z</time>
      </trkpt>
      <trkpt lat="41.76205" lon="-8.59267">
        <ele>11.67</ele>
        <time>2019-05-31T13:25:24Z</time>
      </trkpt>
      <trkpt lat="41.76209" lon="-8.59245">
        <ele>11.67</ele>
        <time>2019-05-31T13:25:37Z</time>
      </trkpt>
      <trkpt lat="41.76218" lon="-8.59228">
        <ele>11.19</ele>
        <time>2019-05-31T13:25:51Z</time>
      </trkpt>
      <trkpt lat="41.76222" lon="-8.59221">
        <ele>11.19</ele>
        <time>2019-05-31T13:26:05Z</time>
      </trkpt>
      <trkpt lat="41.76226" lon="-8.59218">
        <ele>11.67</ele>
        <time>2019-05-31T13:26:28Z</time>
      </trkpt>
      <trkpt lat="41.76229" lon="-8.59216">
        <ele>11.19</ele>
        <time>2019-05-31T13:26:49Z</time>
      </trkpt>
      <trkpt lat="41.76234" lon="-8.59214">
        <ele>10.71</ele>
        <time>2019-05-31T13:27:02Z</time>
      </trkpt>
      <trkpt lat="41.76235" lon="-8.59207">
        <ele>10.71</ele>
        <time>2019-05-31T13:27:19Z</time>
      </trkpt>
      <trkpt lat="41.76242" lon="-8.59194">
        <ele>10.71</ele>
        <time>2019-05-31T13:27:36Z</time>
      </trkpt>
      <trkpt lat="41.76244" lon="-8.5919">
        <ele>10.23</ele>
        <time>2019-05-31T13:28:00Z</time>
      </trkpt>
      <trkpt lat="41.76248" lon="-8.59185">
        <ele>10.23</ele>
        <time>2019-05-31T13:28:20Z</time>
      </trkpt>
      <trkpt lat="41.76249" lon="-8.59183">
        <ele>10.23</ele>
        <time>2019-05-31T13:28:22Z</time>
      </trkpt>
      <trkpt lat="41.76251" lon="-8.59181">
        <ele>10.23</ele>
        <time>2019-05-31T13:28:24Z</time>
      </trkpt>
      <trkpt lat="41.76259" lon="-8.59168">
        <ele>10.23</ele>
        <time>2019-05-31T13:28:37Z</time>
      </trkpt>
      <trkpt lat="41.76261" lon="-8.59165">
        <ele>10.23</ele>
        <time>2019-05-31T13:28:39Z</time>
      </trkpt>
      <trkpt lat="41.76262" lon="-8.59161">
        <ele>9.75</ele>
        <time>2019-05-31T13:28:42Z</time>
      </trkpt>
      <trkpt lat="41.76275" lon="-8.59143">
        <ele>9.75</ele>
        <time>2019-05-31T13:28:59Z</time>
      </trkpt>
      <trkpt lat="41.76282" lon="-8.59129">
        <ele>9.75</ele>
        <time>2019-05-31T13:29:11Z</time>
      </trkpt>
      <trkpt lat="41.76285" lon="-8.59126">
        <ele>9.75</ele>
        <time>2019-05-31T13:29:15Z</time>
      </trkpt>
      <trkpt lat="41.76296" lon="-8.59111">
        <ele>9.75</ele>
        <time>2019-05-31T13:29:28Z</time>
      </trkpt>
      <trkpt lat="41.76298" lon="-8.59104">
        <ele>9.75</ele>
        <time>2019-05-31T13:29:32Z</time>
      </trkpt>
      <trkpt lat="41.7631" lon="-8.59083">
        <ele>10.23</ele>
        <time>2019-05-31T13:29:47Z</time>
      </trkpt>
      <trkpt lat="41.76323" lon="-8.59065">
        <ele>9.75</ele>
        <time>2019-05-31T13:30:03Z</time>
      </trkpt>
      <trkpt lat="41.76328" lon="-8.59058">
        <ele>9.75</ele>
        <time>2019-05-31T13:30:08Z</time>
      </trkpt>
      <trkpt lat="41.76341" lon="-8.59037">
        <ele>9.75</ele>
        <time>2019-05-31T13:30:26Z</time>
      </trkpt>
      <trkpt lat="41.76346" lon="-8.59019">
        <ele>9.27</ele>
        <time>2019-05-31T13:30:41Z</time>
      </trkpt>
      <trkpt lat="41.7636" lon="-8.59011">
        <ele>9.27</ele>
        <time>2019-05-31T13:30:53Z</time>
      </trkpt>
      <trkpt lat="41.76369" lon="-8.58991">
        <ele>9.75</ele>
        <time>2019-05-31T13:31:08Z</time>
      </trkpt>
      <trkpt lat="41.76382" lon="-8.58972">
        <ele>9.75</ele>
        <time>2019-05-31T13:31:23Z</time>
      </trkpt>
      <trkpt lat="41.7639" lon="-8.5896">
        <ele>9.75</ele>
        <time>2019-05-31T13:31:38Z</time>
      </trkpt>
      <trkpt lat="41.764" lon="-8.58944">
        <ele>9.75</ele>
        <time>2019-05-31T13:31:54Z</time>
      </trkpt>
      <trkpt lat="41.76414" lon="-8.58926">
        <ele>9.75</ele>
        <time>2019-05-31T13:32:10Z</time>
      </trkpt>
      <trkpt lat="41.76423" lon="-8.58913">
        <ele>9.75</ele>
        <time>2019-05-31T13:32:25Z</time>
      </trkpt>
      <trkpt lat="41.76427" lon="-8.58907">
        <ele>9.75</ele>
        <time>2019-05-31T13:32:40Z</time>
      </trkpt>
      <trkpt lat="41.76434" lon="-8.58899">
        <ele>9.75</ele>
        <time>2019-05-31T13:32:57Z</time>
      </trkpt>
      <trkpt lat="41.76446" lon="-8.58884">
        <ele>9.27</ele>
        <time>2019-05-31T13:33:11Z</time>
      </trkpt>
      <trkpt lat="41.76453" lon="-8.58875">
        <ele>8.79</ele>
        <time>2019-05-31T13:33:27Z</time>
      </trkpt>
      <trkpt lat="41.76461" lon="-8.58862">
        <ele>8.79</ele>
        <time>2019-05-31T13:33:44Z</time>
      </trkpt>
      <trkpt lat="41.76473" lon="-8.58844">
        <ele>9.75</ele>
        <time>2019-05-31T13:33:59Z</time>
      </trkpt>
      <trkpt lat="41.76486" lon="-8.58826">
        <ele>8.79</ele>
        <time>2019-05-31T13:34:14Z</time>
      </trkpt>
      <trkpt lat="41.765" lon="-8.5881">
        <ele>8.79</ele>
        <time>2019-05-31T13:34:28Z</time>
      </trkpt>
      <trkpt lat="41.76513" lon="-8.58794">
        <ele>8.79</ele>
        <time>2019-05-31T13:34:43Z</time>
      </trkpt>
      <trkpt lat="41.76528" lon="-8.5878">
        <ele>8.31</ele>
        <time>2019-05-31T13:34:57Z</time>
      </trkpt>
      <trkpt lat="41.76538" lon="-8.58763">
        <ele>8.79</ele>
        <time>2019-05-31T13:35:12Z</time>
      </trkpt>
      <trkpt lat="41.76547" lon="-8.58748">
        <ele>7.83</ele>
        <time>2019-05-31T13:35:27Z</time>
      </trkpt>
      <trkpt lat="41.76564" lon="-8.58728">
        <ele>8.31</ele>
        <time>2019-05-31T13:35:43Z</time>
      </trkpt>
      <trkpt lat="41.76573" lon="-8.58711">
        <ele>8.31</ele>
        <time>2019-05-31T13:35:57Z</time>
      </trkpt>
      <trkpt lat="41.76582" lon="-8.58692">
        <ele>8.31</ele>
        <time>2019-05-31T13:36:12Z</time>
      </trkpt>
      <trkpt lat="41.76597" lon="-8.5868">
        <ele>7.35</ele>
        <time>2019-05-31T13:36:27Z</time>
      </trkpt>
      <trkpt lat="41.76603" lon="-8.58674">
        <ele>7.35</ele>
        <time>2019-05-31T13:36:33Z</time>
      </trkpt>
      <trkpt lat="41.76615" lon="-8.58658">
        <ele>7.35</ele>
        <time>2019-05-31T13:36:48Z</time>
      </trkpt>
      <trkpt lat="41.76624" lon="-8.58649">
        <ele>7.35</ele>
        <time>2019-05-31T13:37:00Z</time>
      </trkpt>
      <trkpt lat="41.76633" lon="-8.58639">
        <ele>6.87</ele>
        <time>2019-05-31T13:37:08Z</time>
      </trkpt>
      <trkpt lat="41.76647" lon="-8.58624">
        <ele>6.87</ele>
        <time>2019-05-31T13:37:24Z</time>
      </trkpt>
      <trkpt lat="41.76657" lon="-8.58618">
        <ele>6.87</ele>
        <time>2019-05-31T13:37:39Z</time>
      </trkpt>
      <trkpt lat="41.76659" lon="-8.58614">
        <ele>6.87</ele>
        <time>2019-05-31T13:38:10Z</time>
      </trkpt>
      <trkpt lat="41.7666" lon="-8.58615">
        <ele>6.39</ele>
        <time>2019-05-31T13:38:43Z</time>
      </trkpt>
      <trkpt lat="41.7666" lon="-8.58613">
        <ele>6.39</ele>
        <time>2019-05-31T13:38:59Z</time>
      </trkpt>
      <trkpt lat="41.76659" lon="-8.58613">
        <ele>6.39</ele>
        <time>2019-05-31T13:39:22Z</time>
      </trkpt>
      <trkpt lat="41.76659" lon="-8.58607">
        <ele>6.39</ele>
        <time>2019-05-31T13:39:47Z</time>
      </trkpt>
      <trkpt lat="41.76658" lon="-8.58606">
        <ele>6.39</ele>
        <time>2019-05-31T13:40:13Z</time>
      </trkpt>
      <trkpt lat="41.76659" lon="-8.58605">
        <ele>6.39</ele>
        <time>2019-05-31T13:40:18Z</time>
      </trkpt>
      <trkpt lat="41.76668" lon="-8.58593">
        <ele>6.87</ele>
        <time>2019-05-31T13:40:31Z</time>
      </trkpt>
      <trkpt lat="41.7667" lon="-8.58592">
        <ele>6.39</ele>
        <time>2019-05-31T13:40:33Z</time>
      </trkpt>
      <trkpt lat="41.76682" lon="-8.58577">
        <ele>6.39</ele>
        <time>2019-05-31T13:40:47Z</time>
      </trkpt>
      <trkpt lat="41.76685" lon="-8.58575">
        <ele>6.87</ele>
        <time>2019-05-31T13:40:50Z</time>
      </trkpt>
      <trkpt lat="41.76701" lon="-8.58564">
        <ele>6.87</ele>
        <time>2019-05-31T13:41:07Z</time>
      </trkpt>
      <trkpt lat="41.76718" lon="-8.58552">
        <ele>5.91</ele>
        <time>2019-05-31T13:41:25Z</time>
      </trkpt>
      <trkpt lat="41.76732" lon="-8.58539">
        <ele>5.91</ele>
        <time>2019-05-31T13:41:40Z</time>
      </trkpt>
      <trkpt lat="41.76744" lon="-8.58532">
        <ele>5.91</ele>
        <time>2019-05-31T13:41:54Z</time>
      </trkpt>
      <trkpt lat="41.7675" lon="-8.58526">
        <ele>6.39</ele>
        <time>2019-05-31T13:42:02Z</time>
      </trkpt>
      <trkpt lat="41.76751" lon="-8.58524">
        <ele>6.87</ele>
        <time>2019-05-31T13:42:04Z</time>
      </trkpt>
      <trkpt lat="41.76754" lon="-8.58522">
        <ele>5.91</ele>
        <time>2019-05-31T13:42:07Z</time>
      </trkpt>
      <trkpt lat="41.76758" lon="-8.58519">
        <ele>5.91</ele>
        <time>2019-05-31T13:42:12Z</time>
      </trkpt>
      <trkpt lat="41.76767" lon="-8.58513">
        <ele>5.91</ele>
        <time>2019-05-31T13:42:21Z</time>
      </trkpt>
      <trkpt lat="41.76773" lon="-8.58504">
        <ele>6.87</ele>
        <time>2019-05-31T13:42:34Z</time>
      </trkpt>
      <trkpt lat="41.7677" lon="-8.58505">
        <ele>5.91</ele>
        <time>2019-05-31T13:42:50Z</time>
      </trkpt>
      <trkpt lat="41.76774" lon="-8.58509">
        <ele>6.39</ele>
        <time>2019-05-31T13:43:09Z</time>
      </trkpt>
      <trkpt lat="41.76775" lon="-8.58505">
        <ele>6.87</ele>
        <time>2019-05-31T13:43:31Z</time>
      </trkpt>
      <trkpt lat="41.76783" lon="-8.58497">
        <ele>6.87</ele>
        <time>2019-05-31T13:43:41Z</time>
      </trkpt>
      <trkpt lat="41.76785" lon="-8.58487">
        <ele>6.87</ele>
        <time>2019-05-31T13:43:52Z</time>
      </trkpt>
      <trkpt lat="41.76788" lon="-8.58486">
        <ele>6.39</ele>
        <time>2019-05-31T13:43:56Z</time>
      </trkpt>
      <trkpt lat="41.768" lon="-8.58475">
        <ele>6.39</ele>
        <time>2019-05-31T13:44:09Z</time>
      </trkpt>
      <trkpt lat="41.76813" lon="-8.58467">
        <ele>6.39</ele>
        <time>2019-05-31T13:44:23Z</time>
      </trkpt>
      <trkpt lat="41.76832" lon="-8.58454">
        <ele>7.83</ele>
        <time>2019-05-31T13:44:40Z</time>
      </trkpt>
      <trkpt lat="41.76839" lon="-8.58443">
        <ele>6.87</ele>
        <time>2019-05-31T13:44:53Z</time>
      </trkpt>
      <trkpt lat="41.76846" lon="-8.58435">
        <ele>8.79</ele>
        <time>2019-05-31T13:45:08Z</time>
      </trkpt>
      <trkpt lat="41.76843" lon="-8.58423">
        <ele>8.79</ele>
        <time>2019-05-31T13:45:23Z</time>
      </trkpt>
      <trkpt lat="41.76839" lon="-8.58405">
        <ele>7.83</ele>
        <time>2019-05-31T13:45:41Z</time>
      </trkpt>
      <trkpt lat="41.76826" lon="-8.58395">
        <ele>8.79</ele>
        <time>2019-05-31T13:45:57Z</time>
      </trkpt>
      <trkpt lat="41.76813" lon="-8.5838">
        <ele>9.27</ele>
        <time>2019-05-31T13:46:15Z</time>
      </trkpt>
      <trkpt lat="41.76803" lon="-8.58375">
        <ele>10.23</ele>
        <time>2019-05-31T13:46:31Z</time>
      </trkpt>
      <trkpt lat="41.76803" lon="-8.58357">
        <ele>10.23</ele>
        <time>2019-05-31T13:46:47Z</time>
      </trkpt>
      <trkpt lat="41.76812" lon="-8.58357">
        <ele>10.71</ele>
        <time>2019-05-31T13:47:09Z</time>
      </trkpt>
      <trkpt lat="41.7682" lon="-8.58353">
        <ele>11.67</ele>
        <time>2019-05-31T13:47:35Z</time>
      </trkpt>
      <trkpt lat="41.76809" lon="-8.58344">
        <ele>11.19</ele>
        <time>2019-05-31T13:47:51Z</time>
      </trkpt>
      <trkpt lat="41.76814" lon="-8.58353">
        <ele>11.67</ele>
        <time>2019-05-31T13:48:10Z</time>
      </trkpt>
      <trkpt lat="41.76817" lon="-8.58356">
        <ele>11.19</ele>
        <time>2019-05-31T13:48:30Z</time>
      </trkpt>
      <trkpt lat="41.76819" lon="-8.58358">
        <ele>11.67</ele>
        <time>2019-05-31T13:48:54Z</time>
      </trkpt>
      <trkpt lat="41.7682" lon="-8.58355">
        <ele>11.67</ele>
        <time>2019-05-31T13:49:17Z</time>
      </trkpt>
      <trkpt lat="41.76824" lon="-8.58356">
        <ele>12.15</ele>
        <time>2019-05-31T13:49:45Z</time>
      </trkpt>
      <trkpt lat="41.76823" lon="-8.58354">
        <ele>12.63</ele>
        <time>2019-05-31T13:50:06Z</time>
      </trkpt>
      <trkpt lat="41.76821" lon="-8.58355">
        <ele>12.15</ele>
        <time>2019-05-31T13:50:24Z</time>
      </trkpt>
      <trkpt lat="41.76819" lon="-8.58358">
        <ele>12.63</ele>
        <time>2019-05-31T13:50:43Z</time>
      </trkpt>
      <trkpt lat="41.76821" lon="-8.58357">
        <ele>12.63</ele>
        <time>2019-05-31T13:51:05Z</time>
      </trkpt>
      <trkpt lat="41.76823" lon="-8.58357">
        <ele>13.12</ele>
        <time>2019-05-31T13:51:28Z</time>
      </trkpt>
      <trkpt lat="41.76823" lon="-8.58354">
        <ele>13.6</ele>
        <time>2019-05-31T13:51:53Z</time>
      </trkpt>
      <trkpt lat="41.76821" lon="-8.58358">
        <ele>13.12</ele>
        <time>2019-05-31T13:52:21Z</time>
      </trkpt>
      <trkpt lat="41.76826" lon="-8.58357">
        <ele>13.12</ele>
        <time>2019-05-31T13:52:43Z</time>
      </trkpt>
      <trkpt lat="41.76819" lon="-8.58354">
        <ele>13.12</ele>
        <time>2019-05-31T13:53:02Z</time>
      </trkpt>
      <trkpt lat="41.76818" lon="-8.58357">
        <ele>13.6</ele>
        <time>2019-05-31T13:53:23Z</time>
      </trkpt>
      <trkpt lat="41.76821" lon="-8.58359">
        <ele>13.12</ele>
        <time>2019-05-31T13:53:29Z</time>
      </trkpt>
      <trkpt lat="41.76825" lon="-8.58369">
        <ele>12.63</ele>
        <time>2019-05-31T13:53:42Z</time>
      </trkpt>
      <trkpt lat="41.76831" lon="-8.58367">
        <ele>12.63</ele>
        <time>2019-05-31T13:53:58Z</time>
      </trkpt>
      <trkpt lat="41.76862" lon="-8.58365">
        <ele>13.12</ele>
        <time>2019-05-31T13:54:19Z</time>
      </trkpt>
      <trkpt lat="41.76868" lon="-8.58366">
        <ele>12.63</ele>
        <time>2019-05-31T13:54:27Z</time>
      </trkpt>
      <trkpt lat="41.76872" lon="-8.58367">
        <ele>12.63</ele>
        <time>2019-05-31T13:54:31Z</time>
      </trkpt>
      <trkpt lat="41.76882" lon="-8.58363">
        <ele>13.12</ele>
        <time>2019-05-31T13:54:47Z</time>
      </trkpt>
      <trkpt lat="41.7688" lon="-8.58358">
        <ele>13.12</ele>
        <time>2019-05-31T13:55:10Z</time>
      </trkpt>
      <trkpt lat="41.76878" lon="-8.58351">
        <ele>13.12</ele>
        <time>2019-05-31T13:55:33Z</time>
      </trkpt>
      <trkpt lat="41.76894" lon="-8.58361">
        <ele>13.12</ele>
        <time>2019-05-31T13:55:57Z</time>
      </trkpt>
      <trkpt lat="41.76886" lon="-8.58377">
        <ele>13.6</ele>
        <time>2019-05-31T13:56:19Z</time>
      </trkpt>
      <trkpt lat="41.76885" lon="-8.5838">
        <ele>13.12</ele>
        <time>2019-05-31T13:56:23Z</time>
      </trkpt>
      <trkpt lat="41.76884" lon="-8.58383">
        <ele>13.12</ele>
        <time>2019-05-31T13:56:25Z</time>
      </trkpt>
      <trkpt lat="41.76883" lon="-8.58406">
        <ele>13.6</ele>
        <time>2019-05-31T13:56:42Z</time>
      </trkpt>
      <trkpt lat="41.7688" lon="-8.58391">
        <ele>13.6</ele>
        <time>2019-05-31T13:57:05Z</time>
      </trkpt>
      <trkpt lat="41.76879" lon="-8.58402">
        <ele>14.08</ele>
        <time>2019-05-31T13:57:21Z</time>
      </trkpt>
      <trkpt lat="41.76872" lon="-8.5841">
        <ele>14.56</ele>
        <time>2019-05-31T13:57:40Z</time>
      </trkpt>
      <trkpt lat="41.7687" lon="-8.58415">
        <ele>13.6</ele>
        <time>2019-05-31T13:57:41Z</time>
      </trkpt>
      <trkpt lat="41.76869" lon="-8.58417">
        <ele>14.56</ele>
        <time>2019-05-31T13:57:42Z</time>
      </trkpt>
      <trkpt lat="41.76867" lon="-8.5842">
        <ele>14.08</ele>
        <time>2019-05-31T13:57:43Z</time>
      </trkpt>
      <trkpt lat="41.76866" lon="-8.58422">
        <ele>14.56</ele>
        <time>2019-05-31T13:57:44Z</time>
      </trkpt>
    </trkseg>
  </trk>
</gpx>